[[{"header":{"parameterUnit":"m.s-1","parameterCategory":1,"la1":30.6,"la2":29.2853,"lo1":-89.7004,"lo2":-87.6739,"dy":0.0162,"dx":0.0183,"nx":112,"ny":82,"refTime":"2024-08-15T18:00:00:Z","depth":0,"parameterNumber":2,"parameterNumberName":"U-component_of_WINDS"},"data":[0.0,0.0,0.0,0.0,0.0,0.0,0.0,0.0,0.0,0.0,0.0,0.0,0.0,0.0,0.0,0.0,0.0,0.0,0.0,0.0,0.0,0.0,0.0,0.0,0.0,0.0,0.0,0.0,0.0,0.0,0.0,0.0,0.0,0.0,0.0,0.0,0.0,0.0,0.0,0.0,0.0,0.0,0.0,0.0,0.0,0.0,0.0,0.0,0.0,0.0,0.0,0.0,0.0,0.0,0.0,0.0,0.0,0.0,0.0,0.0,0.0,0.0,0.0,0.0,0.0,0.0,0.0,0.0,0.0,0.0,0.0,0.0,0.0,0.0,0.0,0.0,0.0,0.0,0.0,0.0,0.0,0.0,0.0,0.0,0.0,0.0,0.0,0.0,0.0,0.0,-3.3108,-3.5073,-3.7637,-3.9204,-3.9204,-3.9204,-3.7855,-3.4645,0.0,0.0,0.0,0.0,0.0,0.0,0.0,0.0,0.0,0.0,0.0,0.0,0.0,0.0,0.0,0.0,0.0,0.0,0.0,0.0,0.0,0.0,0.0,0.0,0.0,0.0,0.0,0.0,0.0,0.0,0.0,0.0,0.0,0.0,0.0,0.0,0.0,0.0,0.0,0.0,0.0,0.0,0.0,0.0,0.0,0.0,0.0,0.0,0.0,0.0,0.0,0.0,0.0,0.0,0.0,0.0,0.0,0.0,0.0,0.0,0.0,0.0,0.0,0.0,0.0,0.0,0.0,0.0,0.0,0.0,0.0,0.0,0.0,0.0,0.0,0.0,0.0,0.0,0.0,0.0,0.0,0.0,0.0,0.0,0.0,0.0,0.0,0.0,0.0,0.0,0.0,0.0,0.0,0.0,0.0,0.0,0.0,0.0,0.0,0.0,0.0,0.0,0.0,0.0,-3.4141,-3.8117,-3.8913,-3.9204,-3.9204,-3.9204,-3.7607,-3.3914,0.0,0.0,0.0,0.0,0.0,0.0,0.0,0.0,0.0,0.0,0.0,0.0,0.0,0.0,0.0,0.0,0.0,0.0,0.0,0.0,0.0,0.0,0.0,0.0,0.0,0.0,0.0,0.0,0.0,0.0,0.0,0.0,0.0,0.0,0.0,0.0,0.0,0.0,0.0,0.0,0.0,0.0,0.0,0.0,0.0,0.0,0.0,0.0,0.0,0.0,0.0,0.0,0.0,0.0,0.0,0.0,0.0,0.0,0.0,0.0,0.0,0.0,0.0,0.0,0.0,0.0,0.0,0.0,0.0,0.0,0.0,0.0,0.0,0.0,0.0,0.0,0.0,0.0,0.0,0.0,0.0,0.0,0.0,0.0,0.0,0.0,0.0,0.0,0.0,0.0,0.0,0.0,0.0,0.0,0.0,0.0,0.0,0.0,0.0,0.0,0.0,0.0,0.0,-3.3156,-3.5103,-3.8797,-3.887,-3.8812,-3.9175,-3.887,-3.7172,-3.3688,-3.3103,0.0,0.0,0.0,0.0,0.0,0.0,0.0,0.0,0.0,0.0,0.0,0.0,0.0,0.0,0.0,0.0,0.0,0.0,0.0,0.0,0.0,0.0,0.0,0.0,0.0,0.0,0.0,0.0,0.0,0.0,0.0,0.0,0.0,0.0,0.0,0.0,0.0,0.0,0.0,0.0,0.0,0.0,0.0,0.0,0.0,0.0,0.0,0.0,0.0,0.0,0.0,0.0,0.0,0.0,0.0,0.0,0.0,0.0,0.0,0.0,0.0,0.0,0.0,0.0,0.0,0.0,0.0,0.0,0.0,0.0,0.0,0.0,0.0,0.0,0.0,0.0,0.0,0.0,0.0,0.0,0.0,0.0,0.0,0.0,0.0,0.0,0.0,0.0,0.0,0.0,0.0,0.0,0.0,0.0,0.0,0.0,0.0,0.0,0.0,0.0,0.0,0.0,-3.4727,-3.6035,-3.8667,-3.8301,-3.8113,-3.8634,-3.7794,-3.6012,-3.3129,-3.2503,0.0,0.0,0.0,0.0,0.0,0.0,0.0,0.0,0.0,0.0,0.0,0.0,0.0,0.0,0.0,0.0,0.0,0.0,0.0,0.0,0.0,0.0,0.0,0.0,0.0,0.0,0.0,0.0,0.0,0.0,0.0,0.0,0.0,0.0,0.0,0.0,0.0,0.0,0.0,0.0,0.0,0.0,0.0,0.0,0.0,0.0,0.0,0.0,0.0,0.0,0.0,0.0,0.0,0.0,0.0,0.0,0.0,0.0,0.0,0.0,0.0,0.0,0.0,0.0,0.0,0.0,0.0,0.0,0.0,0.0,0.0,0.0,0.0,0.0,0.0,0.0,0.0,0.0,0.0,0.0,0.0,0.0,0.0,0.0,0.0,0.0,0.0,0.0,0.0,0.0,0.0,0.0,0.0,0.0,0.0,0.0,0.0,0.0,0.0,0.0,0.0,0.0,-3.4826,-3.6707,-3.813,-3.7575,-3.708,-3.7123,-3.5438,-3.3552,-3.1565,-3.0689,0.0,0.0,0.0,0.0,0.0,0.0,0.0,0.0,0.0,0.0,0.0,0.0,0.0,0.0,0.0,0.0,0.0,0.0,0.0,0.0,0.0,0.0,0.0,0.0,0.0,0.0,0.0,0.0,0.0,0.0,0.0,0.0,0.0,0.0,0.0,0.0,0.0,0.0,0.0,0.0,0.0,0.0,0.0,0.0,0.0,0.0,0.0,0.0,0.0,0.0,0.0,0.0,0.0,0.0,0.0,0.0,0.0,0.0,0.0,0.0,0.0,0.0,0.0,0.0,0.0,0.0,0.0,0.0,0.0,0.0,0.0,0.0,0.0,0.0,0.0,0.0,0.0,0.0,0.0,0.0,0.0,0.0,0.0,0.0,0.0,0.0,0.0,0.0,0.0,0.0,0.0,0.0,0.0,0.0,0.0,0.0,0.0,0.0,0.0,0.0,0.0,0.0,-3.3573,-3.5099,-3.6693,-3.6459,-3.6415,-3.6816,-3.5885,-3.4329,-3.2104,0.0,0.0,0.0,0.0,0.0,0.0,0.0,0.0,0.0,0.0,0.0,0.0,0.0,0.0,0.0,0.0,0.0,0.0,0.0,0.0,0.0,0.0,0.0,0.0,0.0,0.0,0.0,0.0,0.0,0.0,0.0,0.0,0.0,0.0,0.0,0.0,0.0,0.0,0.0,0.0,0.0,0.0,0.0,0.0,0.0,0.0,0.0,0.0,0.0,0.0,0.0,0.0,0.0,0.0,0.0,0.0,0.0,0.0,0.0,0.0,0.0,0.0,0.0,0.0,0.0,0.0,0.0,0.0,0.0,0.0,0.0,0.0,0.0,0.0,0.0,0.0,0.0,0.0,0.0,0.0,0.0,0.0,0.0,0.0,0.0,0.0,0.0,0.0,0.0,0.0,0.0,0.0,0.0,0.0,0.0,0.0,0.0,0.0,0.0,0.0,0.0,0.0,-3.1718,-3.315,-3.4564,0.0,-3.577,-3.5769,-3.6325,-3.5382,-3.3916,-3.2133,0.0,0.0,0.0,0.0,0.0,0.0,0.0,0.0,0.0,0.0,0.0,0.0,0.0,0.0,0.0,0.0,0.0,0.0,0.0,0.0,0.0,0.0,0.0,0.0,0.0,0.0,0.0,0.0,0.0,0.0,0.0,0.0,0.0,0.0,0.0,0.0,0.0,0.0,0.0,0.0,0.0,0.0,0.0,0.0,0.0,0.0,0.0,0.0,0.0,0.0,0.0,0.0,0.0,0.0,0.0,0.0,0.0,0.0,0.0,0.0,0.0,0.0,0.0,0.0,0.0,0.0,0.0,0.0,0.0,0.0,0.0,0.0,0.0,0.0,0.0,0.0,0.0,0.0,0.0,0.0,0.0,0.0,0.0,0.0,0.0,0.0,0.0,0.0,0.0,0.0,0.0,0.0,0.0,0.0,0.0,0.0,0.0,0.0,0.0,0.0,0.0,0.0,-3.1623,-3.3827,-3.559,-3.6214,-3.558,-3.5252,-3.5653,-3.3397,-3.1697,0.0,0.0,0.0,0.0,0.0,0.0,0.0,0.0,0.0,0.0,0.0,0.0,0.0,0.0,0.0,0.0,0.0,0.0,0.0,0.0,0.0,0.0,0.0,0.0,0.0,0.0,0.0,0.0,0.0,0.0,0.0,0.0,0.0,0.0,0.0,0.0,0.0,0.0,0.0,0.0,0.0,0.0,0.0,0.0,0.0,0.0,0.0,0.0,0.0,0.0,0.0,0.0,0.0,0.0,0.0,0.0,0.0,0.0,0.0,0.0,0.0,0.0,0.0,0.0,0.0,0.0,0.0,0.0,0.0,0.0,0.0,0.0,0.0,0.0,0.0,0.0,0.0,0.0,0.0,0.0,0.0,0.0,0.0,0.0,0.0,0.0,0.0,0.0,0.0,0.0,0.0,0.0,0.0,0.0,0.0,0.0,0.0,0.0,0.0,0.0,0.0,0.0,0.0,-3.0829,-3.2963,-3.4488,-3.462,-3.4654,-3.4911,-3.5463,-3.4427,-3.3038,-3.1326,0.0,0.0,0.0,0.0,0.0,0.0,0.0,0.0,0.0,0.0,0.0,0.0,0.0,0.0,0.0,0.0,0.0,0.0,0.0,0.0,0.0,0.0,0.0,0.0,0.0,0.0,0.0,0.0,0.0,0.0,0.0,0.0,0.0,0.0,0.0,0.0,0.0,0.0,0.0,0.0,0.0,0.0,0.0,0.0,0.0,0.0,0.0,0.0,0.0,0.0,0.0,0.0,0.0,0.0,0.0,0.0,0.0,0.0,0.0,0.0,0.0,0.0,0.0,0.0,0.0,0.0,0.0,0.0,0.0,0.0,0.0,0.0,0.0,0.0,0.0,0.0,0.0,0.0,0.0,0.0,0.0,0.0,0.0,0.0,0.0,0.0,0.0,0.0,0.0,0.0,0.0,0.0,0.0,0.0,0.0,0.0,0.0,0.0,0.0,0.0,0.0,0.0,-3.0447,-3.2609,-3.4142,-3.402,-3.4454,-3.4996,-3.5609,-3.4947,-3.3535,-3.1489,0.0,0.0,0.0,0.0,0.0,0.0,0.0,0.0,0.0,0.0,0.0,0.0,0.0,0.0,0.0,0.0,0.0,0.0,0.0,0.0,0.0,0.0,0.0,0.0,0.0,0.0,0.0,0.0,0.0,0.0,0.0,0.0,0.0,0.0,0.0,0.0,0.0,0.0,0.0,0.0,0.0,0.0,0.0,0.0,0.0,0.0,0.0,0.0,0.0,0.0,0.0,0.0,0.0,0.0,0.0,0.0,0.0,0.0,0.0,0.0,0.0,0.0,0.0,0.0,0.0,0.0,0.0,0.0,0.0,0.0,0.0,0.0,0.0,0.0,0.0,0.0,0.0,0.0,0.0,0.0,0.0,0.0,0.0,0.0,0.0,0.0,0.0,0.0,0.0,0.0,0.0,0.0,0.0,0.0,0.0,0.0,0.0,0.0,0.0,0.0,0.0,0.0,-3.0413,-3.2775,-3.4365,-3.4214,-3.4792,-3.541,-3.5899,-3.5018,-3.3619,-3.1559,0.0,0.0,0.0,0.0,0.0,0.0,0.0,0.0,0.0,0.0,0.0,0.0,0.0,0.0,0.0,0.0,0.0,0.0,0.0,0.0,0.0,0.0,0.0,0.0,0.0,0.0,0.0,0.0,0.0,0.0,0.0,0.0,0.0,0.0,0.0,0.0,0.0,0.0,0.0,0.0,0.0,0.0,0.0,0.0,0.0,0.0,0.0,0.0,0.0,0.0,0.0,0.0,0.0,0.0,0.0,0.0,0.0,0.0,0.0,0.0,-2.8996,0.0,0.0,0.0,0.0,0.0,0.0,0.0,0.0,0.0,0.0,0.0,0.0,0.0,0.0,0.0,0.0,0.0,0.0,0.0,0.0,0.0,0.0,0.0,0.0,0.0,0.0,0.0,0.0,0.0,0.0,0.0,0.0,0.0,0.0,0.0,0.0,0.0,0.0,0.0,0.0,0.0,-3.0845,-3.3255,-3.4905,-3.4681,-3.5538,-3.5992,-3.5768,-3.5272,-3.382,-3.1151,-2.9478,0.0,0.0,0.0,0.0,0.0,0.0,0.0,0.0,0.0,0.0,0.0,0.0,0.0,0.0,0.0,0.0,0.0,0.0,0.0,0.0,0.0,0.0,0.0,0.0,0.0,0.0,0.0,0.0,0.0,0.0,0.0,0.0,0.0,0.0,0.0,0.0,0.0,0.0,0.0,0.0,0.0,0.0,0.0,0.0,0.0,0.0,0.0,0.0,0.0,0.0,0.0,0.0,0.0,0.0,0.0,0.0,0.0,0.0,0.0,0.0,-3.0273,0.0,0.0,0.0,0.0,0.0,0.0,0.0,0.0,0.0,0.0,0.0,0.0,0.0,0.0,0.0,0.0,0.0,0.0,0.0,0.0,0.0,0.0,0.0,0.0,0.0,0.0,0.0,0.0,0.0,0.0,0.0,0.0,0.0,0.0,0.0,0.0,0.0,0.0,0.0,0.0,-3.0954,-3.3336,-3.4854,-3.4618,-3.5428,-3.5697,-3.5286,-3.4974,-3.3792,-3.1535,-2.9895,0.0,0.0,0.0,0.0,0.0,0.0,0.0,0.0,0.0,0.0,0.0,0.0,0.0,0.0,0.0,0.0,0.0,0.0,0.0,0.0,0.0,0.0,0.0,0.0,0.0,0.0,0.0,0.0,0.0,0.0,0.0,0.0,0.0,0.0,0.0,0.0,0.0,0.0,0.0,0.0,0.0,0.0,0.0,0.0,0.0,0.0,0.0,0.0,0.0,0.0,0.0,0.0,0.0,-3.3241,-3.3259,-3.2862,-3.3351,-3.3532,-3.3337,-3.2839,-3.2531,-3.2272,0.0,0.0,0.0,0.0,0.0,0.0,0.0,0.0,0.0,0.0,0.0,0.0,0.0,0.0,0.0,0.0,0.0,0.0,0.0,0.0,0.0,0.0,0.0,0.0,0.0,-3.0307,-3.1375,0.0,0.0,0.0,0.0,0.0,0.0,0.0,0.0,0.0,0.0,0.0,0.0,-3.1077,-3.3194,-3.4545,-3.4444,-3.5,-3.5159,-3.4722,-3.4468,-3.3692,-3.2109,-3.0685,-2.9113,0.0,0.0,0.0,0.0,0.0,0.0,0.0,0.0,0.0,0.0,0.0,0.0,0.0,0.0,0.0,0.0,0.0,0.0,0.0,0.0,0.0,0.0,0.0,0.0,0.0,0.0,0.0,0.0,0.0,0.0,0.0,0.0,-2.3616,-2.4682,0.0,0.0,0.0,0.0,0.0,0.0,0.0,0.0,0.0,0.0,0.0,0.0,0.0,-3.2776,-3.2563,-3.3635,-3.4384,-3.483,-3.5891,-3.6478,-3.6499,-3.699,-3.6808,-3.6019,-3.6045,0.0,-3.2904,-3.2821,0.0,0.0,0.0,0.0,0.0,0.0,0.0,0.0,0.0,0.0,0.0,0.0,0.0,0.0,0.0,0.0,0.0,0.0,0.0,0.0,0.0,0.0,-3.1766,-3.0808,-3.1383,-3.1802,0.0,-2.9345,-2.8101,-2.7512,-2.7881,0.0,0.0,0.0,0.0,0.0,0.0,0.0,-3.1542,-3.2923,-3.3937,-3.4375,-3.4808,-3.4875,-3.4432,-3.4386,-3.3862,-3.2686,-3.1734,-3.0687,-2.946,-2.7975,0.0,0.0,0.0,0.0,0.0,0.0,0.0,0.0,0.0,0.0,0.0,0.0,0.0,0.0,0.0,0.0,0.0,0.0,0.0,0.0,0.0,0.0,0.0,0.0,0.0,0.0,0.0,0.0,0.0,-2.348,-2.5497,-2.6214,-2.7286,-2.7733,0.0,0.0,0.0,0.0,0.0,0.0,0.0,0.0,0.0,-3.3817,-3.4581,-3.5338,-3.5927,-3.6338,-3.6629,-3.6894,-3.7112,-3.727,-3.7322,-3.7556,-3.7391,-3.7,-3.7068,-3.6541,-3.5543,-3.4152,-3.3356,-3.29,0.0,0.0,0.0,0.0,0.0,-3.2675,-3.3752,-3.4005,0.0,0.0,0.0,0.0,0.0,0.0,0.0,0.0,0.0,0.0,0.0,0.0,0.0,-3.1543,-3.1935,-3.2143,-3.0971,-3.0088,-2.9369,0.0,-2.8798,-2.8424,-2.6778,0.0,0.0,0.0,0.0,-2.9835,-3.1517,-3.2697,-3.3647,-3.416,-3.4406,-3.4293,-3.3713,-3.3907,-3.3759,-3.3173,-3.2417,-3.1785,-3.128,-2.9684,-2.8404,0.0,0.0,0.0,0.0,0.0,0.0,0.0,0.0,0.0,0.0,0.0,0.0,0.0,0.0,0.0,0.0,0.0,0.0,0.0,0.0,0.0,0.0,0.0,0.0,0.0,0.0,0.0,0.0,-2.5404,-2.7042,-2.7596,-2.8808,-2.9208,0.0,0.0,0.0,0.0,0.0,0.0,-3.3388,-3.408,-3.5042,-3.6317,-3.6975,-3.7805,-3.8699,-3.849,-3.8462,-3.8527,-3.8046,-3.7811,-3.788,-3.7907,-3.7823,-3.7659,-3.7659,-3.7638,-3.7556,-3.5631,-3.4896,-3.4866,-3.4106,-3.3964,-3.4214,-3.4515,-3.4411,-3.4368,-3.5584,-3.5891,-3.5584,-3.4638,0.0,-3.2954,-3.1061,0.0,0.0,0.0,0.0,-2.9402,-3.0936,-3.1527,-3.175,-3.1738,-3.2018,-3.198,-3.0798,-3.0473,-3.0251,0.0,-2.9549,-2.8898,-2.7067,0.0,0.0,0.0,0.0,-2.9597,-3.1182,-3.213,-3.2894,-3.356,-3.3592,-3.35,-3.3154,-3.3398,-3.3556,-3.3398,-3.2911,-3.26,-3.26,-3.1033,-2.9718,-2.8843,0.0,0.0,0.0,0.0,0.0,0.0,0.0,0.0,0.0,0.0,0.0,0.0,0.0,0.0,0.0,0.0,0.0,0.0,0.0,0.0,0.0,0.0,0.0,0.0,0.0,0.0,0.0,0.0,0.0,-2.835,-2.9297,0.0,0.0,0.0,0.0,-3.1921,-3.2756,-3.383,-3.5253,-3.6151,-3.717,-3.8331,-3.9198,-3.9532,-3.9283,-3.9044,-3.906,-3.9361,-3.9057,-3.8987,-3.9086,-3.9234,-3.896,-3.8347,-3.8347,-3.8072,-3.7707,-3.7556,-3.7319,-3.7036,-3.6975,-3.672,-3.6415,-3.7061,-3.6892,-3.6445,-3.7153,-3.6984,-3.643,-3.6399,-3.466,-3.2538,-3.2606,-3.0867,0.0,0.0,-3.0578,-3.0815,-3.1893,-3.2155,-3.2109,-3.1669,-3.1338,-3.0976,-3.0496,-3.0126,-3.0011,0.0,-3.0398,-2.9947,-2.9855,0.0,-2.8995,-2.8995,-2.895,-2.9352,-3.0644,-3.0816,-3.114,-3.2139,-3.2265,-3.2478,-3.3031,-3.3326,-3.3398,-3.3398,-3.327,-3.3196,-3.3196,-3.1707,-3.066,-3.0059,-2.836,0.0,0.0,0.0,0.0,0.0,0.0,0.0,0.0,0.0,0.0,0.0,0.0,0.0,0.0,0.0,0.0,0.0,0.0,0.0,0.0,0.0,0.0,0.0,0.0,0.0,0.0,0.0,0.0,-3.0103,-3.0791,0.0,-3.1744,-3.2084,-3.2997,-3.4753,-3.5294,-3.6197,-3.7696,-3.8435,-3.9084,-3.9613,-3.996,-4.0226,-4.0469,-4.0137,-3.9936,-3.9816,-4.006,-4.0096,-3.9983,-4.0021,-3.9918,-3.9649,-3.923,-3.8987,-3.8988,-3.8988,-3.8546,-3.7892,-3.8008,-3.8196,-3.8477,-3.8708,-3.8923,-3.9123,-3.937,-3.8723,-3.7582,-3.6231,-3.4812,-3.3564,-3.3178,-3.2083,-3.1105,-3.1548,-3.168,-3.1753,-3.2128,-3.2182,-3.2023,-3.1347,-3.1136,-3.0836,-3.0164,-2.9856,-2.9869,-3.0139,-2.9986,-2.9732,-2.9351,-2.9122,-2.8982,-2.8982,-2.8937,-2.9454,-3.095,-3.1133,-3.1537,-3.2654,-3.2767,-3.2855,-3.3056,-3.2655,-3.2568,-3.3033,-3.2143,-3.198,-3.2813,-3.198,-3.1091,-3.015,-2.9157,-2.7719,0.0,0.0,0.0,0.0,0.0,0.0,0.0,0.0,0.0,0.0,0.0,0.0,0.0,0.0,0.0,0.0,0.0,0.0,0.0,0.0,0.0,0.0,0.0,0.0,0.0,0.0,-3.0289,-3.1028,-3.2023,-3.2821,-3.3259,-3.3979,-3.504,-3.6667,-3.7447,-3.8263,-3.9357,-4.0135,-4.0658,-4.0993,-4.1178,-4.1455,-4.1757,-4.1341,-4.106,-4.0863,-4.1146,-4.1066,-4.0726,-4.0726,-4.0726,-4.0711,-4.0277,-4.0229,-4.0519,-4.0519,-4.0203,-3.9741,-3.9496,-3.9748,-4.0247,-4.0478,-4.0693,-4.0816,-4.0355,-3.9382,-3.8165,-3.655,-3.5375,-3.4438,-3.3734,-3.3007,-3.244,-3.2236,-3.2182,-3.2182,-3.2182,-3.2182,-3.2096,-3.1508,-3.1286,-3.1048,-3.0394,-3.0088,-2.9934,-2.9869,-2.9792,-2.9666,-2.9289,-2.9214,-2.9214,-2.9214,-2.9214,-2.9616,-3.0708,-3.1022,-3.1486,-3.2416,-3.2679,-3.2867,-3.3056,-3.2382,-3.2168,-3.2631,-3.1549,-3.1203,-3.185,-3.1485,-3.0817,-2.9862,-2.9274,-2.832,-2.6987,0.0,0.0,0.0,0.0,0.0,0.0,0.0,0.0,0.0,0.0,0.0,0.0,0.0,0.0,0.0,0.0,0.0,0.0,0.0,0.0,0.0,0.0,0.0,-2.8415,-3.0548,-3.1911,-3.1116,-3.2901,-3.4254,-3.4285,-3.6144,-3.7402,-3.7589,-3.8984,-3.9945,-4.0318,-4.1191,-4.1869,-4.2291,-4.2825,-4.3114,-4.3114,-4.2685,-4.254,-4.2494,-4.2101,-4.1761,-4.149,-4.1414,-4.1414,-4.1414,-4.1399,-4.1611,-4.1999,-4.1999,-4.2221,-4.254,-4.1648,-4.1474,-4.174,-4.2402,-4.2217,-4.1463,-4.0047,-3.9032,-3.8257,-3.75,-3.6214,-3.491,-3.4279,-3.3629,-3.2969,-3.2399,-3.2236,-3.2223,-3.2209,-3.2209,-3.2209,-3.2182,-3.1863,-3.1482,-3.1061,-3.0672,-3.0292,-2.9869,-2.9792,-2.9792,-2.9792,-2.9792,-2.9792,-2.9792,-2.9792,0.0,-2.9817,-3.0281,-3.0821,-3.1361,-3.1888,-3.2441,-3.3031,-3.2516,-3.2164,-3.219,-3.15,-3.0894,-3.0343,-3.0229,-2.9876,-2.934,-2.8726,-2.8699,-2.9274,0.0,0.0,0.0,0.0,0.0,0.0,0.0,0.0,0.0,0.0,0.0,0.0,0.0,0.0,0.0,0.0,0.0,0.0,0.0,0.0,0.0,-2.9342,-3.0191,-3.0483,-3.1799,-3.2932,-3.338,-3.4225,-3.537,-3.6785,-3.7282,-3.8106,-3.9739,-4.0023,-4.0669,-4.1799,-4.2303,-4.2663,-4.2872,-4.3317,-4.3255,-4.2654,-4.2813,-4.2669,-4.216,-4.2499,-4.2607,-4.2561,-4.2241,-4.2087,-4.2149,-4.1806,-4.1745,-4.1984,-4.2132,-4.2368,-4.2586,-4.2329,-4.2529,-4.3048,-4.3233,-4.3187,-4.2771,-4.0893,-4.0094,-3.9534,-3.7216,-3.6214,-3.5611,-3.4306,-3.384,-3.3675,-3.3512,-3.3457,-3.3363,-3.2928,-3.282,-3.2711,-3.1971,-3.1421,-3.1048,-3.0672,-3.0228,-2.9934,-2.9792,-2.9792,-2.9792,-2.9792,-2.9792,-2.9792,-2.9792,-2.9792,0.0,-3.0331,-3.052,-3.0972,-3.1888,-3.2127,-3.2441,-3.3031,-3.1838,-3.1304,-3.2008,-2.9972,-2.9567,-3.1305,-3.0585,-3.0255,-3.0516,-2.9536,-2.9118,0.0,0.0,0.0,0.0,0.0,0.0,0.0,0.0,0.0,0.0,0.0,0.0,0.0,0.0,0.0,0.0,0.0,0.0,0.0,0.0,0.0,0.0,-3.0823,-3.2244,-3.2628,-3.3008,-3.3575,-3.4337,-3.5291,-3.6383,-3.7544,-3.8388,-3.9408,-4.0626,-4.1164,-4.1712,-4.248,-4.3269,-4.3621,-4.3519,-4.4062,-4.4116,-4.3665,-4.3681,-4.3608,-4.3313,-4.3562,-4.3533,-4.3411,-4.3165,-4.301,0.0,-4.268,-4.2667,-4.297,-4.312,-4.3284,0.0,0.0,0.0,0.0,0.0,-4.3171,-4.2956,-4.1478,-4.0517,-3.9646,-3.7623,-3.6573,-3.5798,-3.4612,-3.4248,-3.418,-3.3937,-3.3869,-3.3788,-3.3525,-3.3254,-3.2969,-3.2395,-3.183,-3.136,-3.0748,-3.0457,-3.0164,-2.9869,0.0,0.0,-2.9792,-2.9792,-2.9792,-2.9792,-2.9792,-2.9905,-3.0231,-3.047,-3.0859,-3.1474,-3.1738,-3.2001,-3.234,-3.1499,0.0,0.0,0.0,-3.0134,-3.1444,-3.0843,0.0,0.0,0.0,0.0,0.0,0.0,0.0,0.0,-3.2804,-3.225,0.0,0.0,0.0,0.0,0.0,0.0,0.0,0.0,0.0,0.0,0.0,0.0,0.0,0.0,0.0,0.0,-3.2143,-3.4488,-3.4719,-3.4218,-3.4027,-3.4562,-3.6175,-3.7382,-3.7461,-3.9502,-4.0785,-4.0768,-4.2037,-4.2897,-4.2873,0.0,0.0,0.0,0.0,-4.5247,-4.5173,-4.4874,-4.4874,-4.5173,-4.4799,-4.4419,-4.4143,-4.4065,-4.391,-4.3769,-4.3769,-4.3988,-4.4281,-4.4358,-4.4389,-4.4356,-4.3248,-4.2786,-4.2709,-4.2633,-4.2556,0.0,0.0,0.0,0.0,-3.8364,-3.7063,-3.5695,-3.5086,-3.4936,-3.4828,-3.4208,-3.4072,-3.4059,-3.3991,-3.3661,-3.324,-3.3186,-3.2752,-3.2125,-3.1329,-3.1091,-3.0763,-3.0023,-2.9869,-2.9792,-2.9792,-2.9792,-2.9792,-2.9792,-2.9792,-2.9792,-2.9792,-3.0218,-3.0545,-3.0608,0.0,0.0,-3.1386,-3.1336,-3.111,-3.0712,-3.1605,-3.1836,-3.113,-3.1274,-3.1588,-3.2032,-3.2163,-3.3208,-3.5195,-3.4855,-3.5182,-3.607,-3.3573,-3.2632,0.0,0.0,0.0,0.0,0.0,0.0,0.0,0.0,0.0,0.0,0.0,0.0,0.0,0.0,0.0,-3.202,-3.3135,-3.4315,-3.624,-3.5692,-3.5257,-3.5817,-3.7118,-3.8323,-3.9215,-4.0087,-4.0895,-4.1595,-4.2354,-4.3067,-4.3706,-4.4345,0.0,-4.5425,-4.5583,-4.5499,-4.5173,-4.5098,-4.5098,-4.5173,0.0,0.0,-4.4723,-4.4587,-4.4281,-4.391,-4.4127,-4.4205,-4.4281,-4.4511,-4.4264,-4.3787,-4.4079,-4.3864,-4.3325,-4.2802,-4.2263,-4.1694,-4.0986,-4.0046,-3.9179,-3.8368,-3.7434,-3.6531,-3.5734,-3.5547,0.0,-3.5398,-3.5371,-3.5262,-3.4787,-3.457,-3.4367,-3.3892,-3.3446,-3.2925,-3.2319,-3.1692,-3.101,-3.0381,-3.0011,-2.9792,-2.9792,-2.9792,-2.9792,-2.9792,-2.9792,-2.9792,-2.9792,-2.988,-3.0118,-3.057,-3.0708,-3.0934,-3.1348,-3.0997,-3.088,-3.1057,-3.2057,-3.2306,-3.1705,-3.2999,-3.3587,-3.326,-3.4162,-3.4607,-3.458,-3.5874,-3.6358,-3.6096,-3.5583,-3.4502,0.0,0.0,0.0,0.0,0.0,0.0,0.0,0.0,0.0,0.0,0.0,-2.5185,-2.6624,0.0,-3.0616,-3.2744,-3.4273,-3.5621,-3.6798,-3.6805,-3.6619,-3.6489,-3.7483,-3.8464,-3.9301,-4.0291,-4.1151,-4.1851,-4.2817,-4.3563,-4.3981,-4.4772,-4.5428,-4.5807,-4.5896,-4.588,-4.5646,-4.5703,-4.576,-4.576,-4.5583,-4.5363,-4.5024,-4.4949,-4.4663,-4.4127,-4.4281,-4.4358,-4.4435,-4.4587,-4.4172,-4.3602,-4.3941,-4.3464,-4.2494,-4.1817,-4.1355,-4.0946,-4.0298,-3.958,-3.8811,-3.8055,-3.7323,-3.6587,-3.6138,-3.5978,-3.5898,-3.5898,-3.5804,-3.5642,-3.5357,-3.5058,-3.4746,-3.4461,-3.4008,-3.3467,-3.3018,-3.22,-3.1461,-3.0945,-3.0278,-2.9792,-2.9792,-2.9792,-2.9792,-2.9792,-2.9792,-2.9792,-2.9792,-2.9792,-2.9892,-3.0168,-3.0206,-3.0306,-3.057,-3.0675,-3.114,-3.2008,-3.2639,-3.2919,-3.2725,-3.4084,-3.4724,-3.445,-3.5273,-3.5848,-3.6149,-3.6423,-3.6519,-3.6418,-3.6135,-3.5156,0.0,0.0,0.0,0.0,0.0,0.0,0.0,-2.1754,-2.3076,-2.4511,-2.5854,-2.7025,-2.7875,-3.0136,-3.2144,-3.3103,-3.5369,-3.706,-3.7165,-3.761,-3.7719,-3.7158,-3.7792,-3.8515,-3.9086,-4.0334,-4.1326,-4.1916,-4.3269,-4.4065,-4.4065,-4.5262,-4.588,-4.588,-4.6024,-4.6168,-4.6168,-4.6278,-4.6262,-4.6262,-4.6333,-4.5977,-4.5247,-4.5379,-4.5008,-4.4358,-4.4358,-4.4435,-4.4572,-4.4572,-4.4172,-4.3556,-4.3433,-4.2663,-4.1524,-4.094,-4.0647,-4.0385,-3.9895,-3.9147,-3.8397,-3.7796,-3.707,-3.6405,-3.6405,-3.6325,-3.6166,-3.6166,-3.5978,-3.5804,-3.5804,-3.545,-3.5097,-3.5097,-3.473,-3.4258,-3.3799,-3.2944,-3.2057,-3.1643,-3.0624,-2.9934,-2.9934,-2.9934,-2.9869,-2.9792,-2.9792,-2.9792,-2.9792,-2.9792,-2.9792,-2.9792,-2.9869,-2.9869,-2.9934,-3.0494,-3.1286,-3.241,-3.2833,-3.3177,-3.3574,-3.4685,-3.5351,-3.5443,-3.6109,-3.6881,-3.773,-3.6867,-3.6664,-3.6909,-3.616,-3.5177,-1.7226,-1.7452,-1.7555,-1.8445,-1.8941,-2.0069,0.0,-2.4221,-2.4607,-2.693,-2.729,-2.7765,-2.9581,-3.0825,-3.2332,-3.446,-3.6041,-3.7181,-3.7711,-3.7886,-3.7985,-3.8222,-3.8737,-3.9269,-3.9854,-4.0638,-4.1389,-4.1997,-4.3355,-4.4237,-4.4439,-4.5581,-4.6262,-4.6262,-4.6278,-4.6278,-4.6278,-4.6262,-4.6262,-4.6262,-4.6458,-4.6175,-4.5468,-4.5945,-4.5583,-4.4572,-4.4572,-4.4587,-4.4572,-4.4572,-4.4172,-4.351,-4.294,-4.2263,-4.1586,-4.1509,-4.1078,-4.0385,-3.9895,-3.9147,-3.8397,-3.7796,-3.707,-3.6405,-3.6405,-3.6405,-3.6405,-3.6405,-3.6312,-3.6312,-3.6312,-3.627,-3.6215,-3.6215,-3.616,-3.5953,-3.5388,-3.418,-3.3074,-3.2452,-3.1289,-3.0292,-3.0292,-3.0292,-3.0228,-2.9869,-2.9792,-2.9792,-2.9792,-2.9792,-2.9792,-2.9792,-2.9934,-3.0152,-3.0292,-3.0598,-3.0777,-3.097,-3.1603,-3.2424,-3.3548,-3.4685,-3.5521,-3.6005,-3.7129,-3.7508,-3.7103,-3.7508,-3.7678,-3.7703,-3.6282,-3.5077,-1.6128,-1.7346,-1.841,-1.9321,-2.0037,-2.1158,-2.3813,-2.4596,-2.5328,-2.7346,-2.8158,-2.8872,-3.0048,-3.1507,-3.3057,0.0,-3.626,-3.761,-3.7886,-3.7721,-3.7576,-3.776,-3.7979,-3.8599,-3.9902,-4.0485,-4.1112,-4.2029,-4.3103,-4.3923,-4.449,-4.525,-4.5917,-4.6262,-4.6388,-4.6458,-4.6458,-4.6598,-4.6684,-4.6684,-4.6738,-4.6528,-4.5945,-4.623,-4.5801,-4.4949,-4.4723,-4.4572,-4.4556,-4.4156,-4.3602,-4.294,-4.2279,-4.1586,-4.097,-4.097,-4.0786,-4.0385,-3.9895,-3.9147,-3.8397,-3.7947,-3.7211,-3.6642,-3.6693,-3.6707,-3.6563,-3.6563,-3.6484,-3.6405,-3.6405,-3.6405,-3.6405,-3.6405,-3.6405,-3.6322,-3.606,-3.4858,-3.3648,-3.3378,-3.1968,-3.0748,-3.0748,-3.0596,-3.0368,-3.0152,-3.0152,-3.0266,-3.0597,-3.0635,-3.0635,-3.0635,-3.0713,-3.065,-3.0394,-3.0893,-3.1164,-3.1164,-3.2189,-3.3221,-3.4031,-3.5155,-3.6044,-3.6619,-3.7469,-3.7312,-3.6159,-3.6826,-3.6557,-3.5211,-3.5029,-3.4397,-1.5481,-1.7214,-1.8821,-1.9773,-2.0764,-2.2038,-2.3923,-2.4715,-2.5621,-2.746,-2.8484,-2.9345,-3.0087,-3.1776,-3.3319,-3.4343,-3.625,-3.7719,-3.7985,-3.7592,-3.7404,-3.7598,-3.753,-3.8244,-4.0123,-4.0259,-4.0764,-4.2045,-4.2784,-4.3525,-4.425,-4.5002,-4.5656,-4.6169,-4.6502,-4.6652,-4.6652,-4.6807,-4.6876,-4.6876,-4.6876,-4.6668,-4.6285,-4.6088,-4.5728,-4.5321,-4.4799,-4.4572,-4.4526,-4.3848,-4.3187,-4.254,-4.1863,-4.1155,-4.0524,-4.0524,-4.0385,-4.0176,-3.9595,-3.8855,-3.8173,-3.7658,-3.7148,-3.6707,-3.685,-3.685,-3.6786,-3.6786,-3.6707,-3.6549,-3.6549,-3.6549,-3.6549,-3.6549,-3.6549,-3.6549,-3.6549,-3.5393,-3.4366,-3.4203,-3.2653,-3.1382,-3.1224,-3.0823,-3.0596,-3.0596,-3.0596,-3.0675,-3.0919,-3.1111,-3.1201,-3.1279,-3.1421,-3.1292,-3.0804,-3.128,-3.1526,-3.1357,-3.2463,-3.3496,-3.4358,-3.5351,-3.6305,-3.7233,-3.7678,-3.739,-3.6205,-3.6519,-3.5837,-3.4234,-3.4304,-3.4005,-1.5999,-1.7359,-1.8892,-1.9851,-2.1017,-2.2434,-2.4681,-2.5196,-2.5681,-2.746,-2.8134,-2.8736,-2.9903,-3.1258,-3.2901,-3.5032,-3.6169,-3.7215,-3.8238,-3.7776,-3.7582,-3.8278,-3.8187,-3.8867,-4.0779,-4.0114,-4.0324,-4.222,-4.2524,-4.2927,-4.3702,-4.5046,-4.5807,-4.584,-4.652,-4.6876,-4.6876,-4.6876,-4.6876,-4.6876,-4.6876,-4.6668,-4.6301,-4.5599,-4.5468,-4.576,-4.4949,-4.4572,-4.4526,-4.3848,-4.3187,-4.254,-4.1863,-4.1155,-4.0524,-4.0524,-4.0176,-3.961,-3.8841,-3.8173,-3.7505,-3.6693,-3.6563,-3.6721,-3.6721,-3.685,-3.6978,-3.6978,-3.6993,-3.6978,-3.6978,-3.6978,-3.6978,-3.6978,-3.6978,-3.6978,-3.6978,-3.6178,-3.5245,-3.4665,-3.343,-3.2297,-3.1649,-3.1272,-3.0986,-3.0986,-3.0986,-3.0836,-3.047,-3.0868,-3.1279,-3.15,-3.2018,-3.2201,-3.1785,-3.1759,-3.1601,-3.1052,-3.1561,-3.2646,-3.4332,-3.4999,-3.6123,-3.7848,-3.79,-3.79,-3.7874,-3.7108,-3.6709,-3.6602,-3.486,-3.3993,-1.6249,-1.7477,-1.8885,-2.0818,-2.1619,-2.2372,-2.4269,-2.4922,-2.5501,-2.6452,-2.7432,-2.8344,-2.916,-3.0954,-3.271,-3.3744,-3.5783,-3.7332,-3.7647,-3.7469,-3.7497,-3.8142,-3.8623,-3.9465,-4.0983,-4.0721,0.0,-4.2766,-4.2549,-4.2733,-4.3638,-4.4156,-4.4625,-4.5111,-4.5807,-4.6164,-4.6164,-4.6649,-4.6876,-4.6876,-4.6876,-4.6807,-4.6652,-4.6159,-4.6017,-4.6088,-4.5305,-4.5024,-4.4856,-4.3534,-4.2802,-4.2494,-4.134,-4.0739,-4.0524,-4.0524,-3.9879,-3.909,-3.9235,-3.8841,-3.8098,-3.7429,-3.6993,-3.6721,-3.6721,-3.685,-3.6978,-3.6978,-3.6978,-3.6978,-3.6978,-3.6978,-3.6978,-3.6978,-3.6978,-3.6978,-3.6978,-3.6424,-3.5857,-3.5647,-3.4108,-3.2833,-3.2631,-3.2004,-3.1679,-3.2058,-3.1797,-3.1472,-3.1318,-3.1811,-3.2098,-3.172,-3.185,-3.1824,-3.1326,-3.1274,-3.1352,-3.1535,-3.2463,-3.36,-3.4933,-3.5913,-3.6519,-3.6636,-3.6649,-3.5881,-3.4291,-3.4576,-3.4366,-3.3693,-3.3581,-3.3557,-1.6111,-1.7343,-1.876,-2.0689,-2.144,-2.2078,-2.3599,-2.4203,-2.4771,-2.575,-2.679,-2.7668,-2.8368,-3.0462,-3.2346,-3.3027,-3.5354,-3.7237,-3.7686,-3.7695,-3.8095,-3.9152,-3.9721,-4.0555,-4.2073,-4.2006,0.0,-4.3455,-4.2765,-4.2703,-4.3595,-4.3685,-4.4043,-4.4771,-4.5451,-4.5937,-4.618,-4.6649,-4.6876,-4.6876,-4.6876,-4.6876,-4.6892,-4.6512,-4.6214,-4.6088,-4.5452,-4.5098,-4.4871,-4.355,-4.2817,-4.2494,-4.1355,-4.0755,-4.0524,-4.0524,-3.9879,-3.9162,-3.9235,-3.8634,-3.781,-3.7289,-3.6915,-3.6721,-3.6721,-3.685,-3.6978,-3.6978,-3.6978,-3.6978,-3.6978,-3.6978,-3.6978,-3.6978,-3.6978,-3.6978,-3.6978,-3.6683,-3.6332,-3.6107,-3.4982,-3.3923,-3.3629,-3.2907,-3.2423,-3.2633,-3.2385,-3.2071,-3.1798,-3.2346,-3.2476,-3.1901,-3.2019,-3.1914,-3.1339,-3.147,-3.1744,-3.2123,-3.3234,-3.4397,-3.5534,-3.6502,-3.6715,-3.5963,-3.6167,-3.5319,-3.3289,-3.3744,-3.362,-3.2949,-3.3109,-3.3192,-1.5767,-1.713,-1.8604,-1.9574,-2.0606,-2.1644,-2.2812,-2.3167,-2.3705,-2.5273,-2.6217,-2.689,-2.7523,-2.9758,-3.1862,-3.2882,-3.4915,-3.6843,-3.8365,-3.8537,-3.9226,-4.121,-4.1429,-4.2142,-4.401,-4.4066,0.0,-4.4601,0.0,-4.2966,-4.3638,-4.3788,-4.414,-4.4886,-4.5518,-4.6131,-4.688,-4.6929,-4.6876,-4.6876,-4.6876,-4.6876,-4.6892,-4.6512,-4.6175,-4.5832,-4.5395,-4.5024,-4.4601,-4.3923,-4.3217,-4.2586,-4.1878,-4.1186,-4.0586,-4.0539,-4.0106,-3.9538,-3.8767,-3.7749,-3.6707,-3.6484,-3.6563,-3.6707,-3.6721,-3.685,-3.6978,-3.6978,-3.6978,-3.6978,-3.6978,-3.6978,-3.6978,-3.6978,-3.6978,-3.6978,-3.6978,-3.6978,-3.681,-3.6234,-3.5788,-3.5259,-3.4692,-3.3896,-3.3198,-3.2843,-3.2777,-3.2568,-3.1967,-3.2359,-3.2489,-3.194,-3.2372,-3.2476,-3.1927,-3.2385,-3.2698,-3.2738,-3.3809,-3.4946,-3.6057,-3.6684,-3.6612,-3.5925,-3.6261,-3.59,-3.463,-3.439,-3.4362,-3.4288,-3.3358,-3.2891,-1.6569,-1.8009,-1.9452,-2.0044,-2.0895,-2.1762,-2.2356,-2.3098,-2.3794,-2.4327,-2.5021,-2.5773,-2.644,-2.8786,-3.1016,-3.2163,-3.4703,-3.7008,-3.8421,-3.9319,-4.0332,-4.1833,-4.3369,-4.4699,-4.5573,-4.6632,0.0,0.0,-4.566,-4.4941,-4.5942,-4.5535,-4.5549,-4.6284,-4.5995,-4.614,-4.6815,-4.6873,-4.6876,-4.6876,-4.6876,-4.6876,-4.6876,-4.6807,-4.6668,-4.6598,-4.5905,-4.5614,-4.5421,-4.413,-4.3479,-4.3202,-4.2048,-4.1494,-4.1263,-4.0724,-3.9879,-3.9017,-3.8782,-3.8263,-3.7519,-3.6864,-3.6786,-3.6929,-3.6707,-3.685,-3.6978,-3.6978,-3.6978,-3.6978,-3.6978,-3.6978,-3.6978,-3.6978,-3.6978,-3.6978,-3.6978,-3.6978,-3.6936,-3.6782,-3.6066,-3.5242,-3.4481,-3.4139,-3.3966,-3.3983,-3.3966,-3.36,-3.2607,-3.2594,-3.2633,-3.2489,-3.2607,-3.2633,-3.2489,-3.2607,-3.2881,-3.3326,-3.4437,-3.5378,-3.607,-3.6212,-3.5773,-3.4616,-3.4108,-3.3467,-3.2605,-3.282,-3.3163,-3.3557,-3.3281,-3.3192,-1.7129,-1.8398,-1.9588,-1.978,-2.0499,-2.135,-2.1818,-2.2895,-2.3943,-2.4498,-2.5067,-2.572,-2.6577,-2.8691,-3.0592,-3.1539,-3.4484,-3.7203,-3.8879,-4.01,-4.1552,-4.3333,-4.4938,-4.6135,-4.668,-4.7819,-4.8661,0.0,-4.7314,-4.657,-4.717,-4.6284,-4.6129,-4.6797,-4.6159,-4.6139,-4.6832,-4.6871,-4.6876,-4.6876,-4.6876,-4.6876,-4.6876,-4.6876,-4.6807,-4.6598,0.0,-4.5687,-4.5437,-4.4456,-4.3833,-4.3464,-4.2448,-4.1863,-4.1509,-4.0506,-3.9595,-3.8782,-3.8486,-3.8037,-3.7443,-3.6993,-3.6915,-3.6993,-3.685,-3.6915,-3.6978,-3.6978,-3.6978,-3.6978,-3.6978,-3.6978,-3.6978,-3.6978,-3.6978,-3.6978,-3.6978,-3.6978,-3.6978,-3.6978,-3.6543,-3.5839,-3.4982,-3.4821,-3.4767,-3.4428,-3.4397,-3.4162,-3.3522,-3.3234,-3.2986,-3.2725,-3.2685,-3.2685,-3.2685,-3.2934,-3.3443,-3.428,-3.5168,-3.6018,-3.6867,-3.6845,-3.5976,-3.4144,-3.4056,-3.3327,-3.1766,-3.2489,-3.2994,-3.3281,-3.3281,-3.3281,-1.7525,-1.8561,-1.9465,-1.9273,-1.9991,-2.0867,-2.1432,-2.259,-2.3876,-2.5018,-2.5466,-2.6046,-2.7101,-2.8898,-3.0481,-3.1197,-3.4262,-3.7362,-3.9543,-4.0933,-4.2597,-4.5008,-4.6063,-4.683,-4.7329,-4.8082,-4.8802,-4.9486,-4.8466,-4.7882,-4.809,-4.6989,-4.6545,-4.7098,-4.6438,-4.638,-4.6997,-4.6945,-4.6876,-4.6876,-4.6876,-4.6876,-4.6876,-4.6876,-4.6738,-4.6372,0.0,0.0,-4.5247,-4.4858,-4.4247,-4.3494,-4.2863,-4.2186,-4.1438,-4.0152,-3.9307,-3.8708,-3.8113,-3.7505,-3.6978,-3.6978,-3.6978,-3.6978,-3.6978,-3.6978,-3.6978,-3.6978,-3.6978,-3.6978,-3.6978,-3.6978,-3.6978,-3.6978,-3.6978,-3.6978,-3.6978,-3.6978,-3.6978,-3.6978,-3.6978,-3.6744,-3.5871,-3.571,-3.5386,-3.4564,-3.4397,-3.4397,-3.4397,-3.3979,-3.3496,-3.2973,-3.2921,-3.2921,-3.2921,-3.3404,-3.4123,-3.5116,-3.5691,-3.6502,-3.7612,-3.7573,-3.6442,-3.4144,-3.4944,-3.4222,-3.1766,-3.2787,-3.3281,-3.3281,-3.3281,-3.3281,-1.7472,-1.8668,-1.9833,-1.9684,-2.0536,-2.151,-2.1827,-2.215,-2.2808,-2.4198,-2.4567,-2.5092,-2.6488,-2.85,-3.038,-3.172,-3.4202,-3.7051,-4.018,-4.1589,-4.3096,-4.5061,-4.6447,-4.7278,-4.7397,-4.8117,0.0,0.0,0.0,-4.8925,-5.0291,-4.9625,-4.9001,-4.8557,-4.788,-4.7572,-4.7704,-4.7202,-4.6876,-4.6876,-4.6876,-4.6876,-4.6876,-4.6876,-4.6876,-4.6807,0.0,0.0,-4.5687,-4.5348,-4.4588,-4.3494,-4.2863,-4.2186,-4.1438,-4.0152,-3.9307,-3.8708,-3.8113,-3.7505,-3.6978,-3.6978,-3.6978,-3.6978,-3.6978,-3.6978,-3.6978,-3.6978,-3.6978,-3.6978,-3.6978,-3.6978,-3.6978,-3.6978,-3.6978,-3.6978,-3.6978,-3.6978,-3.6978,-3.6978,-3.6978,-3.6744,-3.5871,-3.571,-3.5386,-3.4564,-3.4397,-3.4397,-3.4397,-3.4319,-3.4214,-3.411,-3.411,-3.411,-3.411,-3.4201,-3.4345,-3.4541,-3.5103,-3.573,-3.6397,-3.589,-3.516,-3.4131,-3.4014,-3.3291,-3.1766,-3.2787,-3.3281,-3.3281,-3.3281,-3.3281,-1.8202,-1.9209,-2.0072,-2.0019,-2.0853,-2.1815,-2.2269,-2.2875,-2.3691,-2.4923,-2.5394,-2.6028,-2.7425,-2.8901,-3.0412,-3.204,-3.414,-3.6712,-3.9861,-4.1506,-4.3061,-4.4953,-4.6492,-4.7397,-4.7397,-4.8099,-4.8556,-4.8556,0.0,-4.8854,-4.9609,-4.9434,-4.8804,-4.7814,-4.788,-4.7754,-4.7388,-4.7082,-4.6876,-4.6876,-4.703,-4.703,-4.703,-4.7183,-4.7183,-4.7183,-4.6876,0.0,-4.6285,-4.5317,-4.4538,-4.3873,-4.2608,-4.1878,-4.1438,-4.0152,-3.9083,-3.8193,-3.762,-3.6821,-3.6023,-3.6023,-3.6473,-3.6978,-3.6978,-3.6978,-3.6978,-3.6978,-3.6978,-3.6978,-3.6978,-3.6978,-3.6978,-3.6978,-3.6978,-3.6978,-3.6978,-3.6978,-3.6978,-3.6978,-3.6978,-3.6836,-3.6138,-3.5884,-3.5467,-3.4825,-3.4577,-3.4397,-3.4397,-3.4397,-3.4397,-3.4397,-3.4397,-3.4397,-3.4397,-3.4397,-3.4528,-3.4842,-3.5142,-3.5349,-3.534,-3.5099,-3.4242,-3.2687,-3.322,-3.2814,-3.1575,-3.2787,-3.3281,-3.3281,-3.3281,-3.3281,-1.8711,-1.9463,-2.0051,-2.0283,-2.1005,-2.1909,-2.268,-2.3496,-2.4462,-2.5666,-2.6308,-2.7107,-2.8523,-2.9548,-3.0685,-3.2365,-3.4147,-3.6406,-3.9472,-4.1244,-4.2932,-4.4857,-4.6309,-4.7134,-4.7134,-4.7678,0.0,-4.8029,0.0,0.0,-4.8503,-4.8477,-4.8019,-4.7088,-4.7425,-4.7356,-4.6929,-4.6745,-4.6692,-4.6718,-4.6792,-4.6876,-4.6955,-4.701,-4.7028,-4.7028,-4.6873,0.0,0.0,-4.5126,-4.426,-4.3545,-4.1968,-4.1278,-4.0993,-3.9571,-3.8549,-3.7693,-3.6924,-3.5992,-3.5226,-3.5226,-3.5798,-3.6585,-3.6585,-3.6585,-3.6585,-3.6585,-3.6585,-3.6585,-3.6585,-3.6585,-3.6585,-3.6585,-3.6585,-3.6627,-3.6768,-3.6796,-3.6796,-3.6796,-3.6796,-3.6598,-3.6097,-3.5771,-3.5533,-3.513,-3.464,-3.4432,-3.4551,-3.4376,-3.4267,-3.4384,-3.4397,-3.4397,-3.4397,-3.4397,-3.4593,-3.5077,-3.492,-3.4722,-3.4526,-3.4372,-3.3338,-3.1482,-3.25,-3.246,-3.1224,-3.2414,-3.296,-3.2948,-3.296,-3.3017,-1.7977,-1.87,-1.9475,-2.0202,-2.0936,-2.1766,-2.2966,-2.2977,-2.3314,-2.523,-2.6179,-2.7098,-2.8656,-3.0078,-3.1436,-3.2891,-3.4244,-3.6241,-3.9448,-4.1273,-4.3009,-4.4857,-4.5835,-4.6277,-4.6277,-4.6347,-4.6382,-4.6382,0.0,0.0,-4.8451,-4.7974,-4.7899,-4.833,-4.7301,-4.6768,-4.6887,-4.6302,-4.6024,-4.6189,-4.5702,-4.5734,-4.6173,-4.5685,-4.5472,-4.557,0.0,0.0,0.0,-4.5142,-4.377,-4.1523,-4.087,-4.0247,-3.948,-3.7724,-3.7393,-3.7548,-3.5923,-3.5268,-3.5226,-3.5226,-3.531,-3.5395,-3.5395,-3.5395,-3.5395,-3.5395,-3.5395,-3.5395,-3.5395,-3.5395,-3.5395,-3.5395,-3.5395,-3.555,-3.6023,-3.615,-3.615,-3.615,-3.615,-3.5829,-3.4817,-3.5099,-3.5301,-3.4909,-3.4446,-3.4405,-3.5006,-3.4225,-3.3849,-3.4345,-3.4397,-3.4397,-3.4397,-3.4397,-3.4424,-3.4476,-3.3679,-3.3419,-3.3985,-3.3199,-3.2261,-3.1378,-3.2125,-3.1996,-3.068,-3.1533,-3.1892,-3.188,-3.1892,-3.2144,-1.8738,-1.9768,-2.0741,-2.1126,-2.183,-2.2673,-2.3734,-2.3876,-2.4281,-2.5942,-2.6904,-2.7823,-2.9135,-3.0308,-3.1732,-3.3608,-3.4384,-3.5732,-3.8548,-3.9954,-4.1438,-4.3522,-4.4454,-4.5251,0.0,0.0,-4.5343,0.0,0.0,0.0,-4.6432,-4.7124,-4.7387,-4.7246,-4.6965,-4.6625,-4.6267,-4.5765,-4.5567,-4.5604,-4.5487,-4.5551,-4.5749,-4.5615,-4.5379,-4.4983,0.0,0.0,0.0,-4.3441,-4.243,-4.115,-4.0563,-4.0008,-3.9388,-3.8752,-3.8198,-3.7605,-3.6187,-3.5178,-3.4548,-3.4169,-3.4056,-3.4183,-3.5001,-3.5226,-3.5226,-3.5226,-3.5226,-3.5226,-3.5226,-3.5226,-3.5226,-3.5226,-3.5226,-3.5296,-3.555,-3.5592,-3.5592,-3.5592,-3.5592,-3.5433,-3.4971,-3.4899,-3.4823,-3.467,-3.4348,-3.4193,-3.4499,-3.4239,-3.3853,-3.3213,-3.3926,-3.4397,-3.4397,-3.4397,-3.4397,-3.4397,-3.405,-3.3547,-3.2822,-3.2381,-3.1579,-3.0308,-3.0996,-3.1064,-3.06,-3.1418,-3.1766,-3.1754,-3.1766,-3.1869,-1.9515,-2.0664,-2.1699,-2.1931,-2.2759,-2.3782,-2.4653,-2.5001,-2.5473,-2.6844,-2.7876,-2.8754,-2.9626,-3.0696,-3.2118,-3.4088,-3.4561,-3.5555,-3.7972,-3.9274,-4.066,-4.2388,-4.3535,-4.4653,-4.5813,-4.5414,-4.4764,0.0,0.0,0.0,0.0,-4.5765,-4.6337,-4.6343,-4.6556,-4.6312,-4.557,-4.5241,-4.5019,-4.4949,-4.4877,-4.4887,-4.4808,-4.4797,-4.4423,-4.3727,0.0,0.0,0.0,-4.215,-4.1491,-4.075,-4.0258,-3.9909,-3.9554,-3.9128,-3.846,-3.759,-3.6043,-3.4924,-3.414,-3.3522,-3.3326,-3.348,-3.4351,-3.4618,-3.4618,-3.4618,-3.4618,-3.4618,-3.4618,-3.4618,-3.4618,-3.4618,-3.4618,-3.466,-3.4843,-3.4885,-3.4885,-3.4885,-3.4885,-3.4829,-3.4646,-3.4538,-3.4441,-3.4441,-3.4167,-3.4082,-3.4445,-3.438,-3.393,-3.3206,-3.3983,-3.4319,-3.354,-3.3444,-3.352,-3.37,-3.3433,-3.2735,-3.1524,-3.1169,-3.0464,-2.9301,-2.9833,-3.0199,-3.0199,-3.0853,-3.1224,-3.1224,-3.1318,-3.1398,-2.002,-2.0971,-2.1909,-2.228,-2.3503,-2.4804,-2.568,-2.6109,-2.6647,-2.7909,-2.8993,-2.9804,-3.0116,-3.1339,-3.2774,-3.4164,-3.4835,-3.5936,-3.8029,-3.9775,-4.1115,-4.1846,-4.3306,-4.4579,-4.5235,-4.5211,0.0,0.0,0.0,0.0,0.0,-4.3921,-4.4641,-4.6137,-4.6207,-4.5718,-4.4725,-4.4725,-4.4473,-4.3991,-4.3629,-4.3344,-4.3084,-4.2706,-4.2137,0.0,0.0,0.0,0.0,-4.1894,-4.1371,-4.0212,-3.9875,-3.9776,-3.9565,-3.7781,-3.7375,-3.7445,-3.5081,-3.4239,-3.414,-3.3522,-3.3326,-3.3326,-3.334,-3.334,-3.334,-3.334,-3.334,-3.334,-3.334,-3.334,-3.334,-3.334,-3.334,-3.3508,-3.4112,-3.4181,-3.4181,-3.4181,-3.4181,-3.4056,-3.3438,-3.3845,-3.4181,-3.4181,-3.3848,-3.4071,-3.5209,-3.453,-3.4224,-3.5021,-3.5072,-3.4066,-3.1455,-3.1235,-3.1467,-3.1952,-3.108,-3.0441,-3.026,-2.929,-2.885,-2.885,-2.9035,-2.9139,-2.9139,-2.9622,-2.9908,-2.9908,-3.0148,-3.0514,-2.1963,-2.3016,-2.3911,-2.4511,-2.5195,-2.5839,-2.6234,-2.6766,-2.7451,-2.8288,-2.9309,-3.0231,-3.0907,-3.1741,-3.3038,-3.5311,-3.5883,-3.6881,-3.9258,-4.0431,-4.1533,-4.2816,-4.4526,-4.5281,0.0,0.0,0.0,0.0,0.0,0.0,0.0,-4.3623,-4.4115,-4.4606,-4.4335,-4.4112,-4.3892,-4.3613,-4.3431,-4.3395,-4.3227,-4.3174,-4.3096,-4.2571,0.0,0.0,0.0,0.0,0.0,-4.0853,-4.0626,-4.0257,-4.0641,-3.9908,-3.8549,-3.7958,-3.7252,-3.636,-3.4709,-3.4167,-3.414,-3.3522,-3.3326,-3.3326,-3.3326,-3.3396,-3.3536,-3.3536,-3.3396,-3.3326,-3.3326,-3.3326,-3.3326,-3.3326,-3.3326,-3.3368,-3.3564,-3.3607,-3.3607,-3.3607,-3.3607,-3.355,-3.3354,-3.348,-3.3607,-3.3607,-3.3598,-3.3781,-3.4093,-3.381,-3.3209,-3.2423,-3.213,-3.238,-3.3341,-3.2924,-3.2757,-3.2945,-3.2227,-3.1524,-3.1015,-3.0668,-3.0306,-2.976,-2.9691,-2.9691,-2.9852,-2.9874,-2.9977,-3.0136,-3.0125,-3.0308,-2.3927,-2.4828,-2.5598,-2.5859,-2.6521,-2.708,-2.708,-2.7743,-2.8528,-2.9193,-3.0196,-3.1166,-3.1649,-3.2384,-3.358,-3.5667,-3.6273,-3.7326,-3.9572,-4.0434,-4.1336,-4.281,-4.4403,0.0,0.0,0.0,0.0,0.0,0.0,0.0,0.0,-4.278,-4.3026,-4.3026,-4.3353,-4.3469,-4.3321,-4.2929,-4.2612,-4.2515,-4.2413,-4.237,-4.231,-4.2045,0.0,0.0,0.0,0.0,0.0,-4.0084,-4.0238,-4.0513,-4.1074,-4.0245,-3.8662,-3.8446,-3.7408,-3.5798,-3.4652,-3.4167,-3.414,-3.3522,-3.3326,-3.3326,-3.3396,-3.3466,-3.3466,-3.3466,-3.3396,-3.3326,-3.3326,-3.3326,-3.3326,-3.3326,-3.3326,-3.3326,-3.3326,-3.3326,-3.3326,-3.3326,-3.3326,-3.3326,-3.3326,-3.3326,-3.3326,-3.3326,-3.3435,-3.354,-3.3761,-3.3676,-3.3221,-3.2175,-3.1863,-3.2251,-3.3407,-3.2487,-3.181,-3.1673,-3.1517,-3.1193,-3.0668,-3.0487,-3.0216,-2.976,-2.9588,-2.9588,-2.9669,-2.968,-2.9874,-3.0045,-3.0125,-3.0216,0.0,-2.6407,-2.6864,-2.6572,-2.748,-2.8372,-2.8199,-2.8919,0.0,-3.0491,-3.1516,-3.2352,-3.2457,-3.3294,-3.4329,-3.554,-3.6384,-3.753,-3.927,-4.0093,-4.0955,0.0,-4.3404,0.0,-4.2053,0.0,0.0,0.0,0.0,0.0,0.0,-4.1604,-4.1604,-4.1604,-4.2991,-4.3493,-4.2925,-4.2501,-4.2044,-4.1527,-4.1312,-4.1132,-4.1033,-4.1205,0.0,0.0,0.0,0.0,0.0,-3.9607,-4.0181,-4.0942,-4.1209,-4.0626,-3.9517,-3.8953,-3.7476,-3.5611,-3.4483,-3.407,-3.3944,-3.3368,-3.3185,-3.3199,-3.3465,-3.3423,-3.3326,-3.3326,-3.3326,-3.3326,-3.3326,-3.3326,-3.3326,-3.3326,-3.3326,-3.3326,-3.3326,-3.3326,-3.3326,-3.3326,-3.3326,-3.3326,-3.3326,-3.3326,-3.3326,-3.3326,-3.3326,-3.3522,-3.4098,-3.4096,-3.3854,-3.3486,-3.3399,-3.2934,-3.1906,-3.0323,-2.9242,-2.8958,-2.9523,-2.9681,-2.9476,-2.9201,-2.9039,-2.9073,-2.8921,-2.885,-2.885,-2.9301,-2.968,-2.9886,-3.0136,-3.0216,-2.8587,0.0,-2.7565,-2.8074,-2.845,-2.8853,0.0,-2.9792,-3.0442,-3.1696,-3.2255,-3.2859,-3.3978,-3.4437,-3.5296,-3.7394,-3.8376,-3.9349,-4.0584,-4.177,-4.2995,-4.4295,-4.4375,-4.3953,0.0,0.0,0.0,0.0,0.0,0.0,0.0,-4.1604,-4.1604,-4.1604,-4.1955,-4.2137,-4.215,-4.175,-4.1572,-4.1527,-4.1214,-4.1033,-4.1016,-4.0597,0.0,0.0,0.0,0.0,-4.0133,-4.0299,-4.0684,-4.1173,-4.1321,-3.9817,-3.7514,-3.7109,-3.5424,-3.32,-3.3022,-3.2769,-3.2425,-3.2136,-3.2093,-3.2178,-3.2537,-3.2946,-3.3326,-3.3466,-3.3396,-3.3326,-3.3326,-3.3326,-3.3326,-3.3326,-3.3326,-3.3326,-3.3326,-3.3326,-3.3326,-3.3326,-3.3326,-3.3326,-3.3326,-3.3326,-3.3326,-3.3326,-3.3326,-3.3368,-3.3508,-3.2866,-3.2326,-3.224,-3.158,-3.0663,-2.9475,-2.9828,-3.011,-3.0061,-2.9346,-2.8969,-2.8881,-2.8794,-2.8888,-2.9094,-2.95,-2.9508,-2.9301,-2.9852,-3.0034,-3.0136,-3.0216,-3.0216,-2.9677,-2.972,-2.9811,-3.0083,-3.0148,-3.0365,-3.1084,-3.0921,-3.1008,-3.2147,-3.2759,-3.3418,-3.4579,-3.5034,-3.5976,-3.8224,-3.8889,-3.9617,-4.1006,-4.2347,-4.3433,-4.4059,-4.4114,-4.3732,0.0,0.0,0.0,0.0,0.0,0.0,0.0,-4.1604,-4.1604,-4.1604,-4.1604,-4.1663,-4.1771,-4.118,-4.0917,-4.0995,-4.0486,-4.0367,-4.0566,-4.0325,0.0,0.0,0.0,0.0,-3.9993,-4.0137,-4.05,-4.1,-4.1095,-3.9479,-3.7084,-3.6736,-3.4863,-3.2384,-3.2288,-3.2307,-3.2345,-3.2264,-3.2478,-3.2667,-3.2588,-3.2774,-3.3099,-3.3381,-3.3185,-3.296,-3.3255,-3.3326,-3.3326,-3.3326,-3.3326,-3.3326,-3.3326,-3.3326,-3.3326,-3.3326,-3.3326,-3.3326,-3.3326,-3.3326,-3.3326,-3.3326,-3.3326,-3.3171,-3.2945,-3.2431,-3.1823,-3.1307,-3.0784,-3.0101,-2.9197,-2.9499,-2.96,-2.9165,-2.8819,-2.87,-2.87,-2.8626,-2.8589,-2.8598,-2.888,-2.8937,-2.8824,-2.9308,-2.9511,-2.9523,-2.9852,-3.0057,-3.0102,-3.1447,-3.2599,-3.1798,-3.1731,-3.2045,-3.2669,-3.2109,-3.1704,-3.2562,-3.3314,-3.4081,-3.4924,-3.5743,-3.6863,-3.8575,-3.8748,-3.9314,-4.1162,-4.2286,-4.2939,-4.2995,-4.3346,0.0,0.0,0.0,0.0,0.0,0.0,0.0,0.0,-4.1604,-4.1604,-4.1604,-4.1604,-4.1604,-4.1604,-4.0849,-4.0449,-4.04,-3.9696,-3.9587,-3.9962,-4.0144,-4.0144,0.0,0.0,0.0,-3.9501,-3.9625,-4.0098,-4.0668,-4.0498,-3.9106,-3.7165,-3.6656,-3.4699,-3.2319,-3.204,-3.2305,-3.2768,-3.2835,-3.3207,-3.3496,-3.2834,-3.2539,-3.2514,-3.3,-3.2734,-3.237,-3.2904,-3.31,-3.3114,-3.3114,-3.317,-3.3171,-3.3171,-3.3255,-3.3326,-3.3326,-3.3326,-3.3326,-3.3326,-3.3326,-3.3255,-3.3171,-3.3171,-3.2945,-3.2345,-3.2187,-3.1663,-3.0683,-3.0456,-3.0177,-2.9624,-2.9131,-2.8506,-2.7626,-2.823,-2.8556,-2.8471,-2.8316,-2.82,-2.7939,-2.8007,-2.8051,-2.8051,-2.8532,-2.8734,-2.8746,-2.9353,-2.9693,-3.1041,-3.3185,-3.4381,-3.1765,-3.1657,-3.243,-3.32,-3.3004,-3.2924,-3.3943,-3.4562,-3.5192,-3.6229,-3.7599,-3.8674,-3.899,-3.9045,-3.9833,0.0,0.0,-4.2069,-4.3348,0.0,0.0,0.0,0.0,0.0,0.0,0.0,0.0,0.0,0.0,-4.1604,-4.1604,-4.1604,-4.1604,-4.1604,-4.1163,-4.0724,-4.04,-4.002,-3.9692,-3.9437,-3.9437,-3.9437,0.0,0.0,-3.9495,-3.9501,-3.9625,-3.9848,-3.995,-3.8987,-3.7735,-3.6292,-3.4905,-3.3378,-3.2073,-3.2018,-3.2155,-3.2321,-3.2385,-3.2457,-3.2464,-3.2233,-3.1768,-3.1468,-3.1966,-3.1999,-3.1811,-3.191,-3.2004,-3.2136,-3.2136,-3.2401,-3.2715,-3.2715,-3.3002,-3.3326,-3.3326,-3.3326,-3.3326,-3.3326,-3.3326,-3.31,-3.2646,-3.2561,-3.2345,-3.1736,-3.1057,-3.0545,-3.0393,-2.9729,-2.9131,-2.8749,-2.8235,-2.7846,-2.7545,-2.7813,-2.7871,-2.7461,-2.7622,-2.768,-2.768,-2.8098,-2.8313,-2.8313,-2.8619,-2.8729,-2.8729,-2.8809,-2.8996,-3.0192,-3.189,-3.3326,-3.2886,-3.4012,-3.5531,-3.6689,-3.5708,-3.4977,-3.6359,-3.6452,-3.6587,-3.7507,-3.8197,-3.8715,-3.9054,-3.9491,-4.0335,-4.1822,-4.1619,-4.1857,0.0,0.0,0.0,0.0,0.0,0.0,0.0,0.0,0.0,0.0,0.0,-4.1604,-4.1604,-4.1604,-4.1604,-4.1604,-4.1408,-4.1007,-4.04,-4.007,-3.9694,-3.9272,-3.9272,-3.9272,-3.9325,0.0,-3.9484,-3.9642,-3.9729,-3.9884,-3.9919,-3.867,-3.739,-3.5974,-3.3519,-3.2022,-3.1264,-3.1263,-3.1486,-3.185,-3.185,-3.2095,-3.2327,-3.1774,-3.1409,-3.1166,-3.0982,-3.1147,-3.1425,-3.1687,-3.1838,-3.1917,-3.1917,-3.2065,-3.2198,-3.2198,-3.2373,-3.2518,-3.2518,-3.2518,-3.2617,-3.2887,-3.2944,-3.2835,-3.2434,-3.2331,-3.1869,-3.0983,-3.0456,-3.0012,-2.9729,-2.9353,-2.9052,-2.8828,-2.8645,-2.8155,-2.7208,-2.7383,-2.7394,-2.7231,-2.7284,-2.7409,-2.7409,-2.7638,-2.7752,-2.7752,-2.8014,-2.814,-2.8151,-2.8414,-2.8589,-2.9474,-3.0692,-3.2183,-3.3892,-3.5463,-3.7149,-3.9261,-3.785,-3.6612,-3.8464,-3.8477,-3.8285,-3.8726,-3.8616,-3.8752,-3.962,-3.9956,-4.0335,-4.1082,-4.1114,-4.1612,0.0,0.0,0.0,0.0,0.0,0.0,0.0,0.0,0.0,0.0,0.0,-4.1411,-4.1604,-4.1429,-4.1429,-4.1604,-4.1515,-4.11,-4.04,-4.0154,-3.9781,-3.9272,-3.9272,-3.9272,-3.9325,-3.9395,-3.9537,-3.9677,-3.9746,-3.9783,-3.9649,-3.8266,-3.6714,-3.4994,-3.2455,-3.1146,-3.0717,-3.0862,-3.1166,-3.154,-3.17,-3.2092,-3.2333,-3.1555,-3.1368,-3.1176,-3.0405,-3.0578,-3.0988,-3.1411,-3.1525,-3.1589,-3.154,-3.1575,-3.1689,-3.1624,-3.1752,-3.1786,-3.1852,-3.1838,-3.1994,-3.2397,-3.2415,-3.2368,-3.2136,-3.1823,-3.1235,-3.0144,-2.9694,-2.9377,-2.8922,-2.8856,-2.8839,-2.8803,-2.8895,-2.8327,-2.7126,-2.7464,-2.7545,-2.7394,-2.7394,-2.7313,-2.7231,-2.7231,-2.7231,-2.7231,-2.7372,-2.7481,-2.7481,-2.7952,-2.8191,-3.0033,-3.1315,-3.235,-3.3923,-3.3826,-3.4379,-3.8351,-3.7761,-3.7032,-3.9409,-4.0344,-4.0495,-3.9758,-3.9457,-3.9851,-4.1443,-4.0308,-3.9444,-4.0193,0.0,0.0,0.0,0.0,0.0,0.0,0.0,0.0,0.0,0.0,0.0,0.0,0.0,0.0,-4.1587,-4.0937,-4.0902,-4.1604,-4.1226,-4.0819,-4.04,-4.0351,-3.9986,-3.9272,-3.9272,-3.9272,-3.9272,-3.9325,-3.9379,-3.9501,-3.9501,-3.9309,-3.8707,-3.695,-3.4627,-3.2216,-3.1697,-3.1263,-3.1058,-3.1661,-3.1714,-3.1613,-3.2251,-3.2483,-3.2396,-3.1666,-3.1464,-3.1333,-3.0756,-3.0611,-3.0594,-3.0441,-3.0577,-3.0652,-3.0456,-3.0731,-3.1048,-3.092,-3.1194,-3.1551,-3.1707,-3.1707,-3.1786,-3.1895,-3.1974,-3.1792,-3.1302,-3.0596,-2.9891,-2.9243,-2.8502,-2.8064,-2.8332,-2.8215,-2.8035,-2.7995,-2.8191,-2.8007,-2.7522,-2.8407,-2.8669,-2.7881,-2.7893,-2.7638,-2.7231,-2.7231,-2.7231,-2.7231,-2.7183,-2.7206,-2.7206,-2.7241,-2.7421,-2.8764,-3.0585,-3.2444,-3.4088,-3.4248,-3.5059,-3.9085,-3.9429,-3.9595,-4.2106,-4.1913,-4.1007,-4.0065,-4.0268,-4.0533,-4.0371,-3.9762,-3.949,-4.0129,0.0,0.0,0.0,0.0,0.0,0.0,0.0,0.0,0.0,0.0,0.0,0.0,0.0,0.0,-4.031,-4.0052,-4.0076,-4.0358,-4.019,-3.994,-3.9524,-3.9893,-3.9816,-3.9272,-3.9272,-3.9272,-3.9272,-3.9272,-3.9395,-3.9451,-3.9002,-3.8755,-3.8489,-3.6258,-3.4045,-3.1996,-3.1868,-3.1452,-3.1058,-3.1309,-3.1158,-3.0974,-3.1235,-3.1308,-3.1264,-3.1003,-3.093,-3.0872,-3.064,-3.0568,-3.0568,-3.0507,-3.0507,-3.0568,-3.0507,-3.0513,-3.0563,-3.0502,-3.0312,-3.0149,-3.0213,-2.9928,-2.9845,-3.0179,-3.0248,-3.0105,-2.987,-2.9421,-2.8996,-2.8375,-2.7889,-2.7681,-2.7803,-2.774,-2.7733,-2.7957,-2.8161,-2.8294,-2.8462,-2.8486,-2.8419,-2.8111,-2.8191,-2.8042,-2.7638,-2.7869,-2.7708,-2.7231,-2.7476,-2.7476,-2.7231,-2.7231,-2.7252,-2.8411,-3.0334,-3.2561,-3.4511,-3.5196,-3.6382,-4.0172,-4.0554,-4.095,-4.3958,-4.3159,-4.1761,-4.1336,-4.1047,-4.0696,0.0,-3.9695,-3.9589,0.0,0.0,0.0,0.0,0.0,0.0,0.0,0.0,0.0,0.0,0.0,0.0,0.0,0.0,0.0,0.0,-3.9363,-3.9368,-3.9615,-3.9476,-3.921,-3.879,-3.9095,-3.9194,-3.9154,-3.8781,-3.8709,-3.8924,-3.8692,-3.8645,-3.8716,-3.8201,-3.775,-3.7197,-3.511,-3.3333,-3.1996,-3.1868,-3.1567,-3.1146,-3.1146,-3.1029,-3.0851,-3.0851,-3.0807,-3.0747,-3.0747,-3.0687,-3.0568,-3.0568,-3.0568,-3.0568,-3.0568,-3.0568,-3.0568,-3.0507,-3.0387,-3.0266,-3.0266,-2.9898,-2.9574,-2.9574,-2.9296,-2.9091,-2.9206,-2.9274,-2.9226,-2.8884,-2.8521,-2.8184,-2.7797,-2.7366,-2.7224,-2.7323,-2.7422,-2.7593,-2.7797,-2.7998,-2.8233,-2.8602,-2.8397,-2.8239,-2.8407,-2.8578,-2.851,-2.8042,-2.8191,-2.803,-2.7394,-2.7557,-2.7476,-2.7231,-2.7231,-2.7231,-2.9342,-3.0825,-3.2729,-3.5251,-3.6508,-3.8016,-4.1402,-4.0818,-4.0642,-4.4574,-4.402,-4.3061,-4.3845,-4.1814,0.0,-4.106,-4.0359,0.0,0.0,0.0,0.0,0.0,0.0,0.0,0.0,0.0,0.0,0.0,0.0,0.0,0.0,0.0,0.0,0.0,-3.889,-3.8854,-3.958,-3.9193,-3.8756,-3.8277,-3.7976,-3.8145,-3.8754,-3.7586,-3.75,-3.8162,-3.7417,-3.7102,-3.7102,-3.7102,-3.6198,-3.4686,-3.3338,-3.2492,-3.1981,-3.161,-3.148,-3.148,-3.148,-3.148,-3.148,-3.148,-3.1263,-3.1029,-3.1029,-3.0807,-3.0568,-3.0568,-3.0568,-3.0568,-3.0568,-3.0568,-3.0568,-3.0326,-3.0312,-3.0266,-3.0111,-3.0111,-3.0111,-3.0111,-3.0219,-3.0068,-2.9435,-2.9435,-2.9359,-2.862,-2.792,-2.7484,-2.7484,-2.6905,-2.6609,-2.6959,-2.7262,-2.7508,-2.7508,-2.752,-2.752,-2.752,-2.8024,-2.8476,-2.8767,-2.8961,-2.8816,-2.8179,-2.8042,-2.7893,-2.7881,-2.7394,-2.7219,-2.7219,-2.7219,-2.7231,-2.9458,-3.1248,-3.3339,-3.471,-3.701,-3.9364,-4.0991,-4.1748,-4.2607,-4.4341,-4.4705,-4.423,-4.2676,-4.2164,0.0,-4.053,0.0,0.0,0.0,0.0,0.0,0.0,0.0,0.0,0.0,0.0,0.0,0.0,0.0,0.0,0.0,0.0,0.0,0.0,-3.7909,-3.7984,-3.8198,-3.8067,-3.7952,-3.78,-3.7032,-3.6983,-3.7569,-3.6705,-3.6738,-3.74,-3.6655,-3.6622,-3.7018,-3.622,-3.5175,-3.3946,-3.3219,-3.2656,-3.2287,-3.2176,-3.2007,-3.1868,-3.1868,-3.1682,-3.148,-3.119,-3.1087,-3.097,-3.0807,-3.0687,-3.0568,-3.0568,-3.0568,-3.0568,-3.0568,-3.0568,-3.0568,-3.0507,-3.0387,-3.0266,-3.0266,-2.9884,-2.9512,-2.9512,-2.9282,-2.8953,-2.8661,-2.8675,-2.8468,-2.767,-2.7417,-2.7162,-2.685,-2.6589,-2.6527,-2.6621,-2.6714,-2.6893,-2.7148,-2.7112,-2.7273,-2.7656,-2.7841,-2.8087,-2.8451,-2.8856,-2.8895,-2.8431,-2.8669,-2.8318,-2.7451,-2.7566,-2.7325,-2.6828,-2.6588,-2.654,-3.093,-3.2872,-3.5115,-3.6348,-3.841,-4.0507,-4.1937,-4.2981,-4.3708,-4.3926,-4.4013,-4.3585,-4.1997,-4.1777,0.0,-4.0309,0.0,0.0,0.0,0.0,0.0,0.0,0.0,0.0,0.0,0.0,0.0,0.0,0.0,0.0,0.0,0.0,0.0,0.0,-3.7613,-3.7577,-3.7577,-3.7577,-3.7503,-3.7337,-3.6741,-3.6517,-3.658,-3.5954,-3.6073,-3.6787,-3.599,-3.571,-3.5794,-3.5017,-3.4352,-3.3642,-3.2996,-3.2602,-3.2398,-3.2398,-3.2287,-3.2135,-3.2135,-3.2007,-3.1823,-3.1495,-3.1321,-3.1146,-3.0851,-3.0687,-3.0568,-3.0568,-3.0568,-3.0568,-3.0568,-3.0568,-3.0568,-3.0568,-3.0507,-3.0326,-3.0068,-2.9685,-2.931,-2.898,-2.8698,-2.8376,-2.7947,-2.796,-2.7762,-2.704,-2.6905,-2.685,-2.6521,-2.6533,-2.6533,-2.6533,-2.6533,-2.659,-2.6801,-2.6826,-2.6976,-2.7229,-2.7394,-2.7581,-2.7755,-2.836,-2.8568,-2.8195,-2.8415,-2.8001,-2.7038,-2.7125,-2.6823,-2.614,-2.5983,-2.6075,-3.3101,-3.5055,-3.7304,-3.9058,-4.015,-4.1374,-4.3544,-4.4007,-4.3844,-4.3401,-4.2593,-4.1928,-4.1761,-4.1075,-4.0471,0.0,0.0,0.0,0.0,0.0,0.0,0.0,0.0,0.0,0.0,0.0,0.0,0.0,0.0,0.0,0.0,0.0,0.0,0.0,-3.7542,-3.7362,-3.7362,-3.7362,-3.7161,0.0,-3.6759,-3.6435,-3.5752,-3.5295,-3.5465,-3.6178,-3.5402,-3.4738,-3.408,-3.3761,-3.3646,-3.3626,-3.2703,-3.2336,-3.2398,-3.2398,-3.2398,-3.2398,-3.2398,-3.2398,-3.2342,-3.2094,-3.1796,-3.1437,-3.1087,-3.0792,-3.0568,-3.0568,-3.0568,-3.0568,-3.0568,-3.0568,-3.0568,-3.0568,-3.0568,-3.0447,-2.9808,-2.9623,-2.9373,-2.8546,-2.8454,-2.8247,-2.7417,-2.7417,-2.7351,-2.6658,-2.6521,-2.6533,-2.6533,-2.6533,-2.6533,-2.6533,-2.6533,-2.6533,-2.6533,-2.6533,-2.6533,-2.6533,-2.6801,-2.6946,-2.6946,-2.7651,-2.7963,-2.7755,-2.7594,-2.7261,-2.6653,-2.6411,-2.6053,-2.547,-2.5635,-2.567,-3.3282,-3.4689,-3.6469,-3.8225,-3.9743,-4.1149,-4.2479,-4.2144,-4.1892,-4.3125,-4.2879,-4.235,-4.1996,-4.1647,-4.1195,0.0,0.0,0.0,0.0,0.0,0.0,0.0,0.0,0.0,0.0,0.0,0.0,0.0,0.0,0.0,0.0,0.0,0.0,-3.6125,-3.5858,-3.5721,-3.5721,-3.5721,-3.5686,0.0,-3.5819,-3.5793,-3.5475,-3.4985,-3.4756,-3.4672,-3.5107,-3.5161,-3.4931,-3.3535,-3.3317,-3.3681,-3.2173,-3.1921,-3.2398,-3.2398,-3.2398,-3.2398,-3.2398,-3.2398,-3.2342,-3.2094,-3.1796,-3.1437,-3.1087,-3.0792,-3.0568,-3.0568,-3.0568,-3.0568,-3.0568,-3.0568,-3.0568,-3.0568,-3.0568,-3.0568,-3.0447,-2.9993,-2.956,-2.9373,-2.8903,-2.8441,-2.8078,-2.8091,-2.7894,-2.7162,-2.6714,-2.6533,-2.6533,-2.6533,-2.6533,-2.6533,-2.6533,-2.6533,-2.6533,-2.6533,-2.6533,-2.6533,-2.6578,-2.664,-2.664,-2.7294,-2.7594,-2.7607,-2.752,-2.7311,-2.6894,-2.6781,-2.6459,-2.6103,-2.5534,-2.5378,-3.3699,-3.4841,-3.6207,-3.8113,-3.9622,-4.0602,-4.0397,-3.9258,-3.8774,-4.0529,-4.0947,-4.0808,-4.0242,-4.0042,0.0,0.0,0.0,0.0,0.0,0.0,0.0,0.0,0.0,0.0,0.0,0.0,0.0,0.0,0.0,0.0,0.0,-3.6072,-3.5921,-3.5747,-3.5504,-3.5305,-3.5204,-3.5204,-3.5204,-3.5221,-3.5242,-3.5084,-3.4691,-3.4994,-3.4844,-3.4381,-3.511,-3.5182,-3.4767,-3.4019,-3.3942,-3.4119,-3.242,-3.2008,-3.2235,-3.1674,-3.1443,-3.149,-3.1797,-3.1905,-3.1912,-3.1987,-3.1868,-3.1682,-3.1321,-3.1146,-3.097,-3.0866,-3.0807,-3.0747,-3.0628,-3.0568,-3.0568,-3.0568,-3.0568,-3.0507,-3.019,-2.987,-2.9421,-2.8712,-2.8247,-2.7934,-2.7497,-2.7443,-2.731,-2.6905,-2.6658,-2.6533,-2.6533,-2.6533,-2.6533,-2.6533,-2.6533,-2.6533,-2.6533,-2.6533,-2.6533,-2.6533,-2.6533,-2.6533,-2.6533,-2.6876,-2.7033,-2.7033,-2.7033,-2.6825,-2.6328,-2.6383,-2.6082,-2.5432,-2.5288,-2.5222,-3.3502,-3.4783,-3.622,-3.835,-3.9464,-3.9721,-3.8395,-3.698,-3.628,-3.7481,-3.8338,-3.8711,-3.8078,0.0,0.0,0.0,0.0,0.0,0.0,0.0,0.0,0.0,0.0,0.0,0.0,0.0,0.0,0.0,0.0,0.0,-3.5975,-3.5816,-3.5622,-3.5502,-3.5299,-3.5076,-3.4811,-3.4811,-3.4811,-3.4811,-3.4606,-3.4347,-3.4019,-3.4831,-3.4962,-3.4523,-3.5093,-3.5032,-3.4532,-3.4532,-3.4624,-3.4544,-3.2734,-3.2092,-3.2073,-3.0866,-3.0428,-3.0505,-3.1028,-3.1228,-3.1282,-3.1753,-3.1886,-3.1788,-3.1637,-3.1495,-3.1364,-3.1087,-3.097,-3.0851,-3.0628,-3.0568,-3.0568,-3.0568,-3.0568,-3.0447,-2.987,-2.9685,-2.9233,-2.8065,-2.7736,-2.7484,-2.6782,-2.6658,-2.6658,-2.6521,-2.6533,-2.6533,-2.6533,-2.6533,-2.6533,-2.6533,-2.6533,-2.6533,-2.6533,-2.6533,-2.6533,-2.6533,-2.6533,-2.6533,-2.6533,-2.6533,-2.6533,-2.6533,-2.6533,-2.6245,-2.5746,-2.5898,-2.5618,-2.4849,-2.5253,-2.5182,-3.1132,-3.3419,-3.6242,-3.8575,-3.8742,-3.8276,-3.8059,-3.7874,-3.7379,-3.6119,-3.6798,-3.7611,-3.7506,0.0,0.0,0.0,0.0,0.0,0.0,0.0,0.0,0.0,0.0,0.0,0.0,0.0,0.0,0.0,0.0,0.0,-3.4305,-3.4137,-3.3943,-3.3818,-3.3623,-3.3422,-3.3219,-3.3205,-3.3205,-3.3205,-3.3336,-3.3709,-3.4241,-3.3867,-3.3998,-3.4489,-3.459,-3.4918,-3.5329,-3.4351,-3.427,-3.4558,-3.2239,-3.1681,-3.2073,-3.0866,-3.0428,-3.0428,-3.052,-3.0551,-3.0658,-3.1251,-3.132,-3.1238,-3.1758,-3.1509,-3.1087,-3.1029,-3.0851,-3.0628,-3.0628,-3.0568,-3.0568,-3.0568,-3.0568,-3.0568,-3.0507,-3.0007,-2.9546,-2.9359,-2.8826,-2.8182,-2.7484,-2.7351,-2.7162,-2.6589,-2.6533,-2.6533,-2.6533,-2.6533,-2.6533,-2.6533,-2.6533,-2.6533,-2.6533,-2.6533,-2.6533,-2.6533,-2.6533,-2.6533,-2.6533,-2.6533,-2.6533,-2.6533,-2.6533,-2.6452,-2.6383,-2.6396,-2.6396,-2.6245,-2.5968,-2.5618,-3.042,-3.2712,-3.5494,-3.837,-3.8562,-3.7803,-3.6824,-3.6562,-3.6338,-3.5643,-3.5437,-3.5438,0.0,0.0,0.0,0.0,0.0,0.0,0.0,0.0,0.0,0.0,0.0,0.0,0.0,0.0,0.0,0.0,0.0,-3.3524,-3.3928,-3.3471,-3.3303,-3.3615,-3.3019,-3.281,-3.3068,-3.2979,-3.282,-3.2657,-3.2773,-3.2806,-3.2786,-3.2535,-3.2944,-3.388,-3.388,-3.4303,-3.4962,-3.4404,-3.4213,-3.4074,-3.2319,-3.1406,-3.0921,-2.972,-2.9289,-2.935,-2.9735,-2.9858,-2.9966,-3.0628,-3.0753,-3.0708,-3.0999,-3.0788,-3.0443,-3.0387,-3.0374,-3.0324,-3.0265,-3.0411,-3.0568,-3.0568,-3.0387,-3.0129,-3.0129,-2.987,-2.9359,-2.8583,-2.7868,-2.7284,-2.6973,-2.6905,-2.685,-2.6521,-2.6533,-2.6533,-2.6533,-2.6533,-2.6533,-2.6533,-2.6533,-2.6533,-2.6533,-2.6533,-2.6533,-2.6533,-2.6533,-2.6533,-2.6533,-2.6533,-2.6533,-2.6533,-2.6533,-2.6533,-2.6533,-2.6533,-2.6396,-2.6176,-2.6188,-2.6037,-2.9562,-3.1572,-3.4081,-3.7797,-3.8382,-3.7578,-3.5844,-3.5372,-3.5355,0.0,-3.4616,0.0,0.0,0.0,0.0,0.0,0.0,0.0,0.0,0.0,0.0,0.0,0.0,0.0,0.0,0.0,0.0,0.0,0.0,-3.2826,-3.3352,-3.2816,-3.2705,-3.3103,-3.2446,-3.2247,-3.2606,-3.2463,-3.2353,-3.2323,-3.2256,-3.2074,-3.1839,-3.1654,-3.2081,-3.2971,-3.3076,-3.3541,-3.4218,-3.4218,-3.3984,-3.3454,-3.2194,-3.1146,-3.0101,-2.8869,-2.8411,-2.8473,-2.8981,-2.9166,-2.9273,-2.995,-3.0166,-3.0197,-3.0366,-3.0188,-2.9947,-2.9841,-2.9824,-2.9849,-2.9912,-3.0148,-3.0379,-3.0539,-3.0312,-2.9993,-2.9808,-2.9623,-2.9107,-2.8195,-2.7484,-2.6973,-2.6782,-2.6782,-2.6714,-2.6521,-2.6533,-2.6533,-2.6533,-2.6533,-2.6533,-2.6533,-2.6533,-2.6533,-2.6533,-2.6533,-2.6533,-2.6533,-2.6533,-2.6533,-2.6533,-2.6533,-2.6533,-2.6533,-2.6533,-2.6533,-2.6533,-2.6533,-2.6327,-2.605,-2.6396,-2.6314,-2.7739,-2.9428,-3.1874,-3.6819,-3.7983,-3.7456,-3.5705,-3.532,-3.5393,-3.5729,-3.468,0.0,0.0,0.0,0.0,0.0,0.0,0.0,0.0,0.0,0.0,0.0,0.0,0.0,0.0,0.0,0.0,0.0,0.0,-3.1868,-3.1901,-3.1811,-3.169,-3.1524,-3.1519,-3.1375,-3.103,-3.0962,-3.1224,-3.1821,-3.1586,-3.1833,-3.2422,-3.1875,-3.1614,-3.1696,-3.2139,-3.2763,-3.3457,-3.3457,-3.3244,-3.2796,-3.1504,-3.0741,-3.0227,-2.8869,-2.8411,-2.8411,-2.8442,-2.8458,-2.8565,-2.9243,-2.9458,-2.9581,-3.0228,-3.0188,-2.9841,-2.9574,-2.9332,-2.9234,-2.9522,-2.9653,-2.9827,-3.0437,-3.0568,-3.0447,-2.9931,-2.931,-2.898,-2.9435,-2.8903,-2.8182,-2.7537,-2.7484,-2.7229,-2.6589,-2.6533,-2.6533,-2.6533,-2.6533,-2.6533,-2.6533,-2.6533,-2.6533,-2.6533,-2.6533,-2.6533,-2.6533,-2.6533,-2.6533,-2.6533,-2.6533,-2.6533,-2.6533,-2.6533,-2.6533,-2.6533,-2.6533,-2.6465,-2.6465,-2.6465,-2.6383,-2.6379,-2.7402,-2.9332,-3.3346,-3.4218,-3.4616,-3.6523,-3.6067,-3.5027,-3.4282,-3.3593,0.0,0.0,0.0,0.0,0.0,0.0,0.0,0.0,0.0,0.0,0.0,0.0,0.0,0.0,0.0,0.0,0.0,0.0,0.0,-3.1775,-3.1262,-3.1135,-3.1597,-3.0858,-3.0539,-3.0639,-3.0711,-3.0843,-3.1082,-3.1035,-3.0978,-3.0894,-3.0627,-3.0317,-2.9992,-3.0116,-3.1123,-3.2679,-3.2679,-3.2471,-3.1994,-3.1275,-3.0451,-2.9468,-2.8857,-2.8589,-2.8541,-2.8652,-2.8604,-2.8572,-2.8819,-2.8814,-2.8812,-2.9058,-2.892,-2.8703,-2.8753,-2.8748,-2.8791,-2.9068,-2.9492,-2.9828,-2.9681,-2.9651,-2.9512,-2.8931,-2.8712,-2.8634,-2.8826,-2.8312,-2.7802,-2.7537,-2.7162,-2.6782,-2.6521,-2.6533,-2.6533,-2.6533,-2.6533,-2.6533,-2.6533,-2.6533,-2.6533,-2.6533,-2.6533,-2.6533,-2.6533,-2.6533,-2.6533,-2.6533,-2.6533,-2.6533,-2.6533,-2.6533,-2.6533,-2.6533,-2.6533,-2.6533,-2.6533,-2.6533,-2.6452,-2.611,-2.6699,-2.8251,-3.1626,-3.1965,-3.2743,-3.766,-3.6926,-3.4986,-3.4236,-3.2964,0.0,0.0,0.0,0.0,0.0,0.0,0.0,0.0,0.0,0.0,0.0,0.0,0.0,0.0,0.0,0.0,0.0,0.0,0.0,-3.1038,-3.0469,-3.0368,-3.0876,-3.0081,-2.9748,-2.9962,-3.0016,-3.015,-3.0335,-3.0402,-3.0384,-3.0256,-3.0036,-2.9742,-2.9333,-2.9119,-2.9803,-3.1213,-3.1213,-3.0918,-3.0551,-3.0547,-2.9814,-2.8849,-2.895,-2.8826,-2.8684,-2.8747,-2.8747,-2.8684,-2.8684,-2.8589,-2.8556,-2.8556,-2.8411,-2.8314,-2.8363,-2.8408,-2.8469,-2.8628,-2.9139,-2.945,-2.9054,-2.897,-2.8909,-2.8574,-2.8248,-2.8065,-2.826,-2.7683,-2.7162,-2.7162,-2.6973,-2.6782,-2.6521,-2.6714,-2.6782,-2.6521,-2.6533,-2.6533,-2.6533,-2.6533,-2.6533,-2.6533,-2.6533,-2.6533,-2.6533,-2.6533,-2.6533,-2.6533,-2.6533,-2.6533,-2.6533,-2.6521,-2.6589,-2.6589,-2.6521,-2.6533,-2.6533,-2.6533,-2.6465,0.0,0.0,0.0,-3.1873,-3.1502,-3.2064,-3.8642,0.0,-3.5272,-3.5512,0.0,0.0,0.0,0.0,0.0,0.0,0.0,0.0,0.0,0.0,0.0,0.0,0.0,0.0,0.0,0.0,0.0,0.0,0.0,-2.9755,-2.9607,-2.9491,-2.937,-2.9302,-2.9152,-2.9021,-2.8905,-2.881,-2.9036,-2.9547,-2.9611,-3.0025,-3.0715,-3.0185,-2.9884,-2.9804,-2.9212,-2.8943,-2.8924,-2.8958,-2.8757,-2.8472,-2.9085,-2.8918,-2.8359,-2.8971,-2.9028,-2.8748,-2.8763,-2.8763,-2.8763,-2.8794,-2.8794,-2.8794,-2.8794,-2.8794,-2.8747,-2.8508,-2.8299,-2.8225,-2.8316,-2.8488,-2.8652,-2.8666,-2.8681,-2.8737,-2.8849,-2.7865,-2.7162,-2.7723,-2.7136,-2.6539,-2.6552,-2.7056,-2.7245,-2.6564,-2.7015,-2.7204,-2.6589,-2.6533,-2.6533,-2.6533,-2.6533,-2.6533,-2.6533,-2.6533,-2.6533,-2.6533,-2.6533,-2.6533,-2.6533,-2.6533,-2.6533,-2.6533,-2.6658,-2.6714,-2.6714,-2.6589,-2.6533,-2.6533,-2.6533,-2.6314,-2.6872,0.0,0.0,0.0,0.0,0.0,0.0,0.0,-3.4234,-3.0791,0.0,0.0,0.0,0.0,0.0,0.0,0.0,0.0,0.0,0.0,0.0,0.0,0.0,0.0,0.0,0.0,0.0,0.0,-2.9872,-2.9857,-2.9827,-2.9645,-2.9411,-2.9089,-2.8957,-2.8791,-2.8619,-2.851,-2.8514,-2.8649,-2.8748,-2.8829,-2.8907,-2.8529,-2.8211,-2.8007,-2.7656,-2.7402,-2.7348,-2.8353,-2.8716,-2.8603,-2.8533,-2.8184,-2.7731,-2.7785,-2.7517,-2.7238,-2.7782,-2.7968,-2.8031,-2.8529,-2.8589,-2.8508,-2.8508,-2.8589,-2.8636,-2.8589,-2.8589,-2.8647,-2.861,-2.8417,-2.825,-2.814,-2.814,-2.8082,-2.785,-2.7423,-2.7353,-2.8418,-2.7732,-2.6983,-2.6885,-2.6319,-2.5961,-2.6054,-2.6238,-2.6391,-2.6471,-2.6533,-2.6533,-2.6533,-2.6533,-2.6533,-2.6533,-2.6533,-2.6533,-2.6533,-2.6533,-2.6533,-2.6533,-2.6533,-2.6521,-2.6658,-2.6658,-2.6714,-2.6714,-2.6658,-2.6658,-2.6658,-2.6521,-2.6465,-2.6786,-2.7286,-2.7865,-2.746,0.0,0.0,-2.6918,-2.9028,0.0,0.0,0.0,0.0,0.0,0.0,0.0,0.0,0.0,0.0,0.0,0.0,0.0,0.0,0.0,0.0,0.0,0.0,0.0,-2.9888,-2.9888,-2.9857,-2.9737,-2.957,-2.9351,-2.9089,-2.9026,-2.8929,-2.8743,-2.8619,-2.851,-2.8432,-2.8406,-2.8353,-2.8273,-2.8007,-2.773,-2.7504,-2.7261,-2.6957,-2.6742,-2.755,-2.7813,-2.7791,-2.7906,-2.7607,-2.7147,-2.7329,-2.7047,-2.6647,-2.7141,-2.7439,-2.7705,-2.8109,-2.8388,-2.8556,-2.8556,-2.8636,-2.8684,-2.8684,-2.8636,-2.8473,-2.8278,-2.7973,-2.7671,-2.7506,-2.7426,-2.7426,-2.7244,-2.7117,-2.7201,-2.7723,-2.7252,-2.6654,-2.6329,-2.5959,-2.5714,-2.5678,-2.6039,-2.6335,-2.6348,-2.6473,-2.6627,-2.6681,-2.6722,-2.6671,-2.6589,-2.6589,-2.6589,-2.6533,-2.6533,-2.6533,-2.6533,-2.6533,-2.6521,-2.6589,-2.6658,-2.6714,-2.6714,-2.6714,-2.6658,-2.6589,-2.6589,-2.6521,-2.682,-2.7372,-2.7528,-2.5998,-2.5676,0.0,-2.5371,-2.5256,-2.5205,0.0,0.0,0.0,0.0,0.0,0.0,0.0,0.0,0.0,0.0,0.0,0.0,0.0,0.0,0.0,0.0,-2.9969,-2.9888,-2.9888,-2.9924,-2.9787,-2.9551,-2.9434,-2.9332,-2.9222,-2.9262,-2.9218,-2.9089,-2.8952,-2.8785,-2.8587,-2.8458,-2.8398,-2.8371,-2.8093,-2.788,-2.7789,-2.7452,-2.7112,-2.6774,-2.6691,-2.6589,-2.6552,-2.7188,-2.7057,-2.6587,-2.7243,-2.7061,-2.6514,-2.6592,-2.6985,-2.7455,-2.7532,-2.8046,-2.8638,-2.8638,-2.8685,-2.8794,-2.8794,-2.8493,-2.8137,-2.7725,-2.7423,-2.713,-2.6884,-2.6779,-2.6846,-2.6951,-2.7003,-2.6885,-2.6453,-2.627,-2.5967,-2.5465,-2.5823,-2.6047,-2.5584,-2.6276,-2.6761,-2.6294,-2.6546,-2.6773,-2.6837,-2.6881,-2.6815,-2.6536,-2.665,-2.6633,-2.6433,-2.6496,-2.6533,-2.6533,-2.6533,-2.6533,-2.6521,-2.6658,-2.6714,-2.6714,-2.6714,-2.6658,-2.6533,-2.6589,-2.6589,-2.7558,-2.786,-2.7997,-2.8077,-2.8714,0.0,-2.5915,-2.5294,-2.5271,0.0,0.0,0.0,0.0,0.0,0.0,0.0,0.0,0.0,0.0,0.0,0.0,0.0,0.0,0.0,0.0,-2.9969,-2.9888,-2.9888,-2.9956,-2.9907,-2.9736,-2.9773,-2.9645,-2.9372,-2.927,-2.916,-2.9003,-2.8887,-2.8718,-2.8518,-2.8492,-2.8406,-2.8219,-2.7341,-2.7254,-2.7666,-2.6588,-2.6377,-2.6725,-2.6589,-2.6468,-2.6347,-2.6424,-2.6241,-2.5875,-2.6021,-2.5686,-2.5262,-2.5785,-2.5882,-2.5854,-2.6394,-2.7057,-2.769,-2.769,-2.8107,-2.8684,-2.8747,-2.8493,-2.8137,-2.784,-2.7488,-2.713,-2.6884,-2.6779,-2.6846,-2.6951,-2.7003,-2.6852,-2.6394,-2.6313,-2.6202,-2.5953,-2.5714,-2.5802,-2.6559,-2.6394,-2.6494,-2.7215,-2.6591,-2.6067,-2.6117,-2.6207,-2.6061,-2.5601,-2.6273,-2.6523,-2.6013,-2.635,-2.6533,-2.6533,-2.6533,-2.6521,-2.6658,-2.6714,-2.6714,-2.6714,-2.6714,-2.6658,-2.6533,-2.6521,-2.6521,-2.7166,-2.7717,-2.8311,-2.9461,0.0,0.0,0.0,-2.5753,-2.5305,-2.5299,-2.5199,-2.5019,0.0,0.0,0.0,0.0,0.0,0.0,0.0,0.0,0.0,0.0,0.0,0.0,0.0,-2.9972,-2.994,-2.9888,-2.994,-2.9891,-2.9699,-2.9808,-2.9737,-2.9511,-2.9372,-2.927,-2.9203,-2.898,-2.8767,-2.8594,-2.8466,-2.83,-2.8136,-2.7589,-2.7511,-2.7777,-2.7031,-2.6756,-2.6891,-2.6674,-2.6704,-2.6845,-2.6789,-2.6339,-2.5733,-2.6108,-2.5612,-2.4862,-2.5168,-2.5321,-2.5379,-2.5703,-2.6303,-2.6949,-2.7288,-2.7905,-2.8493,-2.8604,-2.846,-2.825,-2.7955,-2.774,-2.7488,-2.7093,-2.6974,-2.6989,-2.6884,-2.6899,-2.6832,-2.6592,-2.6539,-2.6312,-2.5564,-2.5048,-2.4909,-2.5453,-2.5455,-2.5643,-2.6253,-2.5975,-2.5888,-2.6175,-2.6237,-2.6162,-2.5798,-2.6371,-2.6517,-2.591,-2.6103,-2.6192,-2.6192,-2.6222,-2.6312,-2.6589,-2.6589,-2.6589,-2.6589,-2.6589,-2.6589,-2.6533,-2.6589,-2.6589,-2.6624,0.0,-2.8411,0.0,0.0,-2.7666,0.0,0.0,0.0,-2.5348,0.0,0.0,0.0,0.0,0.0,0.0,0.0,0.0,0.0,0.0,0.0,0.0,0.0,0.0,0.0,-2.9725,-2.9817,-2.9905,-2.9769,-2.9685,-2.9662,-2.9753,-2.9754,-2.9645,-2.9401,-2.9324,-2.9394,-2.8975,-2.8769,-2.8743,-2.8466,-2.8273,-2.8109,-2.7865,-2.7787,-2.7842,-2.7472,-2.7261,-2.7135,-2.6825,-2.6926,-2.7247,-2.7361,-2.6908,-2.6286,-2.6744,-2.617,-2.5148,-2.5005,-2.5096,-2.5273,-2.5203,-2.5638,-2.6318,-2.6995,-2.758,-2.8042,-2.8181,-2.8211,-2.8194,-2.8073,-2.8054,-2.7905,-2.7386,-2.7233,-2.7181,-2.6884,-2.6779,-2.6779,-2.6779,-2.6727,-2.634,-2.5342,-2.4892,-2.466,-2.4767,-2.503,-2.5271,-2.5493,-2.5537,-2.5755,-2.6244,-2.6226,-2.6081,-2.5813,-2.6331,-2.635,-2.569,-2.572,-2.5772,-2.5772,-2.5794,-2.594,-2.6261,-2.6307,-2.637,-2.637,-2.6471,-2.6533,-2.6533,-2.6589,-2.6589,0.0,0.0,0.0,0.0,-2.8741,0.0,0.0,0.0,-2.7689,-2.548,0.0,0.0,0.0,0.0,0.0,0.0,0.0,0.0,0.0,0.0,0.0,0.0,0.0,0.0,0.0,0.0,-2.9197,-2.9848,-2.9281,-2.9201,-2.9834,-2.9872,-2.9855,-2.9767,-2.9136,-2.898,-2.9418,-2.8708,-2.8548,-2.8863,-2.8669,-2.8422,-2.8156,-2.727,-2.7155,-2.7666,-2.6765,-2.6732,-2.7341,-2.6891,-2.6691,-2.6722,-2.7125,-2.7611,-2.802,-2.7441,-2.6972,-2.6487,-2.5837,-2.5432,-2.5147,-2.4925,-2.5124,-2.5564,-2.6287,-2.6549,-2.6734,-2.7349,-2.7503,-2.7595,-2.8033,-2.8186,-2.8039,-2.7488,-2.7401,-2.7248,-2.6884,-2.6779,-2.6779,-2.6779,-2.6447,-2.6286,-2.65,-2.65,-2.6687,-2.7193,-2.686,-2.6755,-2.7317,-2.6259,-2.5453,-2.5508,-2.5325,-2.4917,-2.4406,-2.5149,-2.5389,-2.4861,-2.515,-2.5358,-2.5358,-2.5358,-2.5358,-2.5422,-2.579,-2.5991,-2.5991,-2.635,-2.6533,-2.6533,-2.6521,-2.6533,0.0,0.0,0.0,0.0,0.0,0.0,-2.6553,0.0,-2.6477,0.0,0.0,0.0,0.0,0.0,0.0,0.0,0.0,0.0,0.0,0.0,0.0,0.0,0.0,0.0,0.0,0.0,0.0,0.0,0.0,-2.9669,-2.9886,-2.9888,-2.9888,-2.9853,-2.9479,-2.9342,-2.9455,-2.9001,-2.8772,-2.8767,-2.8644,-2.851,-2.8282,-2.7771,-2.7667,-2.7876,-2.7208,-2.7078,-2.7373,-2.7038,-2.7097,-2.747,-2.7511,-2.7344,-2.7081,-2.6766,-2.6504,-2.6302,-2.64,-2.6265,-2.5979,-2.568,-2.5591,-2.5582,-2.5877,-2.6249,-2.6621,-2.69,-2.7256,-2.7535,-2.738,-2.7953,-2.8288,-2.7229,-2.7305,-2.7488,-2.6937,-2.6779,-2.6779,-2.6779,-2.6621,-2.6568,-2.6779,-2.6326,-2.6059,-2.6327,-2.6143,-2.6073,-2.6327,-2.5786,-2.5522,-2.577,-2.573,-2.556,-2.53,-2.5838,-2.6018,-2.5556,-2.5414,-2.5236,-2.4944,-2.4957,-2.5036,-2.5294,-2.5473,-2.5524,-2.5524,-2.5965,-2.6177,-2.6177,-2.637,-2.6533,-2.5595,0.0,0.0,0.0,0.0,0.0,0.0,0.0,0.0,0.0,0.0,0.0,0.0,0.0,0.0,0.0,0.0,0.0,0.0,0.0,0.0,0.0,0.0,0.0,0.0,0.0,0.0,0.0,0.0,0.0,-2.9905,-2.9921,-2.9972,-2.9988,-2.9693,-2.9463,-2.9306,-2.8838,-2.8463,-2.821,-2.8016,-2.8019,-2.8152,-2.7915,-2.7931,-2.8071,-2.7707,-2.7509,-2.7448,-2.7198,-2.7429,-2.7843,-2.7403,-2.6892,-2.6432,-2.649,-2.6412,-2.6336,-2.6685,-2.6634,-2.6389,-2.6195,-2.5935,-2.5601,-2.5519,-2.5837,-2.6233,-2.6305,-2.665,-2.6989,-2.6694,-2.7423,-2.7984,-2.7066,-2.7273,-2.7599,-2.7049,-2.6937,-2.6937,-2.6832,-2.6779,-2.6779,-2.6779,-2.6258,-2.5797,-2.5797,-2.5797,-2.5797,-2.5797,-2.5687,-2.5701,-2.6056,-2.5988,-2.5934,-2.5934,-2.6218,-2.6218,-2.5784,-2.5425,-2.501,-2.4546,-2.4572,-2.4693,-2.4957,-2.5062,-2.5139,-2.5139,-2.5511,-2.5726,-2.5739,-2.6261,-2.6533,0.0,0.0,0.0,-2.4535,0.0,0.0,0.0,0.0,-2.4202,0.0,0.0,0.0,0.0,0.0,-2.4842,-2.4983,-2.4832,0.0,0.0,0.0,0.0,0.0,0.0,0.0,0.0,0.0,0.0,0.0,0.0,0.0,-2.9867,-3.0022,-3.0132,-3.0204,-2.9494,-2.9009,-2.8817,-2.7858,-2.7219,-2.6953,-2.6483,-2.6716,-2.752,-2.7197,-2.7424,-2.8099,-2.8014,-2.7864,-2.7672,-2.7478,-2.739,-2.7338,-2.6347,-2.6358,-2.6993,-2.7274,-2.7304,-2.7184,-2.6543,-2.6168,-2.5914,-2.5987,-2.5791,-2.5422,-2.5052,-2.495,-2.5004,-2.5277,-2.5364,-2.5561,-2.6326,-2.6616,-2.6878,-2.718,-2.7396,-2.7487,-2.7405,-2.7401,-2.7248,-2.6884,-2.6779,-2.6779,-2.6779,-2.6779,-2.6779,-2.6779,-2.6779,-2.6779,-2.6779,-2.634,-2.6056,-2.6111,-2.5701,-2.5398,-2.5398,-2.5467,-2.5245,-2.4892,-2.4835,-2.4633,-2.4138,-2.4151,-2.4151,-2.4106,-2.4546,-2.4709,-2.4709,-2.5126,-2.5333,-2.5358,-2.6139,-2.6533,0.0,0.0,-2.6502,-2.5189,0.0,0.0,0.0,0.0,0.0,0.0,0.0,0.0,0.0,-2.4966,-2.4861,-2.4862,-2.4847,-2.4911,0.0,0.0,0.0,0.0,0.0,0.0,0.0,0.0,0.0,0.0,0.0,0.0,0.0,-3.0323,-3.0269,-3.0772,-2.9991,-2.9488,-2.9334,-2.8385,-2.7848,-2.7755,-2.688,-2.6664,-2.7027,-2.6695,-2.6958,-2.7673,-2.6974,-2.7166,-2.7915,-2.7282,-2.7227,-2.7565,-2.7078,-2.7054,-2.7181,-2.6421,-2.647,-2.6942,-2.7088,-2.6955,-2.6681,-2.6718,-2.6037,-2.5192,-2.5075,-2.4895,-2.4701,-2.4828,-2.5191,-2.5528,-2.5295,-2.596,-2.6554,-2.5968,-2.6198,-2.655,-2.6421,-2.6482,-2.6615,-2.6611,-2.6712,-2.6779,-2.6779,-2.6779,-2.6779,-2.6779,-2.6779,-2.6779,-2.6779,-2.6674,-2.6568,-2.6568,-2.6433,-2.6326,-2.6326,-2.6326,-2.6165,-2.5674,-2.5674,-2.5439,-2.4978,-2.4978,-2.4978,-2.4978,-2.4851,-2.4739,-2.4752,-2.4853,-2.4893,-2.4906,-2.5461,-2.5675,-2.5415,-2.5979,0.0,-2.5136,-2.5192,0.0,-2.4483,0.0,0.0,0.0,0.0,0.0,0.0,0.0,-2.4875,-2.4873,-2.4817,-2.4687,0.0,-2.541,0.0,0.0,0.0,0.0,0.0,0.0,-2.8676,-2.8169,0.0,0.0,0.0,0.0,-3.0357,-3.0795,-3.0285,-2.9817,-2.9434,-2.8734,-2.8234,-2.7937,-2.6823,-2.6486,-2.6822,-2.6222,-2.6354,-2.7035,-2.6339,-2.6501,-2.7228,-2.6916,-2.6992,-2.7332,-2.7465,-2.7509,-2.7396,-2.633,-2.6202,-2.6691,-2.7023,-2.7047,-2.6902,-2.6902,-2.6315,-2.5567,-2.5416,-2.5224,-2.5029,-2.4735,-2.5023,-2.5233,-2.4673,-2.5217,-2.578,-2.5364,-2.5597,-2.597,-2.6071,-2.6229,-2.632,-2.6395,-2.6539,-2.6621,-2.6712,-2.6712,-2.6712,-2.6779,-2.6779,-2.6779,-2.6779,-2.6779,-2.6779,-2.6779,-2.6779,-2.6779,-2.6779,-2.6779,-2.6621,-2.6111,-2.6111,-2.5879,-2.5398,-2.5398,-2.5398,-2.5398,-2.5147,-2.4991,-2.4991,-2.498,-2.4932,-2.4945,-2.5074,-2.5123]},{"header":{"parameterUnit":"m.s-1","parameterCategory":1,"la1":30.6,"la2":29.2853,"lo1":-89.7004,"lo2":-87.6739,"dy":0.0162,"dx":0.0183,"nx":112,"ny":82,"refTime":"2024-08-15T18:00:00:Z","depth":0,"parameterNumber":3,"parameterNumberName":"V-component_of_WINDS"},"data":[0.0,0.0,0.0,0.0,0.0,0.0,0.0,0.0,0.0,0.0,0.0,0.0,0.0,0.0,0.0,0.0,0.0,0.0,0.0,0.0,0.0,0.0,0.0,0.0,0.0,0.0,0.0,0.0,0.0,0.0,0.0,0.0,0.0,0.0,0.0,0.0,0.0,0.0,0.0,0.0,0.0,0.0,0.0,0.0,0.0,0.0,0.0,0.0,0.0,0.0,0.0,0.0,0.0,0.0,0.0,0.0,0.0,0.0,0.0,0.0,0.0,0.0,0.0,0.0,0.0,0.0,0.0,0.0,0.0,0.0,0.0,0.0,0.0,0.0,0.0,0.0,0.0,0.0,0.0,0.0,0.0,0.0,0.0,0.0,0.0,0.0,0.0,0.0,0.0,0.0,-2.981,-3.1304,-3.374,-3.5299,-3.5299,-3.5299,-3.3936,-3.0786,0.0,0.0,0.0,0.0,0.0,0.0,0.0,0.0,0.0,0.0,0.0,0.0,0.0,0.0,0.0,0.0,0.0,0.0,0.0,0.0,0.0,0.0,0.0,0.0,0.0,0.0,0.0,0.0,0.0,0.0,0.0,0.0,0.0,0.0,0.0,0.0,0.0,0.0,0.0,0.0,0.0,0.0,0.0,0.0,0.0,0.0,0.0,0.0,0.0,0.0,0.0,0.0,0.0,0.0,0.0,0.0,0.0,0.0,0.0,0.0,0.0,0.0,0.0,0.0,0.0,0.0,0.0,0.0,0.0,0.0,0.0,0.0,0.0,0.0,0.0,0.0,0.0,0.0,0.0,0.0,0.0,0.0,0.0,0.0,0.0,0.0,0.0,0.0,0.0,0.0,0.0,0.0,0.0,0.0,0.0,0.0,0.0,0.0,0.0,0.0,0.0,0.0,0.0,0.0,-3.0472,-3.4171,-3.5038,-3.5299,-3.5299,-3.5299,-3.3862,-3.0403,0.0,0.0,0.0,0.0,0.0,0.0,0.0,0.0,0.0,0.0,0.0,0.0,0.0,0.0,0.0,0.0,0.0,0.0,0.0,0.0,0.0,0.0,0.0,0.0,0.0,0.0,0.0,0.0,0.0,0.0,0.0,0.0,0.0,0.0,0.0,0.0,0.0,0.0,0.0,0.0,0.0,0.0,0.0,0.0,0.0,0.0,0.0,0.0,0.0,0.0,0.0,0.0,0.0,0.0,0.0,0.0,0.0,0.0,0.0,0.0,0.0,0.0,0.0,0.0,0.0,0.0,0.0,0.0,0.0,0.0,0.0,0.0,0.0,0.0,0.0,0.0,0.0,0.0,0.0,0.0,0.0,0.0,0.0,0.0,0.0,0.0,0.0,0.0,0.0,0.0,0.0,0.0,0.0,0.0,0.0,0.0,0.0,0.0,0.0,0.0,0.0,0.0,0.0,-2.9463,-3.133,-3.4933,-3.4999,-3.4946,-3.5273,-3.4999,-3.347,-3.0333,-2.9287,0.0,0.0,0.0,0.0,0.0,0.0,0.0,0.0,0.0,0.0,0.0,0.0,0.0,0.0,0.0,0.0,0.0,0.0,0.0,0.0,0.0,0.0,0.0,0.0,0.0,0.0,0.0,0.0,0.0,0.0,0.0,0.0,0.0,0.0,0.0,0.0,0.0,0.0,0.0,0.0,0.0,0.0,0.0,0.0,0.0,0.0,0.0,0.0,0.0,0.0,0.0,0.0,0.0,0.0,0.0,0.0,0.0,0.0,0.0,0.0,0.0,0.0,0.0,0.0,0.0,0.0,0.0,0.0,0.0,0.0,0.0,0.0,0.0,0.0,0.0,0.0,0.0,0.0,0.0,0.0,0.0,0.0,0.0,0.0,0.0,0.0,0.0,0.0,0.0,0.0,0.0,0.0,0.0,0.0,0.0,0.0,0.0,0.0,0.0,0.0,0.0,0.0,-3.0724,-3.2163,-3.4816,-3.4638,-3.4468,-3.4939,-3.4179,-3.2568,-2.9961,-2.8757,0.0,0.0,0.0,0.0,0.0,0.0,0.0,0.0,0.0,0.0,0.0,0.0,0.0,0.0,0.0,0.0,0.0,0.0,0.0,0.0,0.0,0.0,0.0,0.0,0.0,0.0,0.0,0.0,0.0,0.0,0.0,0.0,0.0,0.0,0.0,0.0,0.0,0.0,0.0,0.0,0.0,0.0,0.0,0.0,0.0,0.0,0.0,0.0,0.0,0.0,0.0,0.0,0.0,0.0,0.0,0.0,0.0,0.0,0.0,0.0,0.0,0.0,0.0,0.0,0.0,0.0,0.0,0.0,0.0,0.0,0.0,0.0,0.0,0.0,0.0,0.0,0.0,0.0,0.0,0.0,0.0,0.0,0.0,0.0,0.0,0.0,0.0,0.0,0.0,0.0,0.0,0.0,0.0,0.0,0.0,0.0,0.0,0.0,0.0,0.0,0.0,0.0,-3.1083,-3.3051,-3.4332,-3.413,-3.3977,-3.4017,-3.2473,-3.0745,-2.8924,-2.7271,0.0,0.0,0.0,0.0,0.0,0.0,0.0,0.0,0.0,0.0,0.0,0.0,0.0,0.0,0.0,0.0,0.0,0.0,0.0,0.0,0.0,0.0,0.0,0.0,0.0,0.0,0.0,0.0,0.0,0.0,0.0,0.0,0.0,0.0,0.0,0.0,0.0,0.0,0.0,0.0,0.0,0.0,0.0,0.0,0.0,0.0,0.0,0.0,0.0,0.0,0.0,0.0,0.0,0.0,0.0,0.0,0.0,0.0,0.0,0.0,0.0,0.0,0.0,0.0,0.0,0.0,0.0,0.0,0.0,0.0,0.0,0.0,0.0,0.0,0.0,0.0,0.0,0.0,0.0,0.0,0.0,0.0,0.0,0.0,0.0,0.0,0.0,0.0,0.0,0.0,0.0,0.0,0.0,0.0,0.0,0.0,0.0,0.0,0.0,0.0,0.0,0.0,-2.9965,-3.1743,-3.3329,-3.3556,-3.3662,-3.4033,-3.3027,-3.1457,-2.9289,0.0,0.0,0.0,0.0,0.0,0.0,0.0,0.0,0.0,0.0,0.0,0.0,0.0,0.0,0.0,0.0,0.0,0.0,0.0,0.0,0.0,0.0,0.0,0.0,0.0,0.0,0.0,0.0,0.0,0.0,0.0,0.0,0.0,0.0,0.0,0.0,0.0,0.0,0.0,0.0,0.0,0.0,0.0,0.0,0.0,0.0,0.0,0.0,0.0,0.0,0.0,0.0,0.0,0.0,0.0,0.0,0.0,0.0,0.0,0.0,0.0,0.0,0.0,0.0,0.0,0.0,0.0,0.0,0.0,0.0,0.0,0.0,0.0,0.0,0.0,0.0,0.0,0.0,0.0,0.0,0.0,0.0,0.0,0.0,0.0,0.0,0.0,0.0,0.0,0.0,0.0,0.0,0.0,0.0,0.0,0.0,0.0,0.0,0.0,0.0,0.0,0.0,-2.7816,-2.9587,-3.1258,0.0,-3.2921,-3.3209,-3.3873,-3.2707,-3.1214,-2.9315,0.0,0.0,0.0,0.0,0.0,0.0,0.0,0.0,0.0,0.0,0.0,0.0,0.0,0.0,0.0,0.0,0.0,0.0,0.0,0.0,0.0,0.0,0.0,0.0,0.0,0.0,0.0,0.0,0.0,0.0,0.0,0.0,0.0,0.0,0.0,0.0,0.0,0.0,0.0,0.0,0.0,0.0,0.0,0.0,0.0,0.0,0.0,0.0,0.0,0.0,0.0,0.0,0.0,0.0,0.0,0.0,0.0,0.0,0.0,0.0,0.0,0.0,0.0,0.0,0.0,0.0,0.0,0.0,0.0,0.0,0.0,0.0,0.0,0.0,0.0,0.0,0.0,0.0,0.0,0.0,0.0,0.0,0.0,0.0,0.0,0.0,0.0,0.0,0.0,0.0,0.0,0.0,0.0,0.0,0.0,0.0,0.0,0.0,0.0,0.0,0.0,0.0,-2.8101,-3.0325,-3.2045,-3.2607,-3.2318,-3.2445,-3.3247,-3.1143,-2.9558,0.0,0.0,0.0,0.0,0.0,0.0,0.0,0.0,0.0,0.0,0.0,0.0,0.0,0.0,0.0,0.0,0.0,0.0,0.0,0.0,0.0,0.0,0.0,0.0,0.0,0.0,0.0,0.0,0.0,0.0,0.0,0.0,0.0,0.0,0.0,0.0,0.0,0.0,0.0,0.0,0.0,0.0,0.0,0.0,0.0,0.0,0.0,0.0,0.0,0.0,0.0,0.0,0.0,0.0,0.0,0.0,0.0,0.0,0.0,0.0,0.0,0.0,0.0,0.0,0.0,0.0,0.0,0.0,0.0,0.0,0.0,0.0,0.0,0.0,0.0,0.0,0.0,0.0,0.0,0.0,0.0,0.0,0.0,0.0,0.0,0.0,0.0,0.0,0.0,0.0,0.0,0.0,0.0,0.0,0.0,0.0,0.0,0.0,0.0,0.0,0.0,0.0,0.0,-2.7758,-2.9941,-3.1602,-3.1863,-3.2315,-3.2841,-3.3507,-3.2528,-3.1352,-3.0119,0.0,0.0,0.0,0.0,0.0,0.0,0.0,0.0,0.0,0.0,0.0,0.0,0.0,0.0,0.0,0.0,0.0,0.0,0.0,0.0,0.0,0.0,0.0,0.0,0.0,0.0,0.0,0.0,0.0,0.0,0.0,0.0,0.0,0.0,0.0,0.0,0.0,0.0,0.0,0.0,0.0,0.0,0.0,0.0,0.0,0.0,0.0,0.0,0.0,0.0,0.0,0.0,0.0,0.0,0.0,0.0,0.0,0.0,0.0,0.0,0.0,0.0,0.0,0.0,0.0,0.0,0.0,0.0,0.0,0.0,0.0,0.0,0.0,0.0,0.0,0.0,0.0,0.0,0.0,0.0,0.0,0.0,0.0,0.0,0.0,0.0,0.0,0.0,0.0,0.0,0.0,0.0,0.0,0.0,0.0,0.0,0.0,0.0,0.0,0.0,0.0,0.0,-2.7656,-2.975,-3.1286,-3.1447,-3.2128,-3.2778,-3.3352,-3.3455,-3.2668,-3.0541,0.0,0.0,0.0,0.0,0.0,0.0,0.0,0.0,0.0,0.0,0.0,0.0,0.0,0.0,0.0,0.0,0.0,0.0,0.0,0.0,0.0,0.0,0.0,0.0,0.0,0.0,0.0,0.0,0.0,0.0,0.0,0.0,0.0,0.0,0.0,0.0,0.0,0.0,0.0,0.0,0.0,0.0,0.0,0.0,0.0,0.0,0.0,0.0,0.0,0.0,0.0,0.0,0.0,0.0,0.0,0.0,0.0,0.0,0.0,0.0,0.0,0.0,0.0,0.0,0.0,0.0,0.0,0.0,0.0,0.0,0.0,0.0,0.0,0.0,0.0,0.0,0.0,0.0,0.0,0.0,0.0,0.0,0.0,0.0,0.0,0.0,0.0,0.0,0.0,0.0,0.0,0.0,0.0,0.0,0.0,0.0,0.0,0.0,0.0,0.0,0.0,0.0,-2.7868,-2.9771,-3.1215,-3.1352,-3.2021,-3.259,-3.304,-3.4113,-3.3473,-3.0609,0.0,0.0,0.0,0.0,0.0,0.0,0.0,0.0,0.0,0.0,0.0,0.0,0.0,0.0,0.0,0.0,0.0,0.0,0.0,0.0,0.0,0.0,0.0,0.0,0.0,0.0,0.0,0.0,0.0,0.0,0.0,0.0,0.0,0.0,0.0,0.0,0.0,0.0,0.0,0.0,0.0,0.0,0.0,0.0,0.0,0.0,0.0,0.0,0.0,0.0,0.0,0.0,0.0,0.0,0.0,0.0,0.0,0.0,0.0,0.0,-2.3065,0.0,0.0,0.0,0.0,0.0,0.0,0.0,0.0,0.0,0.0,0.0,0.0,0.0,0.0,0.0,0.0,0.0,0.0,0.0,0.0,0.0,0.0,0.0,0.0,0.0,0.0,0.0,0.0,0.0,0.0,0.0,0.0,0.0,0.0,0.0,0.0,0.0,0.0,0.0,0.0,0.0,-2.8638,-3.0606,-3.1985,-3.2199,-3.3285,-3.3858,-3.3354,-3.4662,-3.4566,-3.2258,-3.1611,0.0,0.0,0.0,0.0,0.0,0.0,0.0,0.0,0.0,0.0,0.0,0.0,0.0,0.0,0.0,0.0,0.0,0.0,0.0,0.0,0.0,0.0,0.0,0.0,0.0,0.0,0.0,0.0,0.0,0.0,0.0,0.0,0.0,0.0,0.0,0.0,0.0,0.0,0.0,0.0,0.0,0.0,0.0,0.0,0.0,0.0,0.0,0.0,0.0,0.0,0.0,0.0,0.0,0.0,0.0,0.0,0.0,0.0,0.0,0.0,-2.4188,0.0,0.0,0.0,0.0,0.0,0.0,0.0,0.0,0.0,0.0,0.0,0.0,0.0,0.0,0.0,0.0,0.0,0.0,0.0,0.0,0.0,0.0,0.0,0.0,0.0,0.0,0.0,0.0,0.0,0.0,0.0,0.0,0.0,0.0,0.0,0.0,0.0,0.0,0.0,0.0,-2.8865,-3.095,-3.2644,-3.343,-3.4362,-3.4927,-3.4676,-3.6059,-3.608,-3.3965,-3.3057,0.0,0.0,0.0,0.0,0.0,0.0,0.0,0.0,0.0,0.0,0.0,0.0,0.0,0.0,0.0,0.0,0.0,0.0,0.0,0.0,0.0,0.0,0.0,0.0,0.0,0.0,0.0,0.0,0.0,0.0,0.0,0.0,0.0,0.0,0.0,0.0,0.0,0.0,0.0,0.0,0.0,0.0,0.0,0.0,0.0,0.0,0.0,0.0,0.0,0.0,0.0,0.0,0.0,-2.6918,-2.7174,-2.6611,-2.7371,-2.7642,-2.7603,-2.7071,-2.6461,-2.5786,0.0,0.0,0.0,0.0,0.0,0.0,0.0,0.0,0.0,0.0,0.0,0.0,0.0,0.0,0.0,0.0,0.0,0.0,0.0,0.0,0.0,0.0,0.0,0.0,0.0,-3.2786,-3.2774,0.0,0.0,0.0,0.0,0.0,0.0,0.0,0.0,0.0,0.0,0.0,0.0,-2.9362,-3.15,-3.3506,-3.4746,-3.5461,-3.5934,-3.6113,-3.7451,-3.7418,-3.5505,-3.4683,-3.349,0.0,0.0,0.0,0.0,0.0,0.0,0.0,0.0,0.0,0.0,0.0,0.0,0.0,0.0,0.0,0.0,0.0,0.0,0.0,0.0,0.0,0.0,0.0,0.0,0.0,0.0,0.0,0.0,0.0,0.0,0.0,0.0,-1.9467,-2.0077,0.0,0.0,0.0,0.0,0.0,0.0,0.0,0.0,0.0,0.0,0.0,0.0,0.0,-2.4364,-2.4874,-2.6043,-2.6384,-2.589,-2.8421,-2.9408,-2.9163,-2.9954,-3.0208,-3.009,-2.9845,0.0,-2.6527,-2.6225,0.0,0.0,0.0,0.0,0.0,0.0,0.0,0.0,0.0,0.0,0.0,0.0,0.0,0.0,0.0,0.0,0.0,0.0,0.0,0.0,0.0,0.0,-3.3184,-3.3917,-3.3654,-3.3366,0.0,-3.2449,-3.1072,-3.0288,-2.8872,0.0,0.0,0.0,0.0,0.0,0.0,0.0,-3.1268,-3.3503,-3.5296,-3.6066,-3.6841,-3.7073,-3.6443,-3.7526,-3.7607,-3.6142,-3.5711,-3.4838,-3.3445,-3.1343,0.0,0.0,0.0,0.0,0.0,0.0,0.0,0.0,0.0,0.0,0.0,0.0,0.0,0.0,0.0,0.0,0.0,0.0,0.0,0.0,0.0,0.0,0.0,0.0,0.0,0.0,0.0,0.0,0.0,-1.9356,-2.0372,-2.0852,-2.1607,-2.1765,0.0,0.0,0.0,0.0,0.0,0.0,0.0,0.0,0.0,-2.4796,-2.524,-2.5793,-2.6706,-2.8136,-2.8747,-2.8438,-3.0052,-3.0723,-3.0629,-3.0959,-3.1098,-3.1047,-3.0966,-3.0256,-2.904,-2.7656,-2.6651,-2.5937,0.0,0.0,0.0,0.0,0.0,-2.5528,-2.637,-2.6807,0.0,0.0,0.0,0.0,0.0,0.0,0.0,0.0,0.0,0.0,0.0,0.0,0.0,-3.4727,-3.5004,-3.5078,-3.5472,-3.4919,-3.3785,0.0,-3.0882,-3.0216,-2.974,0.0,0.0,0.0,0.0,-3.1166,-3.2637,-3.4455,-3.6082,-3.7442,-3.7878,-3.8086,-3.8106,-3.8325,-3.8326,-3.7827,-3.6802,-3.5926,-3.5356,-3.3404,-3.1824,0.0,0.0,0.0,0.0,0.0,0.0,0.0,0.0,0.0,0.0,0.0,0.0,0.0,0.0,0.0,0.0,0.0,0.0,0.0,0.0,0.0,0.0,0.0,0.0,0.0,0.0,0.0,0.0,-2.0207,-2.1222,-2.156,-2.2609,-2.2923,0.0,0.0,0.0,0.0,0.0,0.0,-2.5046,-2.4534,-2.4765,-2.5905,-2.6496,-2.7215,-2.8245,-2.9534,-3.005,-2.9966,-3.0947,-3.1447,-3.1365,-3.1667,-3.1738,-3.1599,-3.1599,-3.1442,-3.0959,-2.9241,-2.8258,-2.7733,-2.6647,-2.6416,-2.6731,-2.6725,-2.6764,-2.6851,-2.7801,-2.8041,-2.7927,-2.8049,0.0,-2.827,-2.8462,0.0,0.0,0.0,0.0,-3.1947,-3.2599,-3.3223,-3.3899,-3.4788,-3.5404,-3.5831,-3.606,-3.6156,-3.5576,0.0,-3.2817,-3.2378,-3.1412,0.0,0.0,0.0,0.0,-3.2299,-3.3733,-3.5064,-3.6533,-3.8267,-3.8473,-3.8708,-3.9337,-3.9104,-3.8943,-3.9104,-3.7693,-3.6848,-3.6848,-3.4923,-3.3296,-3.2034,0.0,0.0,0.0,0.0,0.0,0.0,0.0,0.0,0.0,0.0,0.0,0.0,0.0,0.0,0.0,0.0,0.0,0.0,0.0,0.0,0.0,0.0,0.0,0.0,0.0,0.0,0.0,0.0,0.0,-2.2149,-2.3408,0.0,0.0,0.0,0.0,-2.5505,-2.4684,-2.4579,-2.5378,-2.5667,-2.6391,-2.7721,-2.8089,-2.8459,-2.8935,-2.9289,-2.93,-2.8861,-3.0652,-3.143,-3.1369,-3.2486,-3.2692,-3.2177,-3.2177,-3.1805,-3.1083,-3.0959,-3.0355,-2.946,-2.9411,-2.8947,-2.845,-2.8955,-2.8823,-2.8474,-2.9027,-2.8895,-2.8462,-2.8438,-2.8699,-2.9041,-2.8847,-2.9808,0.0,0.0,-3.1942,-3.2901,-3.317,-3.3297,-3.3396,-3.3813,-3.42,-3.4554,-3.4927,-3.5273,-3.5294,0.0,-3.3761,-3.3405,-3.3303,0.0,-3.2344,-3.2344,-3.345,-3.4367,-3.4485,-3.5606,-3.6948,-3.8302,-3.8452,-3.8706,-3.9364,-3.9192,-3.9104,-3.9104,-3.8105,-3.7521,-3.7521,-3.5525,-3.4051,-3.3383,-3.1496,0.0,0.0,0.0,0.0,0.0,0.0,0.0,0.0,0.0,0.0,0.0,0.0,0.0,0.0,0.0,0.0,0.0,0.0,0.0,0.0,0.0,0.0,0.0,0.0,0.0,0.0,0.0,0.0,-2.3838,-2.4823,0.0,-2.4689,-2.5521,-2.613,-2.6188,-2.6476,-2.703,-2.7894,-2.7542,-2.7878,-2.9178,-2.93,-2.963,-3.022,-3.066,-3.0922,-3.1108,-3.2152,-3.276,-3.2959,-3.3433,-3.3495,-3.3269,-3.2918,-3.2569,-3.2139,-3.2139,-3.1353,-3.0141,-2.9963,-2.9977,-3.0062,-3.0242,-3.041,-3.0567,-3.0759,-3.0254,-2.9494,-2.934,-2.9732,-3.0354,-3.0804,-3.1666,-3.2492,-3.2526,-3.2806,-3.3169,-3.3269,-3.3326,-3.3452,-3.4059,-3.4278,-3.4549,-3.5162,-3.5424,-3.5439,-3.5133,-3.4955,-3.4658,-3.4214,-3.3947,-3.3784,-3.3784,-3.4181,-3.4946,-3.6238,-3.6775,-3.7584,-3.8916,-3.905,-3.9155,-3.9394,-3.8403,-3.7964,-3.8337,-3.6652,-3.5988,-3.6764,-3.5674,-3.453,-3.3485,-3.2382,-3.0785,0.0,0.0,0.0,0.0,0.0,0.0,0.0,0.0,0.0,0.0,0.0,0.0,0.0,0.0,0.0,0.0,0.0,0.0,0.0,0.0,0.0,0.0,0.0,0.0,0.0,0.0,-2.4418,-2.4902,-2.5816,-2.6225,-2.5636,-2.6428,-2.7131,-2.738,-2.7836,-2.8572,-2.9523,-2.9026,-2.9269,-3.0334,-3.0609,-3.0956,-3.1466,-3.201,-3.2369,-3.265,-3.3171,-3.3702,-3.4173,-3.4173,-3.4173,-3.4161,-3.3796,-3.3458,-3.3106,-3.3106,-3.2411,-3.1329,-3.1136,-3.1194,-3.1444,-3.1625,-3.1793,-3.1889,-3.1529,-3.1186,-3.0768,-3.0398,-3.1023,-3.1973,-3.2293,-3.3007,-3.3593,-3.3382,-3.3326,-3.3326,-3.3326,-3.3326,-3.3382,-3.3937,-3.4142,-3.4332,-3.4964,-3.5228,-3.5359,-3.5439,-3.5504,-3.5355,-3.4906,-3.4816,-3.4816,-3.4816,-3.4816,-3.5295,-3.6596,-3.6971,-3.7524,-3.8631,-3.8945,-3.917,-3.9394,-3.8251,-3.7664,-3.8038,-3.6134,-3.5268,-3.5842,-3.5121,-3.4225,-3.3166,-3.2513,-3.1453,-2.9972,0.0,0.0,0.0,0.0,0.0,0.0,0.0,0.0,0.0,0.0,0.0,0.0,0.0,0.0,0.0,0.0,0.0,0.0,0.0,0.0,0.0,0.0,0.0,-2.2603,-2.4408,-2.5611,-2.5197,-2.6406,-2.7247,-2.7271,-2.736,-2.793,-2.9104,-2.8715,-2.8889,-2.9834,-3.0065,-3.056,-3.1437,-3.2125,-3.2489,-3.2489,-3.305,-3.3236,-3.32,-3.379,-3.4272,-3.466,-3.4751,-3.4751,-3.4751,-3.4738,-3.4454,-3.401,-3.401,-3.3735,-3.3236,-3.298,-3.2696,-3.2611,-3.3128,-3.2984,-3.2394,-3.1288,-3.1467,-3.2102,-3.1606,-3.2607,-3.3859,-3.3247,-3.3629,-3.414,-3.355,-3.3382,-3.3368,-3.3354,-3.3354,-3.3354,-3.3326,-3.3577,-3.3908,-3.4346,-3.4668,-3.5001,-3.5439,-3.5504,-3.5504,-3.5504,-3.5504,-3.5504,-3.5504,-3.5504,0.0,-3.5534,-3.6088,-3.6731,-3.7375,-3.8003,-3.8661,-3.9364,-3.8751,-3.8332,-3.8362,-3.6719,-3.5539,-3.506,-3.4017,-3.318,-3.2585,-3.1903,-3.1874,-3.2513,0.0,0.0,0.0,0.0,0.0,0.0,0.0,0.0,0.0,0.0,0.0,0.0,0.0,0.0,0.0,0.0,0.0,0.0,0.0,0.0,0.0,-2.3131,-2.3694,-2.3923,-2.5408,-2.6431,-2.6433,-2.7346,-2.8009,-2.8226,-2.8478,-2.8846,-2.9138,-2.9346,-2.9819,-3.0788,-3.0594,-3.0996,-3.216,-3.2053,-3.23,-3.3026,-3.2852,-3.3038,-3.3686,-3.4262,-3.4656,-3.4774,-3.5132,-3.5316,-3.5211,-3.4616,-3.426,-3.3998,-3.3814,-3.355,-3.3272,-3.322,-3.3377,-3.3633,-3.3777,-3.3741,-3.3416,-3.1949,-3.1608,-3.1871,-3.2209,-3.2607,-3.3207,-3.4306,-3.4738,-3.4871,-3.4702,-3.4646,-3.4548,-3.4098,-3.3986,-3.3874,-3.369,-3.3991,-3.4332,-3.4668,-3.5082,-3.5359,-3.5504,-3.5504,-3.5504,-3.5504,-3.5504,-3.5504,-3.5504,-3.5504,0.0,-3.6148,-3.6372,-3.6911,-3.8003,-3.8287,-3.8661,-3.9364,-3.7943,-3.7142,-3.7312,-3.4632,-3.3715,-3.5229,-3.4118,-3.3601,-3.3891,-3.2803,-3.2338,0.0,0.0,0.0,0.0,0.0,0.0,0.0,0.0,0.0,0.0,0.0,0.0,0.0,0.0,0.0,0.0,0.0,0.0,0.0,0.0,0.0,0.0,-2.4627,-2.5192,-2.5492,-2.6021,-2.6469,-2.6827,-2.7572,-2.8044,-2.8163,-2.8796,-2.916,-2.9247,-2.977,-3.0445,-3.1148,-3.1292,-3.1838,-3.2794,-3.2753,-3.2943,-3.3506,-3.3517,-3.3613,-3.3992,-3.4496,-3.4939,-3.5153,-3.5424,-3.5612,0.0,-3.5183,-3.486,-3.4487,-3.4299,-3.4123,0.0,0.0,0.0,0.0,0.0,-3.3729,-3.3561,-3.2406,-3.2519,-3.312,-3.3286,-3.3807,-3.457,-3.5376,-3.562,-3.555,-3.5296,-3.5226,-3.5142,-3.4716,-3.4436,-3.414,-3.3988,-3.3984,-3.4074,-3.4601,-3.4883,-3.5162,-3.5439,0.0,0.0,-3.5504,-3.5504,-3.5504,-3.5504,-3.5504,-3.5639,-3.6028,-3.6312,-3.6776,-3.7509,-3.7823,-3.8138,-3.8542,-3.7539,0.0,0.0,0.0,-3.4361,-3.4922,-3.4254,0.0,0.0,0.0,0.0,0.0,0.0,0.0,0.0,-3.7241,-3.7594,0.0,0.0,0.0,0.0,0.0,0.0,0.0,0.0,0.0,0.0,0.0,0.0,0.0,0.0,0.0,0.0,-2.6379,-2.6824,-2.7004,-2.6375,-2.611,-2.6761,-2.7384,-2.7662,-2.772,-2.8568,-2.9226,-2.9484,-3.0262,-3.0739,-3.1006,0.0,0.0,0.0,0.0,-3.3941,-3.404,-3.4433,-3.4433,-3.404,-3.4531,-3.5017,-3.5428,-3.5524,-3.5716,-3.592,-3.592,-3.562,-3.5223,-3.5126,-3.4993,-3.4655,-3.3789,-3.3428,-3.3368,-3.3308,-3.3248,0.0,0.0,0.0,0.0,-3.4392,-3.548,-3.6802,-3.6332,-3.6178,-3.6065,-3.5578,-3.5437,-3.5423,-3.5353,-3.4857,-3.4421,-3.4365,-3.3916,-3.3705,-3.434,-3.453,-3.4771,-3.5309,-3.5439,-3.5504,-3.5504,-3.5504,-3.5504,-3.5504,-3.5504,-3.5504,-3.5504,-3.6013,-3.6402,-3.6477,0.0,0.0,-3.7404,-3.7345,-3.7075,-3.644,-3.668,-3.6142,-3.4574,-3.4733,-3.5082,-3.5575,-3.572,-3.6881,-3.9088,-3.871,-3.9073,-4.006,-3.9135,-3.9062,0.0,0.0,0.0,0.0,0.0,0.0,0.0,0.0,0.0,0.0,0.0,0.0,0.0,0.0,0.0,-2.7227,-2.6832,-2.6569,-2.7557,-2.6531,-2.597,-2.6624,-2.7592,-2.8229,-2.8231,-2.8992,-2.9576,-2.9806,-3.049,-3.1004,-3.1319,-3.2071,0.0,-3.3307,-3.3423,-3.3668,-3.404,-3.4139,-3.4139,-3.404,0.0,0.0,-3.4628,-3.4835,-3.5223,-3.5716,-3.5416,-3.532,-3.5223,-3.4932,-3.4583,-3.421,-3.4438,-3.427,-3.3849,-3.344,-3.302,-3.2575,-3.2022,-3.2574,-3.3462,-3.4095,-3.5061,-3.6056,-3.6682,-3.681,0.0,-3.6655,-3.6627,-3.6515,-3.6023,-3.5798,-3.5588,-3.5096,-3.5091,-3.5153,-3.481,-3.5198,-3.5516,-3.5104,-3.5294,-3.5504,-3.5504,-3.5504,-3.5504,-3.5504,-3.5504,-3.5504,-3.5504,-3.5609,-3.5893,-3.6432,-3.6596,-3.6866,-3.736,-3.6941,-3.6477,-3.6043,-3.6234,-3.6038,-3.5212,-3.6649,-3.7302,-3.6939,-3.7941,-3.8434,-3.8405,-3.9842,-4.0379,-4.0089,-3.9867,-4.0576,0.0,0.0,0.0,0.0,0.0,0.0,0.0,0.0,0.0,0.0,0.0,-2.4641,-2.5598,0.0,-2.6732,-2.8214,-2.763,-2.721,-2.7855,-2.6864,-2.612,-2.6268,-2.686,-2.7436,-2.7775,-2.8607,-2.9353,-2.9852,-3.0682,-3.1217,-3.1371,-3.238,-3.3005,-3.3281,-3.3192,-3.3181,-3.3469,-3.3358,-3.3247,-3.3247,-3.3423,-3.372,-3.4237,-3.4335,-3.4738,-3.5416,-3.5223,-3.5126,-3.503,-3.4835,-3.4511,-3.4066,-3.433,-3.3958,-3.32,-3.2671,-3.231,-3.2135,-3.2198,-3.2772,-3.359,-3.4415,-3.5264,-3.6111,-3.6615,-3.6772,-3.685,-3.685,-3.6915,-3.6908,-3.6613,-3.6304,-3.5981,-3.5686,-3.5526,-3.5421,-3.5253,-3.5449,-3.5561,-3.5442,-3.5451,-3.5504,-3.5504,-3.5504,-3.5504,-3.5504,-3.5504,-3.5504,-3.5504,-3.5504,-3.5624,-3.5953,-3.5998,-3.6118,-3.6432,-3.6395,-3.6461,-3.6821,-3.6892,-3.6721,-3.6344,-3.7854,-3.8565,-3.826,-3.9175,-3.9813,-4.0147,-4.0452,-4.0916,-4.1527,-4.1204,-4.1712,0.0,0.0,0.0,0.0,0.0,0.0,0.0,-2.3431,-2.3792,-2.3877,-2.5186,-2.6558,-2.7393,-2.7736,-2.819,-2.8903,-2.8387,-2.78,-2.7626,-2.6951,-2.6289,-2.5898,-2.6218,-2.6719,-2.7368,-2.8242,-2.9071,-2.976,-3.0721,-3.1287,-3.1287,-3.2434,-3.3181,-3.3181,-3.298,-3.2779,-3.2779,-3.2555,-3.2544,-3.2544,-3.2443,-3.2946,-3.3941,-3.3732,-3.4225,-3.5126,-3.5126,-3.503,-3.4823,-3.4823,-3.4511,-3.403,-3.3933,-3.3332,-3.2442,-3.1985,-3.1757,-3.1837,-3.245,-3.3288,-3.4121,-3.4786,-3.5642,-3.6405,-3.6405,-3.6484,-3.6642,-3.6642,-3.6772,-3.6915,-3.6915,-3.655,-3.6185,-3.6185,-3.5807,-3.5475,-3.5617,-3.5483,-3.5447,-3.5609,-3.554,-3.5359,-3.5359,-3.5359,-3.5439,-3.5504,-3.5504,-3.5504,-3.5504,-3.5504,-3.5504,-3.5504,-3.5439,-3.5439,-3.5359,-3.5703,-3.631,-3.7119,-3.7111,-3.7172,-3.7288,-3.8522,-3.9262,-3.9363,-4.0104,-4.096,-4.1903,-4.0945,-4.1259,-4.2835,-4.2525,-4.2863,-2.3818,-2.2847,-2.257,-2.4813,-2.4684,-2.4563,0.0,-2.6549,-2.6272,-2.6349,-2.6818,-2.7644,-2.9196,-2.8745,-2.8479,-2.9693,-2.8797,-2.7638,-2.6775,-2.6528,-2.6351,-2.5902,-2.6499,-2.7242,-2.7906,-2.8455,-2.8981,-2.9543,-3.0499,-3.0975,-3.0685,-3.1916,-3.2544,-3.2544,-3.2555,-3.2555,-3.2555,-3.2544,-3.2544,-3.2544,-3.2229,-3.2633,-3.3645,-3.2924,-3.3423,-3.4823,-3.4823,-3.4835,-3.4823,-3.4823,-3.4511,-3.3994,-3.3549,-3.302,-3.2491,-3.243,-3.2094,-3.1837,-3.245,-3.3288,-3.4121,-3.4786,-3.5642,-3.6405,-3.6405,-3.6405,-3.6405,-3.6405,-3.647,-3.647,-3.647,-3.6429,-3.6373,-3.6373,-3.6318,-3.6111,-3.5543,-3.555,-3.5468,-3.4953,-3.4903,-3.5001,-3.5001,-3.5001,-3.5082,-3.5439,-3.5504,-3.5504,-3.5504,-3.5504,-3.5504,-3.5504,-3.5359,-3.5148,-3.5001,-3.489,-3.494,-3.5005,-3.5409,-3.6168,-3.7259,-3.8522,-3.945,-3.9987,-4.1236,-4.1657,-4.1207,-4.1657,-4.2029,-4.2242,-4.324,-4.4098,-2.2611,-2.3123,-2.3884,-2.518,-2.5762,-2.6244,-2.6916,-2.7079,-2.7042,-2.6873,-2.7551,-2.8496,-2.9528,-2.8871,-2.8359,0.0,-2.8076,-2.6951,-2.6528,-2.6046,-2.5705,-2.5469,-2.5738,-2.6528,-2.7939,-2.7955,-2.8388,-2.9429,-3.0041,-3.047,-3.0577,-3.1538,-3.2152,-3.2544,-3.2331,-3.2229,-3.2229,-3.2026,-3.1936,-3.1936,-3.1823,-3.2128,-3.2924,-3.2521,-3.3124,-3.4335,-3.4628,-3.4823,-3.4811,-3.4499,-3.4066,-3.3549,-3.3032,-3.2491,-3.201,-3.201,-3.1865,-3.1837,-3.245,-3.3288,-3.4121,-3.462,-3.5467,-3.6166,-3.6058,-3.6072,-3.6246,-3.6246,-3.6325,-3.6405,-3.6405,-3.6405,-3.6405,-3.6405,-3.6405,-3.6322,-3.606,-3.5627,-3.5303,-3.502,-3.4735,-3.4601,-3.4601,-3.4735,-3.4935,-3.5148,-3.5148,-3.5281,-3.5666,-3.5711,-3.5711,-3.5711,-3.5644,-3.5414,-3.4964,-3.5072,-3.5224,-3.5224,-3.6064,-3.6896,-3.7796,-3.9044,-4.0031,-4.067,-4.1613,-4.1989,-4.178,-4.2364,-4.2802,-4.3289,-4.4037,-4.4827,-2.242,-2.3585,-2.4751,-2.5423,-2.6458,-2.7215,-2.6922,-2.7209,-2.7356,-2.6868,-2.7748,-2.8712,-2.9182,-2.8486,-2.8082,-2.8562,-2.7317,-2.6289,-2.6351,-2.5716,-2.5229,-2.536,-2.5077,-2.5554,-2.7447,-2.7283,-2.7755,-2.9304,-2.9542,-2.9774,-3.027,-3.1074,-3.1673,-3.2029,-3.196,-3.1913,-3.1913,-3.1721,-3.1618,-3.1618,-3.1618,-3.1924,-3.2409,-3.2723,-3.3224,-3.3843,-3.4531,-3.4823,-3.4787,-3.4258,-3.3741,-3.3236,-3.2707,-3.2154,-3.1661,-3.1661,-3.1837,-3.2101,-3.2785,-3.3628,-3.4371,-3.4964,-3.5562,-3.6072,-3.5898,-3.5898,-3.5992,-3.5992,-3.6072,-3.6232,-3.6232,-3.6232,-3.6232,-3.6232,-3.6232,-3.6232,-3.6232,-3.5703,-3.5125,-3.4957,-3.4711,-3.4398,-3.4225,-3.4534,-3.4735,-3.4735,-3.4735,-3.4978,-3.5569,-3.579,-3.5893,-3.5825,-3.5987,-3.5839,-3.5125,-3.5356,-3.5477,-3.5288,-3.6212,-3.7201,-3.8159,-3.9262,-4.0321,-4.1352,-4.1845,-4.2076,-4.2204,-4.2758,-4.328,-4.3818,-4.4505,-4.5126,-2.4403,-2.4563,-2.4844,-2.6224,-2.678,-2.7094,-2.7292,-2.7377,-2.73,-2.6868,-2.7407,-2.7993,-2.813,-2.7777,-2.7485,-2.7617,-2.6642,-2.5817,-2.5913,-2.548,-2.5349,-2.5819,-2.4681,-2.4523,-2.6356,-2.6551,-2.7327,-2.9017,-2.8954,-2.9091,-2.9478,-3.0384,-3.0898,-3.0919,-3.1378,-3.1618,-3.1618,-3.1618,-3.1618,-3.1618,-3.1618,-3.1924,-3.242,-3.3434,-3.3645,-3.3247,-3.4335,-3.4823,-3.4787,-3.4258,-3.3741,-3.3236,-3.2707,-3.2154,-3.1661,-3.1661,-3.2101,-3.2797,-3.3615,-3.4371,-3.5127,-3.6058,-3.6246,-3.6086,-3.6086,-3.5898,-3.571,-3.571,-3.5723,-3.571,-3.571,-3.571,-3.571,-3.571,-3.571,-3.571,-3.571,-3.5552,-3.5245,-3.4665,-3.4618,-3.4483,-3.3939,-3.4128,-3.4414,-3.4414,-3.4414,-3.4549,-3.4898,-3.551,-3.5825,-3.5605,-3.619,-3.6237,-3.5456,-3.5427,-3.5096,-3.4486,-3.5053,-3.6257,-3.813,-3.887,-4.0118,-4.2034,-4.2092,-4.2092,-4.2063,-4.2688,-4.2981,-4.3046,-4.4419,-4.511,-2.3977,-2.5077,-2.6113,-2.7501,-2.7921,-2.8,-2.7918,-2.7679,-2.7227,-2.6801,-2.684,-2.7134,-2.7551,-2.6671,-2.6019,-2.6602,-2.5879,-2.53,-2.5393,-2.5273,-2.5055,-2.4534,-2.4251,-2.4303,-2.4625,-2.4832,0.0,-2.8172,-2.7896,-2.815,-2.9434,-2.9784,-3.01,-3.0428,-3.0898,-3.1138,-3.1138,-3.1465,-3.1618,-3.1618,-3.1618,-3.1721,-3.1913,-3.2622,-3.2823,-3.2723,-3.3831,-3.4237,-3.4264,-3.3708,-3.344,-3.32,-3.2298,-3.1829,-3.1661,-3.1661,-3.2438,-3.3386,-3.3215,-3.3615,-3.4454,-3.5209,-3.5723,-3.6086,-3.6086,-3.5898,-3.571,-3.571,-3.571,-3.571,-3.571,-3.571,-3.571,-3.571,-3.571,-3.571,-3.571,-3.5328,-3.493,-3.4726,-3.4557,-3.4298,-3.4086,-3.4622,-3.5183,-3.5604,-3.5314,-3.5107,-3.5244,-3.5799,-3.5962,-3.554,-3.5685,-3.5499,-3.4791,-3.4733,-3.482,-3.5024,-3.6054,-3.7317,-3.8797,-3.9886,-4.0916,-4.196,-4.1974,-4.2198,-4.2726,-4.3274,-4.3789,-4.4309,-4.5175,-4.5557,-2.3552,-2.4884,-2.6059,-2.7084,-2.7442,-2.7509,-2.7388,-2.7117,-2.668,-2.6204,-2.6212,-2.6371,-2.6454,-2.5561,-2.4932,-2.5457,-2.5102,-2.4881,-2.53,-2.5426,-2.5214,-2.4584,-2.4222,-2.4008,-2.3804,-2.3524,0.0,-2.7022,-2.6983,-2.7336,-2.8582,-2.9189,-2.9707,-3.0199,-3.0657,-3.0985,-3.1149,-3.1465,-3.1618,-3.1618,-3.1618,-3.1618,-3.1629,-3.2117,-3.251,-3.2723,-3.3633,-3.4139,-3.4276,-3.372,-3.3452,-3.32,-3.231,-3.1841,-3.1661,-3.1661,-3.2438,-3.33,-3.3215,-3.3882,-3.4799,-3.5386,-3.5804,-3.6086,-3.6086,-3.5898,-3.571,-3.571,-3.571,-3.571,-3.571,-3.571,-3.571,-3.571,-3.571,-3.571,-3.571,-3.5425,-3.5086,-3.4869,-3.4678,-3.452,-3.4371,-3.4982,-3.5695,-3.6243,-3.5967,-3.5619,-3.547,-3.5923,-3.6069,-3.543,-3.5561,-3.5444,-3.4806,-3.4951,-3.5256,-3.5677,-3.691,-3.8202,-3.9465,-4.0539,-4.1317,-4.1922,-4.2159,-4.2466,-4.2994,-4.3778,-4.4413,-4.4937,-4.557,-4.5896,-2.3266,-2.4127,-2.4914,-2.528,-2.556,-2.5794,-2.5898,-2.5843,-2.5644,-2.5273,-2.5429,-2.5517,-2.4891,-2.4422,-2.4119,-2.4221,-2.4334,-2.4734,-2.5514,-2.5749,-2.584,-2.5751,-2.4526,-2.3721,-2.3771,-2.2574,0.0,-2.5363,0.0,-2.6588,-2.7136,-2.8572,-2.9633,-2.9992,-3.0558,-3.1116,-3.1472,-3.1505,-3.1618,-3.1618,-3.1618,-3.1618,-3.1629,-3.2117,-3.2633,-3.3147,-3.3744,-3.4237,-3.469,-3.4162,-3.3765,-3.3272,-3.2719,-3.2178,-3.1709,-3.1673,-3.2189,-3.2884,-3.37,-3.4895,-3.6072,-3.6325,-3.6246,-3.6072,-3.6086,-3.5898,-3.571,-3.571,-3.571,-3.571,-3.571,-3.571,-3.571,-3.571,-3.571,-3.571,-3.571,-3.571,-3.5547,-3.4991,-3.5169,-3.5259,-3.4692,-3.5254,-3.5913,-3.6316,-3.6402,-3.617,-3.5503,-3.5938,-3.6083,-3.5473,-3.5952,-3.6069,-3.5459,-3.5967,-3.6315,-3.6359,-3.7549,-3.8812,-4.0046,-4.0742,-4.1383,-4.1878,-4.2644,-4.2974,-4.2955,-4.4216,-4.4781,-4.4887,-4.5703,-4.6112,-2.4681,-2.5132,-2.535,-2.6004,-2.5804,-2.5592,-2.6292,-2.5879,-2.5294,-2.5082,-2.4696,-2.4139,-2.3495,-2.2795,-2.2638,-2.3583,-2.3851,-2.4379,-2.543,-2.5412,-2.5202,-2.4764,-2.4288,-2.3642,-2.2971,-2.3123,0.0,0.0,-2.4662,-2.5556,-2.6792,-2.8041,-2.8462,-2.7673,-2.9727,-3.054,-2.9824,-3.1025,-3.1618,-3.1618,-3.1618,-3.1618,-3.1618,-3.1721,-3.1924,-3.2026,-3.3047,-3.3446,-3.361,-3.3862,-3.397,-3.3753,-3.2851,-3.2418,-3.2238,-3.1817,-3.2438,-3.3471,-3.3713,-3.4301,-3.5141,-3.5912,-3.5992,-3.5817,-3.6072,-3.5898,-3.571,-3.571,-3.571,-3.571,-3.571,-3.571,-3.571,-3.571,-3.571,-3.571,-3.571,-3.571,-3.5669,-3.552,-3.5442,-3.5551,-3.6019,-3.629,-3.6745,-3.7577,-3.7723,-3.7317,-3.6214,-3.6199,-3.6243,-3.6083,-3.6214,-3.6243,-3.6083,-3.6214,-3.6519,-3.7012,-3.8246,-3.9291,-4.006,-4.1111,-4.17,-4.1806,-4.2498,-4.3029,-4.3466,-4.4353,-4.5022,-4.5557,-4.5807,-4.5896,-2.4463,-2.4751,-2.4848,-2.5318,-2.4867,-2.4452,-2.521,-2.4876,-2.4365,-2.4391,-2.3892,-2.3362,-2.3103,-2.2315,-2.2023,-2.2914,-2.3479,-2.4045,-2.465,-2.5057,-2.4967,-2.4392,-2.4272,-2.3889,-2.2894,-2.3323,-2.3734,0.0,-2.4499,-2.5154,-2.6012,-2.7673,-2.8268,-2.7841,-2.9833,-3.0684,-3.0268,-3.117,-3.1618,-3.1618,-3.1618,-3.1618,-3.1618,-3.1618,-3.1721,-3.2026,0.0,-3.3346,-3.3621,-3.4112,-3.4246,-3.3958,-3.3164,-3.2707,-3.243,-3.222,-3.2785,-3.3713,-3.405,-3.4551,-3.5223,-3.5723,-3.5804,-3.5723,-3.5898,-3.5804,-3.571,-3.571,-3.571,-3.571,-3.571,-3.571,-3.571,-3.571,-3.571,-3.571,-3.571,-3.571,-3.571,-3.571,-3.5598,-3.5839,-3.6702,-3.6855,-3.712,-3.8069,-3.8202,-3.7941,-3.723,-3.691,-3.6635,-3.6344,-3.6301,-3.6301,-3.6301,-3.6577,-3.7143,-3.8072,-3.9059,-4.0002,-4.0945,-4.1646,-4.1937,-4.179,-4.2814,-4.3433,-4.3722,-4.4717,-4.5412,-4.5807,-4.5807,-4.5807,-2.3257,-2.3544,-2.3719,-2.38,-2.3303,-2.2973,-2.3594,-2.3393,-2.3158,-2.3432,-2.3031,-2.2642,-2.2942,-2.2175,-2.1642,-2.2253,-2.311,-2.3688,-2.376,-2.4595,-2.4967,-2.4184,-2.4363,-2.4119,-2.3212,-2.3451,-2.3802,-2.4136,-2.4695,-2.5059,-2.5167,-2.7129,-2.8523,-2.9003,-3.0157,-3.099,-3.1403,-3.1516,-3.1618,-3.1618,-3.1618,-3.1618,-3.1618,-3.1618,-3.1823,-3.2319,0.0,0.0,-3.3941,-3.4421,-3.4414,-3.3982,-3.3489,-3.2959,-3.2521,-3.266,-3.3129,-3.3797,-3.4468,-3.5127,-3.571,-3.571,-3.571,-3.571,-3.571,-3.571,-3.571,-3.571,-3.571,-3.571,-3.571,-3.571,-3.571,-3.571,-3.571,-3.571,-3.571,-3.571,-3.571,-3.571,-3.571,-3.5951,-3.6822,-3.6978,-3.7289,-3.8052,-3.8202,-3.8202,-3.8202,-3.7738,-3.7201,-3.662,-3.6562,-3.6562,-3.6562,-3.7099,-3.7897,-3.9,-3.9639,-4.0539,-4.1773,-4.1913,-4.1922,-4.179,-4.3153,-4.3802,-4.3722,-4.5128,-4.5807,-4.5807,-4.5807,-4.5807,-2.2263,-2.2248,-2.2221,-2.2249,-2.2216,-2.2372,-2.3203,-2.254,-2.193,-2.2764,-2.1927,-2.0961,-2.0788,-2.0517,-2.0588,-2.1396,-2.2318,-2.3265,-2.4142,-2.4254,-2.4135,-2.4085,-2.3666,-2.3315,-2.3117,-2.3468,0.0,0.0,0.0,-2.426,-2.4801,-2.6109,-2.7302,-2.8318,-2.9485,-3.0161,-3.0245,-3.1094,-3.1618,-3.1618,-3.1618,-3.1618,-3.1618,-3.1618,-3.1618,-3.1721,0.0,0.0,-3.3346,-3.3709,-3.3906,-3.3982,-3.3489,-3.2959,-3.2521,-3.266,-3.3129,-3.3797,-3.4468,-3.5127,-3.571,-3.571,-3.571,-3.571,-3.571,-3.571,-3.571,-3.571,-3.571,-3.571,-3.571,-3.571,-3.571,-3.571,-3.571,-3.571,-3.571,-3.571,-3.571,-3.571,-3.571,-3.5951,-3.6822,-3.6978,-3.7289,-3.8052,-3.8202,-3.8202,-3.8202,-3.8115,-3.7999,-3.7883,-3.7883,-3.7883,-3.7883,-3.7984,-3.8144,-3.8362,-3.8986,-3.9683,-4.0423,-4.0925,-4.135,-4.1775,-4.3146,-4.378,-4.3722,-4.5128,-4.5807,-4.5807,-4.5807,-4.5807,-2.1312,-2.1522,-2.1714,-2.1657,-2.1784,-2.191,-2.1979,-2.1519,-2.1238,-2.1761,-2.1026,-2.0427,-2.0854,-2.0425,-2.0225,-2.0807,-2.1437,-2.195,-2.2438,-2.2653,-2.2896,-2.3028,-2.3054,-2.3117,-2.3117,-2.346,-2.3682,-2.3682,0.0,-2.3828,-2.4196,-2.546,-2.7053,-2.8729,-2.9485,-3.013,-3.0774,-3.1311,-3.1618,-3.1618,-3.1424,-3.1424,-3.1424,-3.123,-3.123,-3.123,-3.1618,0.0,-3.2409,-3.2925,-3.3258,-3.3362,-3.299,-3.2719,-3.2521,-3.266,-3.294,-3.3348,-3.4022,-3.4487,-3.4787,-3.4787,-3.5221,-3.571,-3.571,-3.571,-3.571,-3.571,-3.571,-3.571,-3.571,-3.571,-3.571,-3.571,-3.571,-3.571,-3.571,-3.571,-3.571,-3.571,-3.571,-3.5884,-3.6615,-3.6836,-3.7211,-3.7839,-3.8066,-3.8202,-3.8202,-3.8202,-3.8202,-3.8202,-3.8202,-3.8202,-3.8202,-3.8202,-3.8347,-3.8696,-3.903,-3.9605,-4.0654,-4.0914,-4.1355,-4.2027,-4.3293,-4.3944,-4.386,-4.5128,-4.5807,-4.5807,-4.5807,-4.5807,-2.0153,-2.0599,-2.1037,-2.1004,-2.1282,-2.1343,-2.0782,-2.0515,-2.0435,-2.0599,-2.0096,-1.9876,-2.0818,-2.0213,-1.9737,-2.0224,-2.0416,-2.0493,-2.0657,-2.1356,-2.1875,-2.1999,-2.2586,-2.2989,-2.2989,-2.3254,0.0,-2.3425,0.0,0.0,-2.3657,-2.5101,-2.6617,-2.8154,-2.892,-2.9735,-3.0476,-3.0794,-3.1051,-3.1364,-3.0971,-3.088,-3.1079,-3.0675,-3.054,-3.054,-3.1025,0.0,0.0,-3.2188,-3.2453,-3.2369,-3.2349,-3.225,-3.2171,-3.2475,-3.2634,-3.2911,-3.3539,-3.3858,-3.3869,-3.3869,-3.457,-3.533,-3.533,-3.533,-3.533,-3.533,-3.533,-3.533,-3.533,-3.533,-3.533,-3.533,-3.533,-3.5371,-3.5506,-3.5533,-3.5533,-3.5533,-3.5533,-3.5653,-3.594,-3.6401,-3.6796,-3.7181,-3.7638,-3.7907,-3.8037,-3.8011,-3.8057,-3.8188,-3.8202,-3.8202,-3.8202,-3.8202,-3.842,-3.8957,-3.9124,-3.9768,-4.0965,-4.1145,-4.1538,-4.216,-4.3325,-4.3867,-4.3775,-4.4819,-4.5365,-4.5349,-4.5365,-4.5444,-1.8616,-1.8864,-1.9305,-1.968,-2.0129,-2.0475,-2.0319,-1.9711,-1.9219,-1.9447,-1.876,-1.8364,-1.9057,-1.8613,-1.8517,-1.9471,-1.9276,-1.9371,-2.0535,-2.1257,-2.1679,-2.1999,-2.2355,-2.2696,-2.2696,-2.273,-2.2748,-2.2748,0.0,0.0,-2.3631,-2.4841,-2.5068,-2.4228,-2.6219,-2.7275,-2.707,-2.8097,-2.9321,-3.0572,-2.9963,-2.9985,-3.0561,-2.9953,-2.9671,-2.9593,0.0,0.0,0.0,-3.1316,-3.1365,-3.0866,-3.1502,-3.1444,-3.1124,-3.1795,-3.2363,-3.2929,-3.3645,-3.391,-3.3869,-3.3869,-3.395,-3.4032,-3.4032,-3.4032,-3.4032,-3.4032,-3.4032,-3.4032,-3.4032,-3.4032,-3.4032,-3.4032,-3.4032,-3.418,-3.4787,-3.4909,-3.4909,-3.4909,-3.4909,-3.4903,-3.4817,-3.5252,-3.5767,-3.615,-3.6618,-3.7057,-3.7539,-3.7515,-3.7593,-3.8144,-3.8202,-3.8202,-3.8202,-3.8202,-3.8231,-3.8289,-3.8914,-3.9651,-4.0323,-4.0997,-4.1666,-4.2213,-4.2825,-4.3043,-4.3011,-4.3601,-4.3895,-4.388,-4.3895,-4.4243,-1.8495,-1.9089,-1.9683,-1.9787,-2.0091,-2.0237,-1.9478,-1.8992,-1.8631,-1.8419,-1.8232,-1.8155,-1.8206,-1.8121,-1.8045,-1.8248,-1.7995,-1.8108,-1.9115,-1.9487,-2.0099,-2.0992,-2.1442,-2.1948,0.0,0.0,-2.2115,0.0,0.0,0.0,-2.2646,-2.3495,-2.4145,-2.4333,-2.5899,-2.7055,-2.7663,-2.8597,-2.931,-2.9899,-2.9399,-2.9299,-2.9568,-2.92,-2.877,-2.8519,0.0,0.0,0.0,-2.9026,-2.9298,-2.9488,-3.029,-3.07,-3.1051,-3.2087,-3.2625,-3.2834,-3.3159,-3.3382,-3.3363,-3.2996,-3.2888,-3.301,-3.3653,-3.3869,-3.3869,-3.3869,-3.3869,-3.3869,-3.3869,-3.3869,-3.3869,-3.3869,-3.3869,-3.3937,-3.418,-3.4221,-3.4221,-3.4221,-3.4221,-3.4217,-3.4216,-3.4596,-3.4976,-3.5127,-3.6038,-3.6828,-3.6996,-3.7529,-3.7929,-3.8207,-3.8178,-3.8202,-3.8202,-3.8202,-3.8202,-3.8202,-3.8486,-3.9106,-4.0172,-4.0527,-4.1155,-4.21,-4.2663,-4.2952,-4.29,-4.3443,-4.3722,-4.3706,-4.3722,-4.3864,-1.8278,-1.8935,-1.9538,-1.966,-1.9784,-1.9604,-1.8917,-1.8585,-1.8338,-1.7937,-1.793,-1.7968,-1.7626,-1.7456,-1.7348,-1.7463,-1.7044,-1.7054,-1.8112,-1.8418,-1.896,-2.0105,-2.0649,-2.1298,-2.2221,-2.215,-2.1833,0.0,0.0,0.0,0.0,-2.2321,-2.3103,-2.4125,-2.5016,-2.6069,-2.7381,-2.7996,-2.868,-2.933,-2.8866,-2.8596,-2.8684,-2.8265,-2.7759,-2.7324,0.0,0.0,0.0,-2.7899,-2.825,-2.8533,-2.9653,-3.0347,-3.0903,-3.1969,-3.2559,-3.2821,-3.2883,-3.2997,-3.2969,-3.2372,-3.2182,-3.2331,-3.3173,-3.343,-3.343,-3.343,-3.343,-3.343,-3.343,-3.343,-3.343,-3.343,-3.343,-3.3471,-3.3647,-3.3688,-3.3688,-3.3688,-3.3688,-3.3634,-3.3457,-3.3793,-3.4142,-3.4142,-3.5074,-3.5914,-3.6297,-3.6868,-3.7519,-3.8032,-3.8075,-3.8115,-3.8414,-3.8472,-3.8561,-3.8767,-3.8972,-3.9535,-4.0531,-4.0805,-4.1358,-4.2238,-4.2605,-4.273,-4.273,-4.3055,-4.3174,-4.3174,-4.3105,-4.3216,-1.7635,-1.7911,-1.8221,-1.9113,-1.8863,-1.8522,-1.8916,-1.8623,-1.8228,-1.7951,-1.7767,-1.7556,-1.7212,-1.6401,-1.6163,-1.7314,-1.6522,-1.6283,-1.8037,-1.8547,-1.8954,-1.9513,-2.0309,-2.0906,-2.1576,-2.1807,0.0,0.0,0.0,0.0,0.0,-2.1422,-2.1773,-2.2627,-2.2662,-2.3546,-2.5304,-2.5304,-2.659,-2.9117,-2.8063,-2.7747,-2.8113,-2.7076,-2.633,0.0,0.0,0.0,0.0,-2.8525,-2.87,-2.7766,-2.9776,-3.0521,-3.0635,-3.1422,-3.2204,-3.2838,-3.3001,-3.3064,-3.2969,-3.2372,-3.2182,-3.2182,-3.2196,-3.2196,-3.2196,-3.2196,-3.2196,-3.2196,-3.2196,-3.2196,-3.2196,-3.2196,-3.2196,-3.2359,-3.2942,-3.3152,-3.3152,-3.3152,-3.3152,-3.2888,-3.2291,-3.2684,-3.3152,-3.3152,-3.3408,-3.4071,-3.5363,-3.5292,-3.5751,-3.7391,-3.761,-3.8001,-3.9017,-3.9093,-3.9383,-4.017,-4.0873,-4.1327,-4.1459,-4.2222,-4.2571,-4.2571,-4.2445,-4.2397,-4.2397,-4.2109,-4.193,-4.193,-4.1686,-4.1999,-1.5957,-1.6266,-1.6588,-1.7162,-1.6994,-1.662,-1.6472,-1.6726,-1.6657,-1.5761,-1.6498,-1.693,-1.5748,-1.5653,-1.6024,-1.6748,-1.6353,-1.6324,-1.7274,-1.8001,-1.86,-1.9175,-2.0881,-2.1841,0.0,0.0,0.0,0.0,0.0,0.0,0.0,-2.1276,-2.1516,-2.1756,-2.2347,-2.3331,-2.4833,-2.5435,-2.6615,-2.8316,-2.8072,-2.7904,-2.7987,-2.7252,0.0,0.0,0.0,0.0,0.0,-2.6277,-2.7017,-2.7668,-2.8722,-2.9666,-3.0664,-3.1851,-3.2525,-3.2882,-3.3082,-3.3139,-3.2969,-3.2372,-3.2182,-3.2182,-3.2182,-3.2109,-3.1963,-3.1963,-3.2109,-3.2182,-3.2182,-3.2182,-3.2182,-3.2182,-3.2182,-3.2223,-3.2413,-3.2453,-3.2453,-3.2453,-3.2453,-3.2399,-3.2209,-3.2331,-3.2453,-3.2453,-3.3161,-3.3781,-3.4242,-3.5012,-3.5769,-3.6326,-3.6637,-3.7249,-3.8354,-3.8892,-3.9212,-3.9436,-3.9975,-4.0531,-4.0972,-4.1256,-4.1522,-4.1916,-4.2012,-4.2012,-4.1851,-4.1882,-4.1833,-4.167,-4.1654,-4.1715,-1.452,-1.4992,-1.5305,-1.6002,-1.5778,-1.5399,-1.5399,-1.5696,-1.5813,-1.5278,-1.5971,-1.631,-1.5351,-1.5446,-1.5748,-1.588,-1.596,-1.6036,-1.6391,-1.7163,-1.8081,-1.8949,-2.0823,0.0,0.0,0.0,0.0,0.0,0.0,0.0,0.0,-2.0865,-2.0985,-2.0985,-2.1733,-2.2749,-2.4013,-2.4785,-2.5858,-2.7085,-2.7281,-2.7384,-2.7477,-2.6915,0.0,0.0,0.0,0.0,0.0,-2.5413,-2.6256,-2.7326,-2.8098,-2.924,-3.0616,-3.1692,-3.2375,-3.2947,-3.3028,-3.3139,-3.2969,-3.2372,-3.2182,-3.2182,-3.2109,-3.2036,-3.2036,-3.2036,-3.2109,-3.2182,-3.2182,-3.2182,-3.2182,-3.2182,-3.2182,-3.2182,-3.2182,-3.2182,-3.2182,-3.2182,-3.2182,-3.2182,-3.2182,-3.2182,-3.2182,-3.2182,-3.2714,-3.3248,-3.3468,-3.4269,-3.5008,-3.5578,-3.5857,-3.6453,-3.7594,-3.8546,-3.9282,-3.9818,-4.0339,-4.0836,-4.1256,-4.139,-4.1588,-4.1916,-4.2061,-4.2061,-4.198,-4.1996,-4.1882,-4.1736,-4.1654,-4.1588,0.0,-1.382,-1.4209,-1.5187,-1.492,-1.4613,-1.5152,-1.5296,0.0,-1.5957,-1.5885,-1.5692,-1.5655,-1.5437,-1.5284,-1.4995,-1.5257,-1.545,-1.5469,-1.6199,-1.7384,0.0,-2.0239,0.0,-1.9946,0.0,0.0,0.0,0.0,0.0,0.0,-2.0292,-2.0292,-2.0292,-2.0968,-2.1803,-2.2944,-2.368,-2.452,-2.5573,-2.6066,-2.6457,-2.6647,-2.6124,0.0,0.0,0.0,0.0,0.0,-2.5721,-2.6344,-2.6715,-2.7796,-2.8978,-3.0185,-3.0846,-3.1726,-3.2631,-3.2866,-3.2901,-3.2779,-3.2223,-3.2046,-3.206,-3.1896,-3.1996,-3.2182,-3.2182,-3.2182,-3.2182,-3.2182,-3.2182,-3.2182,-3.2182,-3.2182,-3.2182,-3.2182,-3.2182,-3.2182,-3.2182,-3.2182,-3.2182,-3.2182,-3.2182,-3.2182,-3.2182,-3.2182,-3.2372,-3.2928,-3.3071,-3.3707,-3.5133,-3.535,-3.5784,-3.6704,-3.8121,-3.9518,-4.0785,-4.1389,-4.1804,-4.1901,-4.2093,-4.2252,-4.2301,-4.2476,-4.2571,-4.2571,-4.2238,-4.1996,-4.1898,-4.167,-4.1588,-0.9843,0.0,-1.1488,-1.1989,-1.2003,-1.1951,0.0,-1.3421,-1.4114,-1.3454,-1.4277,-1.4888,-1.4074,-1.3826,-1.3993,-1.4636,-1.502,-1.5105,-1.4872,-1.5825,-1.7044,-1.8461,-1.9757,-2.0262,0.0,0.0,0.0,0.0,0.0,0.0,0.0,-2.0292,-2.0292,-2.0292,-2.0463,-2.1239,-2.2529,-2.3262,-2.4244,-2.5573,-2.6256,-2.6647,-2.6636,-2.5988,0.0,0.0,0.0,0.0,-2.5078,-2.5181,-2.567,-2.6357,-2.6451,-2.7238,-2.8398,-2.8862,-2.9462,-3.029,-3.12,-3.1097,-3.0636,-3.0629,-3.0589,-3.067,-3.1284,-3.1816,-3.2182,-3.2036,-3.2109,-3.2182,-3.2182,-3.2182,-3.2182,-3.2182,-3.2182,-3.2182,-3.2182,-3.2182,-3.2182,-3.2182,-3.2182,-3.2182,-3.2182,-3.2182,-3.2182,-3.2182,-3.2182,-3.2223,-3.2359,-3.301,-3.3621,-3.3974,-3.4614,-3.5429,-3.6398,-3.7667,-3.8539,-3.8824,-3.9659,-4.0056,-4.0119,-4.0182,-4.0499,-4.1167,-4.1741,-4.2141,-4.2238,-4.1851,-4.172,-4.167,-4.1588,-4.1588,-0.8021,-0.8803,-0.9758,-1.0358,-1.0528,-1.0678,-1.116,-1.2258,-1.2923,-1.2501,-1.3236,-1.3842,-1.336,-1.3536,-1.381,-1.4102,-1.4443,-1.4615,-1.4622,-1.5623,-1.6781,-1.7801,-1.8839,-1.9471,0.0,0.0,0.0,0.0,0.0,0.0,0.0,-2.0292,-2.0292,-2.0292,-2.0292,-2.0659,-2.1399,-2.2475,-2.3386,-2.4148,-2.5176,-2.5841,-2.6218,-2.569,0.0,0.0,0.0,0.0,-2.4748,-2.4476,-2.4819,-2.5496,-2.5306,-2.6131,-2.7441,-2.7808,-2.8484,-2.9416,-3.0241,-3.0392,-3.0294,-3.0351,-3.0552,-3.0864,-3.106,-3.1375,-3.1685,-3.1955,-3.1906,-3.1829,-3.2114,-3.2182,-3.2182,-3.2182,-3.2182,-3.2182,-3.2182,-3.2182,-3.2182,-3.2182,-3.2182,-3.2182,-3.2182,-3.2182,-3.2182,-3.2182,-3.2182,-3.2314,-3.2516,-3.3002,-3.3534,-3.4016,-3.4491,-3.5088,-3.5894,-3.6755,-3.7548,-3.8354,-3.9125,-3.9503,-3.9503,-3.9581,-3.9896,-4.0465,-4.0864,-4.1134,-4.1165,-4.1279,-4.1374,-4.1389,-4.1658,-4.1752,-0.6881,-0.7477,-0.8355,-0.9419,-0.9777,-0.995,-1.0694,-1.137,-1.1854,-1.2013,-1.2456,-1.2912,-1.3058,-1.3542,-1.3783,-1.3471,-1.3626,-1.4018,-1.4475,-1.5391,-1.6268,-1.6936,-1.7844,0.0,0.0,0.0,0.0,0.0,0.0,0.0,0.0,-2.0292,-2.0292,-2.0292,-2.0292,-2.0292,-2.0292,-2.1606,-2.2306,-2.2394,-2.3734,-2.4736,-2.5459,-2.5207,-2.5207,0.0,0.0,0.0,-2.4206,-2.3927,-2.3974,-2.4315,-2.4333,-2.5274,-2.6632,-2.7001,-2.7849,-2.8846,-2.9359,-2.9993,-3.0557,-3.0485,-3.0831,-3.1236,-3.0887,-3.0744,-3.0855,-3.1591,-3.1473,-3.126,-3.1775,-3.1825,-3.1839,-3.1839,-3.1893,-3.2033,-3.2033,-3.2114,-3.2182,-3.2182,-3.2182,-3.2182,-3.2182,-3.2182,-3.2255,-3.2314,-3.2314,-3.2516,-3.3058,-3.3185,-3.3659,-3.4528,-3.4728,-3.5023,-3.5619,-3.5973,-3.6816,-3.8375,-3.8855,-3.9124,-3.9187,-3.9515,-3.9718,-3.9902,-3.9998,-4.0062,-4.0062,-4.0559,-4.0847,-4.0863,-4.1342,-4.1628,-0.5264,-0.5702,-0.645,-0.8067,-0.8631,-0.8841,-0.9207,-1.009,-1.0857,-1.0621,-1.1564,-1.2376,-1.2122,-1.2581,-1.294,-1.2857,-1.2875,-1.3231,0.0,0.0,-1.4897,-1.567,0.0,0.0,0.0,0.0,0.0,0.0,0.0,0.0,0.0,0.0,-2.0292,-2.0292,-2.0292,-2.0292,-2.0292,-2.1087,-2.1882,-2.2394,-2.3222,-2.3967,-2.4643,-2.4643,-2.4643,0.0,0.0,-2.444,-2.4206,-2.3927,-2.3707,-2.365,-2.3774,-2.4156,-2.4711,-2.536,-2.5961,-2.6557,-2.771,-2.8825,-2.9746,-2.9676,-2.9742,-2.9879,-2.9927,-2.9624,-2.9345,-3.007,-3.0234,-3.0319,-3.0414,-3.0371,-3.0231,-3.0231,-3.0747,-3.1182,-3.1182,-3.173,-3.2182,-3.2182,-3.2182,-3.2182,-3.2182,-3.2182,-3.2386,-3.2789,-3.2846,-3.3058,-3.3589,-3.4192,-3.4677,-3.481,-3.5429,-3.5973,-3.6304,-3.6631,-3.6952,-3.7395,-3.7416,-3.7494,-3.7796,-3.8547,-3.8985,-3.8985,-3.9575,-3.9877,-3.9877,-3.9754,-3.9723,-3.9723,-3.9834,-4.0277,-0.4512,-0.4908,-0.5577,-0.6467,-0.7385,-0.8285,-0.9148,-0.9735,-1.003,-1.0169,-1.0625,-1.0925,-1.0844,-1.1405,-1.2114,-1.2595,-1.2831,-1.3203,-1.3994,-1.4229,-1.4617,0.0,0.0,0.0,0.0,0.0,0.0,0.0,0.0,0.0,0.0,0.0,-2.0292,-2.0292,-2.0292,-2.0292,-2.0292,-2.0645,-2.1347,-2.2394,-2.3135,-2.3851,-2.454,-2.454,-2.454,-2.4454,0.0,-2.4196,-2.3937,-2.3754,-2.3493,-2.328,-2.3581,-2.3935,-2.4379,-2.5488,-2.628,-2.682,-2.7417,-2.8226,-2.893,-2.893,-2.9153,-2.9363,-2.9244,-2.9035,-2.8809,-2.8892,-2.9173,-2.9562,-2.9939,-2.995,-2.9894,-2.9894,-3.0164,-3.0422,-3.0422,-3.072,-3.0993,-3.0993,-3.0993,-3.1087,-3.1483,-3.1537,-3.1847,-3.2861,-3.3044,-3.3437,-3.4259,-3.4728,-3.5139,-3.5429,-3.5767,-3.6037,-3.6241,-3.6336,-3.6693,-3.7449,-3.7345,-3.7361,-3.748,-3.79,-3.8074,-3.8074,-3.8391,-3.855,-3.855,-3.8914,-3.9089,-3.9104,-3.9469,-3.9896,-0.3554,-0.4041,-0.4666,-0.499,-0.6173,-0.7558,-0.8884,-0.9087,-0.9213,-0.9858,-1.004,-1.008,-1.0015,-1.08,-1.1663,-1.2492,-1.279,-1.3203,-1.3746,-1.3956,-1.443,0.0,0.0,0.0,0.0,0.0,0.0,0.0,0.0,0.0,0.0,0.0,-2.0198,-2.0292,-2.0206,-2.0206,-2.0292,-2.0473,-2.1168,-2.2394,-2.295,-2.3667,-2.454,-2.454,-2.454,-2.4454,-2.4378,-2.411,-2.3841,-2.3764,-2.3434,-2.3122,-2.368,-2.4186,-2.4732,-2.5932,-2.6837,-2.7416,-2.7546,-2.7939,-2.8399,-2.8543,-2.8895,-2.924,-2.8789,-2.8618,-2.8567,-2.8107,-2.8266,-2.8771,-2.9291,-2.9398,-2.9329,-2.9411,-2.9573,-2.968,-2.9749,-2.987,-3.0033,-2.9963,-2.995,-3.0097,-3.061,-3.0761,-3.1121,-3.2277,-3.2667,-3.3203,-3.4222,-3.4614,-3.5011,-3.5715,-3.5793,-3.5932,-3.6211,-3.6163,-3.6585,-3.7508,-3.7285,-3.7225,-3.7361,-3.7361,-3.7421,-3.748,-3.748,-3.748,-3.748,-3.8197,-3.8527,-3.8527,-3.9007,-3.934,-0.1968,-0.2396,-0.3115,-0.4015,-0.4905,-0.5907,-0.7108,-0.7683,-0.8295,-0.937,-1.0152,-1.0661,-1.0467,-1.1128,-1.1804,-1.2276,-1.2516,-1.2911,-1.3448,0.0,0.0,0.0,0.0,0.0,0.0,0.0,0.0,0.0,0.0,0.0,0.0,0.0,0.0,-2.0283,-1.9966,-1.9949,-2.0292,-2.1006,-2.1704,-2.2394,-2.2482,-2.3202,-2.454,-2.454,-2.454,-2.454,-2.4454,-2.4368,-2.4206,-2.4206,-2.3619,-2.3028,-2.4111,-2.5043,-2.5856,-2.6245,-2.6701,-2.7117,-2.7644,-2.8058,-2.8464,-2.9039,-2.9248,-2.917,-2.8638,-2.8454,-2.8337,-2.7693,-2.7562,-2.7668,-2.7894,-2.7774,-2.7721,-2.7908,-2.8532,-2.9079,-2.9215,-2.9862,-3.0336,-3.0089,-3.0089,-3.0033,-3.0003,-2.9947,-3.0169,-3.0761,-3.1408,-3.2054,-3.262,-3.3372,-3.4197,-3.4987,-3.5156,-3.5723,-3.6815,-3.6739,-3.6831,-3.7194,-3.6523,-3.6367,-3.6999,-3.7015,-3.7181,-3.748,-3.748,-3.748,-3.748,-3.7587,-3.7619,-3.7619,-3.7666,-3.809,-0.2201,-0.2206,-0.2482,-0.2982,-0.3373,-0.4227,-0.6541,-0.7397,-0.7876,-0.8567,-0.9196,-0.9656,-0.9897,-1.0133,-1.0671,-1.1767,-1.1967,-1.2451,-1.333,0.0,0.0,0.0,0.0,0.0,0.0,0.0,0.0,0.0,0.0,0.0,0.0,0.0,0.0,-1.9335,-1.9104,-1.9008,-1.9142,-1.9493,-1.9913,-2.0685,-2.2341,-2.357,-2.454,-2.454,-2.454,-2.454,-2.454,-2.4378,-2.4176,-2.39,-2.3517,-2.3126,-2.3885,-2.4849,-2.591,-2.6037,-2.6508,-2.6998,-2.7216,-2.7566,-2.7889,-2.8124,-2.819,-2.815,-2.7915,-2.785,-2.7798,-2.7589,-2.7523,-2.7523,-2.759,-2.759,-2.7523,-2.759,-2.796,-2.8252,-2.8319,-2.8891,-2.937,-2.9304,-2.9539,-2.9845,-3.0311,-3.038,-3.0769,-3.1752,-3.2248,-3.263,-3.3223,-3.3683,-3.4031,-3.4334,-3.441,-3.4866,-3.5784,-3.5723,-3.5891,-3.643,-3.6461,-3.6538,-3.68,-3.6739,-3.6877,-3.7181,-3.6984,-3.7105,-3.748,-3.7301,-3.7301,-3.748,-3.748,-3.7682,-0.1924,-0.1855,-0.192,-0.2338,-0.2616,-0.3423,-0.5646,-0.6514,-0.7221,-0.8147,-0.8683,-0.9067,-0.9448,-0.9571,-0.9864,0.0,-1.1289,-1.1727,0.0,0.0,0.0,0.0,0.0,0.0,0.0,0.0,0.0,0.0,0.0,0.0,0.0,0.0,0.0,0.0,-1.846,-1.8357,-1.8473,-1.8724,-1.923,-1.9978,-2.2006,-2.3318,-2.3876,-2.3998,-2.4188,-2.4322,-2.4178,-2.4031,-2.3842,-2.3524,-2.3474,-2.3583,-2.4018,-2.4891,-2.591,-2.6037,-2.6371,-2.6837,-2.6837,-2.6973,-2.7175,-2.7175,-2.7255,-2.7323,-2.7323,-2.739,-2.7523,-2.7523,-2.7523,-2.7523,-2.7523,-2.7523,-2.7523,-2.759,-2.7723,-2.7855,-2.7855,-2.8249,-2.856,-2.856,-2.8789,-2.9218,-2.9981,-3.0051,-3.0397,-3.1521,-3.1955,-3.2279,-3.269,-3.3051,-3.332,-3.3591,-3.3863,-3.4227,-3.479,-3.4729,-3.4865,-3.5321,-3.586,-3.6307,-3.6523,-3.6414,-3.6492,-3.6877,-3.6739,-3.6862,-3.7361,-3.7241,-3.7301,-3.748,-3.748,-3.748,-0.0896,-0.0942,-0.1286,-0.2079,-0.2873,-0.3577,-0.426,-0.4921,-0.6074,-0.8362,-0.8956,-0.9153,-0.9319,-0.9462,0.0,-0.9858,-1.025,0.0,0.0,0.0,0.0,0.0,0.0,0.0,0.0,0.0,0.0,0.0,0.0,0.0,0.0,0.0,0.0,0.0,-1.8135,-1.8118,-1.8456,-1.9221,-1.996,-2.0782,-2.1486,-2.2134,-2.2601,-2.3033,-2.3432,-2.3846,-2.3381,-2.3184,-2.3184,-2.3184,-2.362,-2.4287,-2.4557,-2.5158,-2.5898,-2.6289,-2.6414,-2.6414,-2.6414,-2.6414,-2.6414,-2.6414,-2.6701,-2.6973,-2.6973,-2.7255,-2.7523,-2.7523,-2.7523,-2.7523,-2.7523,-2.7523,-2.7523,-2.7789,-2.7776,-2.7855,-2.8079,-2.8079,-2.8079,-2.8079,-2.7934,-2.8039,-2.8675,-2.8675,-2.8725,-2.938,-3.0072,-3.0524,-3.0524,-3.1087,-3.1852,-3.2704,-3.3516,-3.397,-3.397,-3.3985,-3.3985,-3.3985,-3.4607,-3.5322,-3.6165,-3.6085,-3.6226,-3.6723,-3.6877,-3.7015,-3.6999,-3.7361,-3.7464,-3.7464,-3.7464,-3.748,-0.1415,-0.1159,-0.1164,-0.1591,-0.2426,-0.3184,-0.3857,-0.5034,-0.6273,-0.7321,-0.8084,-0.8497,-0.8199,-0.877,0.0,-0.9637,0.0,0.0,0.0,0.0,0.0,0.0,0.0,0.0,0.0,0.0,0.0,0.0,0.0,0.0,0.0,0.0,0.0,0.0,-1.7276,-1.7111,-1.7207,-1.7448,-1.7697,-1.7928,-1.938,-2.1138,-2.3023,-2.2824,-2.2956,-2.337,-2.2904,-2.2884,-2.3244,-2.3298,-2.3503,-2.388,-2.4357,-2.4945,-2.5453,-2.5594,-2.5804,-2.6037,-2.6037,-2.6233,-2.6414,-2.6756,-2.6905,-2.704,-2.7255,-2.739,-2.7523,-2.7523,-2.7523,-2.7523,-2.7523,-2.7523,-2.7523,-2.759,-2.7723,-2.7855,-2.7855,-2.8235,-2.8624,-2.8624,-2.8776,-2.9079,-2.9421,-2.9435,-2.9608,-3.0329,-3.0584,-3.0837,-3.1161,-3.1409,-3.1614,-3.1867,-3.212,-3.2479,-3.3079,-3.3184,-3.338,-3.3849,-3.4076,-3.4531,-3.5292,-3.5793,-3.6163,-3.6554,-3.6367,-3.6245,-3.61,-3.6747,-3.6927,-3.6589,-3.6764,-3.7208,-0.2027,-0.1939,-0.2071,-0.2382,-0.3107,-0.399,-0.4593,-0.5563,-0.6435,-0.6565,-0.7267,-0.7685,-0.7689,-0.8121,0.0,-0.9121,0.0,0.0,0.0,0.0,0.0,0.0,0.0,0.0,0.0,0.0,0.0,0.0,0.0,0.0,0.0,0.0,0.0,0.0,-1.6648,-1.673,-1.673,-1.673,-1.6894,-1.7212,-1.8318,-1.993,-2.198,-2.2033,-2.2323,-2.2654,-2.2272,-2.2206,-2.2366,-2.3177,-2.35,-2.3666,-2.4527,-2.5016,-2.5312,-2.5312,-2.5453,-2.5676,-2.5676,-2.5804,-2.6,-2.6427,-2.6633,-2.6837,-2.7175,-2.739,-2.7523,-2.7523,-2.7523,-2.7523,-2.7523,-2.7523,-2.7523,-2.7523,-2.759,-2.7789,-2.8039,-2.8417,-2.8803,-2.9107,-2.9331,-2.9642,-3.0101,-3.0115,-3.0297,-3.097,-3.1087,-3.1161,-3.1467,-3.1482,-3.1482,-3.1482,-3.1482,-3.1689,-3.2225,-3.2255,-3.2435,-3.2885,-3.3231,-3.3608,-3.4122,-3.4711,-3.5122,-3.5447,-3.5246,-3.5202,-3.5236,-3.5833,-3.6084,-3.5979,-3.6093,-3.6388,-0.2605,-0.2913,-0.3428,-0.3761,-0.4575,-0.5355,-0.5926,-0.6283,-0.6455,-0.61,-0.6366,-0.6828,-0.7458,-0.752,-0.7775,0.0,0.0,0.0,0.0,0.0,0.0,0.0,0.0,0.0,0.0,0.0,0.0,0.0,0.0,0.0,0.0,0.0,0.0,0.0,-1.6226,-1.6635,-1.6635,-1.6635,-1.7033,0.0,-1.7929,-1.8665,-2.0022,-2.0894,-2.1521,-2.1738,-2.1588,-2.1288,-2.109,-2.2772,-2.3559,-2.3655,-2.4755,-2.5264,-2.5312,-2.5312,-2.5312,-2.5312,-2.5312,-2.5312,-2.5382,-2.5758,-2.6094,-2.6496,-2.6905,-2.7242,-2.7523,-2.7523,-2.7523,-2.7523,-2.7523,-2.7523,-2.7523,-2.7523,-2.7523,-2.7656,-2.8287,-2.8481,-2.8739,-2.956,-2.9594,-2.9766,-3.0584,-3.0584,-3.0644,-3.1351,-3.1467,-3.1482,-3.1482,-3.1482,-3.1482,-3.1482,-3.1482,-3.1482,-3.1482,-3.1482,-3.1482,-3.1482,-3.2225,-3.2688,-3.2688,-3.3246,-3.3622,-3.3819,-3.3925,-3.4118,-3.4423,-3.4732,-3.5049,-3.5379,-3.5284,-3.5331,-0.2546,-0.2578,-0.311,-0.3428,-0.4353,-0.5417,-0.6065,-0.5923,-0.5608,-0.52,-0.574,-0.614,-0.5996,-0.6969,-0.7728,0.0,0.0,0.0,0.0,0.0,0.0,0.0,0.0,0.0,0.0,0.0,0.0,0.0,0.0,0.0,0.0,0.0,0.0,-1.4963,-1.5592,-1.5904,-1.5904,-1.5904,-1.5982,0.0,-1.7181,-1.7943,-1.8565,-1.9593,-2.0269,-2.0833,-2.1094,-2.1231,-2.1197,-2.2302,-2.3006,-2.3475,-2.4354,-2.4939,-2.5312,-2.5312,-2.5312,-2.5312,-2.5312,-2.5312,-2.5382,-2.5758,-2.6094,-2.6496,-2.6905,-2.7242,-2.7523,-2.7523,-2.7523,-2.7523,-2.7523,-2.7523,-2.7523,-2.7523,-2.7523,-2.7523,-2.7656,-2.8091,-2.8546,-2.8739,-2.9156,-2.958,-2.9979,-2.9993,-3.0176,-3.0837,-3.1278,-3.1482,-3.1482,-3.1482,-3.1482,-3.1482,-3.1482,-3.1482,-3.1482,-3.1482,-3.1482,-3.1482,-3.1674,-3.1749,-3.1749,-3.311,-3.3925,-3.394,-3.3985,-3.3727,-3.3211,-3.4125,-3.4326,-3.3712,-3.4194,-3.477,-0.2948,-0.3125,-0.3805,-0.4511,-0.5041,-0.5526,-0.6128,-0.5955,-0.5622,-0.5336,-0.53,-0.5463,-0.5566,-0.6253,0.0,0.0,0.0,0.0,0.0,0.0,0.0,0.0,0.0,0.0,0.0,0.0,0.0,0.0,0.0,0.0,0.0,-1.3666,-1.4059,-1.4443,-1.4979,-1.5443,-1.5674,-1.5674,-1.5674,-1.5682,-1.6621,-1.7397,-1.8252,-1.9497,-2.0117,-2.0252,-2.0785,-2.0931,-2.0787,-2.1882,-2.2466,-2.2798,-2.3663,-2.412,-2.4402,-2.4525,-2.4566,-2.4602,-2.4843,-2.4927,-2.5045,-2.5673,-2.6037,-2.6233,-2.6633,-2.6837,-2.704,-2.7188,-2.7255,-2.7323,-2.7456,-2.7523,-2.7523,-2.7523,-2.7523,-2.759,-2.7908,-2.8222,-2.8661,-2.9345,-2.9766,-3.0086,-3.0539,-3.0613,-3.0732,-3.1087,-3.1351,-3.1482,-3.1482,-3.1482,-3.1482,-3.1482,-3.1482,-3.1482,-3.1482,-3.1482,-3.1482,-3.1482,-3.1482,-3.1482,-3.1482,-3.2315,-3.2794,-3.2794,-3.2794,-3.2687,-3.2513,-3.302,-3.3233,-3.3144,-3.3255,-3.3623,-0.3374,-0.3886,-0.4849,-0.5817,-0.5898,-0.5759,-0.6167,-0.6105,-0.5909,-0.5685,-0.5218,-0.4925,-0.5521,0.0,0.0,0.0,0.0,0.0,0.0,0.0,0.0,0.0,0.0,0.0,0.0,0.0,0.0,0.0,0.0,0.0,-1.2739,-1.3124,-1.3585,-1.3895,-1.4352,-1.4889,-1.5499,-1.5499,-1.5499,-1.5499,-1.6229,-1.7125,-1.8184,-1.9707,-2.0185,-1.9932,-2.0466,-2.0532,-2.0341,-2.1473,-2.1952,-2.2113,-2.2921,-2.3316,-2.3409,-2.3685,-2.3773,-2.3833,-2.4242,-2.4398,-2.455,-2.5371,-2.5706,-2.5857,-2.6195,-2.6427,-2.6552,-2.6905,-2.704,-2.7175,-2.7456,-2.7523,-2.7523,-2.7523,-2.7523,-2.7656,-2.8222,-2.8417,-2.8853,-2.9964,-3.0269,-3.0524,-3.1219,-3.1351,-3.1351,-3.1467,-3.1482,-3.1482,-3.1482,-3.1482,-3.1482,-3.1482,-3.1482,-3.1482,-3.1482,-3.1482,-3.1482,-3.1482,-3.1482,-3.1482,-3.1482,-3.1482,-3.1482,-3.1482,-3.1482,-3.1697,-3.2079,-3.1981,-3.2206,-3.2827,-3.2468,-3.2523,-0.3135,-0.3955,-0.5255,-0.5765,-0.6223,-0.6405,-0.6284,-0.6083,-0.5837,-0.5801,-0.55,-0.5202,-0.5104,0.0,0.0,0.0,0.0,0.0,0.0,0.0,0.0,0.0,0.0,0.0,0.0,0.0,0.0,0.0,0.0,0.0,-1.1896,-1.2425,-1.2945,-1.3321,-1.3756,-1.4187,-1.4704,-1.4784,-1.4784,-1.4784,-1.6259,-1.7175,-1.7635,-1.887,-1.9629,-1.9912,-1.9971,-2.0262,-2.0604,-2.0947,-2.1414,-2.191,-2.2469,-2.3018,-2.3409,-2.3685,-2.3773,-2.3773,-2.3845,-2.3869,-2.3953,-2.4526,-2.4913,-2.5296,-2.5832,-2.644,-2.6905,-2.6973,-2.7175,-2.7456,-2.7456,-2.7523,-2.7523,-2.7523,-2.7523,-2.7523,-2.759,-2.8105,-2.8532,-2.8725,-2.9205,-2.9827,-3.0524,-3.0644,-3.0837,-3.1409,-3.1482,-3.1482,-3.1482,-3.1482,-3.1482,-3.1482,-3.1482,-3.1482,-3.1482,-3.1482,-3.1482,-3.1482,-3.1482,-3.1482,-3.1482,-3.1482,-3.1482,-3.1482,-3.1482,-3.1524,-3.1582,-3.1597,-3.1597,-3.1697,-3.1925,-3.2206,-0.3533,-0.3944,-0.4673,-0.582,-0.6108,-0.6157,-0.6327,-0.6118,-0.5918,-0.6045,-0.5613,-0.5217,0.0,0.0,0.0,0.0,0.0,0.0,0.0,0.0,0.0,0.0,0.0,0.0,0.0,0.0,0.0,0.0,0.0,-1.1462,-1.1848,-1.1853,-1.2204,-1.282,-1.3006,-1.3423,-1.4122,-1.4425,-1.4784,-1.5141,-1.5808,-1.6536,-1.7341,-1.7849,-1.8639,-1.9561,-1.9561,-1.9805,-2.0185,-2.0367,-2.0761,-2.1395,-2.18,-2.2195,-2.2569,-2.2805,-2.2883,-2.2931,-2.3232,-2.3328,-2.3412,-2.3929,-2.4244,-2.4426,-2.4657,-2.5043,-2.5432,-2.5498,-2.6057,-2.671,-2.6777,-2.7142,-2.7523,-2.7523,-2.7723,-2.7973,-2.7973,-2.8222,-2.8725,-2.947,-3.0147,-3.0703,-3.1029,-3.1087,-3.1161,-3.1467,-3.1482,-3.1482,-3.1482,-3.1482,-3.1482,-3.1482,-3.1482,-3.1482,-3.1482,-3.1482,-3.1482,-3.1482,-3.1482,-3.1482,-3.1482,-3.1482,-3.1482,-3.1482,-3.1482,-3.1482,-3.1482,-3.1482,-3.1597,-3.1754,-3.1769,-3.1868,-0.4089,-0.4087,-0.4336,-0.5818,-0.5993,-0.5952,-0.6482,-0.6237,-0.5996,0.0,-0.5793,0.0,0.0,0.0,0.0,0.0,0.0,0.0,0.0,0.0,0.0,0.0,0.0,0.0,0.0,0.0,0.0,0.0,0.0,-1.0904,-1.1484,-1.1299,-1.1501,-1.2294,-1.2212,-1.2621,-1.3506,-1.3947,-1.4489,-1.5072,-1.5213,-1.5817,-1.6751,-1.7097,-1.7783,-1.8749,-1.9,-1.9365,-1.9756,-1.9756,-2.0118,-2.0803,-2.1107,-2.1406,-2.177,-2.2052,-2.2197,-2.2246,-2.2642,-2.2787,-2.2871,-2.34,-2.3568,-2.3592,-2.3725,-2.4013,-2.4251,-2.4381,-2.5136,-2.5948,-2.6232,-2.6791,-2.7353,-2.7497,-2.7776,-2.8091,-2.8287,-2.8481,-2.898,-2.9842,-3.0524,-3.1029,-3.1219,-3.1219,-3.1278,-3.1467,-3.1482,-3.1482,-3.1482,-3.1482,-3.1482,-3.1482,-3.1482,-3.1482,-3.1482,-3.1482,-3.1482,-3.1482,-3.1482,-3.1482,-3.1482,-3.1482,-3.1482,-3.1482,-3.1482,-3.1482,-3.1482,-3.1482,-3.1655,-3.1883,-3.1597,-3.164,-0.4642,-0.4595,-0.4621,-0.5749,-0.6016,-0.61,-0.6698,-0.6307,-0.6002,-0.6461,-0.6115,0.0,0.0,0.0,0.0,0.0,0.0,0.0,0.0,0.0,0.0,0.0,0.0,0.0,0.0,0.0,0.0,0.0,0.0,-1.0124,-1.0212,-1.049,-1.0912,-1.1552,-1.1394,-1.1731,-1.2616,-1.2983,-1.3415,-1.4002,-1.4478,-1.5013,-1.5638,-1.6682,-1.7254,-1.7389,-1.8276,-1.8916,-1.9316,-1.9316,-1.968,-2.0196,-2.0557,-2.1029,-2.1561,-2.2052,-2.2197,-2.2197,-2.2221,-2.2234,-2.2318,-2.2847,-2.3015,-2.3111,-2.3616,-2.4013,-2.4381,-2.4705,-2.5052,-2.5525,-2.6466,-2.67,-2.6857,-2.7406,-2.7523,-2.7656,-2.8157,-2.8803,-2.9107,-2.8675,-2.9156,-2.9827,-3.045,-3.0524,-3.0777,-3.1409,-3.1482,-3.1482,-3.1482,-3.1482,-3.1482,-3.1482,-3.1482,-3.1482,-3.1482,-3.1482,-3.1482,-3.1482,-3.1482,-3.1482,-3.1482,-3.1482,-3.1482,-3.1482,-3.1482,-3.1482,-3.1482,-3.1482,-3.1539,-3.1539,-3.1539,-3.1582,-0.4711,-0.4524,-0.4449,-0.5207,-0.5803,-0.6026,-0.5621,-0.5632,-0.5704,-0.566,-0.5396,0.0,0.0,0.0,0.0,0.0,0.0,0.0,0.0,0.0,0.0,0.0,0.0,0.0,0.0,0.0,0.0,0.0,0.0,0.0,-1.0095,-1.0158,-1.0418,-1.088,-1.1384,-1.2107,-1.3243,-1.3274,-1.3411,-1.3596,-1.3656,-1.4117,-1.4984,-1.5521,-1.612,-1.6796,-1.7212,-1.7969,-1.8867,-1.8867,-1.9222,-1.9895,-2.0407,-2.0831,-2.1312,-2.1745,-2.1937,-2.1999,-2.1886,-2.1949,-2.2023,-2.2214,-2.2411,-2.251,-2.2702,-2.3004,-2.3243,-2.318,-2.3804,-2.4482,-2.4608,-2.5525,-2.6739,-2.8166,-2.8509,-2.8624,-2.9184,-2.9345,-2.9393,-2.9205,-2.9704,-3.0208,-3.045,-3.0837,-3.1219,-3.1467,-3.1482,-3.1482,-3.1482,-3.1482,-3.1482,-3.1482,-3.1482,-3.1482,-3.1482,-3.1482,-3.1482,-3.1482,-3.1482,-3.1482,-3.1482,-3.1482,-3.1482,-3.1482,-3.1482,-3.1482,-3.1482,-3.1482,-3.1482,-3.1482,-3.1482,-3.1524,-0.4663,-0.4468,-0.4411,-0.508,-0.5421,-0.5626,-0.5544,-0.5436,-0.5463,-0.5576,-0.5369,0.0,0.0,0.0,0.0,0.0,0.0,0.0,0.0,0.0,0.0,0.0,0.0,0.0,0.0,0.0,0.0,0.0,0.0,0.0,-0.9638,-0.9753,-0.994,-1.0331,-1.0949,-1.1718,-1.2641,-1.2664,-1.2798,-1.3111,-1.2905,-1.329,-1.4189,-1.4649,-1.5236,-1.601,-1.6475,-1.7207,-1.793,-1.793,-1.8395,-1.8998,-1.9554,-2.0205,-2.0768,-2.1227,-2.1624,-2.1812,-2.1761,-2.1761,-2.1812,-2.1812,-2.1937,-2.2011,-2.2011,-2.2197,-2.2321,-2.2259,-2.28,-2.3468,-2.3704,-2.4887,-2.64,-2.7692,-2.7976,-2.8039,-2.8326,-2.9251,-2.9964,-2.978,-3.0343,-3.0837,-3.0837,-3.1029,-3.1219,-3.1467,-3.1278,-3.1219,-3.1467,-3.1482,-3.1482,-3.1482,-3.1482,-3.1482,-3.1482,-3.1482,-3.1482,-3.1482,-3.1482,-3.1482,-3.1482,-3.1482,-3.1482,-3.1482,-3.1467,-3.1409,-3.1409,-3.1467,-3.1482,-3.1482,-3.1482,-3.1539,0.0,0.0,0.0,-0.5262,-0.4989,-0.4935,-0.6466,0.0,-0.5271,-0.6342,0.0,0.0,0.0,0.0,0.0,0.0,0.0,0.0,0.0,0.0,0.0,0.0,0.0,0.0,0.0,0.0,0.0,0.0,0.0,-0.8182,-0.877,-0.9087,-0.9472,-0.9804,-1.018,-1.0491,-1.0807,-1.1059,-1.1658,-1.2618,-1.2417,-1.2591,-1.3117,-1.4156,-1.4737,-1.4941,-1.6109,-1.6626,-1.6699,-1.6719,-1.7024,-1.7533,-1.8175,-1.905,-2.0042,-2.0665,-2.1187,-2.1663,-2.1675,-2.1675,-2.1675,-2.1698,-2.1698,-2.1698,-2.1698,-2.1698,-2.1761,-2.2073,-2.2309,-2.2653,-2.3865,-2.4983,-2.5798,-2.5811,-2.5824,-2.5762,-2.5636,-2.8479,-3.0837,-3.0254,-3.0807,-3.1349,-3.1364,-3.0852,-3.0659,-3.1379,-3.094,-3.0748,-3.1409,-3.1482,-3.1482,-3.1482,-3.1482,-3.1482,-3.1482,-3.1482,-3.1482,-3.1482,-3.1482,-3.1482,-3.1482,-3.1482,-3.1482,-3.1482,-3.1351,-3.1278,-3.1278,-3.1409,-3.1482,-3.1482,-3.1482,-3.164,-0.4497,0.0,0.0,0.0,0.0,0.0,0.0,0.0,-0.5346,-0.5222,0.0,0.0,0.0,0.0,0.0,0.0,0.0,0.0,0.0,0.0,0.0,0.0,0.0,0.0,0.0,0.0,0.0,0.0,-0.7587,-0.7722,-0.7992,-0.8571,-0.9344,-1.0301,-1.0611,-1.1052,-1.149,-1.1809,-1.2103,-1.2383,-1.2203,-1.2311,-1.272,-1.3455,-1.4066,-1.4425,-1.5251,-1.5741,-1.6029,-1.6785,-1.7169,-1.7357,-1.7916,-1.8566,-1.9237,-1.9636,-2.0176,-2.0712,-2.103,-2.1172,-2.1315,-2.1694,-2.1937,-2.2073,-2.2073,-2.1937,-2.1874,-2.1937,-2.1937,-2.2181,-2.348,-2.4378,-2.5104,-2.6126,-2.6356,-2.6417,-2.6661,-2.7543,-2.8078,-2.7085,-2.7732,-2.8434,-2.858,-2.9102,-2.9734,-3.0505,-3.045,-3.0628,-3.1407,-3.1482,-3.1482,-3.1482,-3.1482,-3.1482,-3.1482,-3.1482,-3.1482,-3.1482,-3.1482,-3.1482,-3.1482,-3.1482,-3.1467,-3.1351,-3.1351,-3.1278,-3.1278,-3.1351,-3.1351,-3.1351,-3.1467,-3.1539,-0.4302,-0.4261,-0.4227,-0.4534,0.0,0.0,-0.4807,-0.4988,0.0,0.0,0.0,0.0,0.0,0.0,0.0,0.0,0.0,0.0,0.0,0.0,0.0,0.0,0.0,0.0,0.0,0.0,0.0,-0.7521,-0.7521,-0.7722,-0.8247,-0.8759,-0.9466,-1.0301,-1.0421,-1.0744,-1.1178,-1.149,-1.1809,-1.1996,-1.2058,-1.2182,-1.2367,-1.2911,-1.345,-1.3863,-1.4419,-1.502,-1.5517,-1.6147,-1.6547,-1.6698,-1.7185,-1.7843,-1.857,-1.8959,-1.9561,-2.0263,-2.0452,-2.0771,-2.1067,-2.1374,-2.1685,-2.2011,-2.2011,-2.1874,-2.1812,-2.1812,-2.1874,-2.2246,-2.3207,-2.3786,-2.4374,-2.5315,-2.5575,-2.5575,-2.574,-2.5846,-2.604,-2.6539,-2.7134,-2.7722,-2.8111,-2.8453,-2.8937,-2.967,-2.9432,-2.9377,-3.0044,-3.0454,-3.0631,-3.0558,-3.1013,-3.1366,-3.1409,-3.1409,-3.1409,-3.1482,-3.1482,-3.1482,-3.1482,-3.1482,-3.1467,-3.1409,-3.1351,-3.1278,-3.1278,-3.1278,-3.1351,-3.1409,-3.1409,-3.1467,-0.3949,-0.4091,-0.436,-0.5053,-0.4759,0.0,-0.5393,-0.5081,-0.4728,0.0,0.0,0.0,0.0,0.0,0.0,0.0,0.0,0.0,0.0,0.0,0.0,0.0,0.0,0.0,0.0,-0.7195,-0.7521,-0.7521,-0.7461,-0.7912,-0.8823,-0.9139,-0.946,-0.9919,-0.9862,-0.9989,-1.0301,-1.0681,-1.1122,-1.1622,-1.1934,-1.2127,-1.2189,-1.2581,-1.3,-1.3329,-1.3837,-1.4492,-1.5225,-1.541,-1.5662,-1.5954,-1.6336,-1.7071,-1.7933,-1.8289,-1.9036,-1.9889,-1.9948,-2.0335,-2.0783,-2.0841,-2.1231,-2.1678,-2.1678,-2.1714,-2.1698,-2.1698,-2.2061,-2.2482,-2.2957,-2.3318,-2.3688,-2.3995,-2.4112,-2.4067,-2.3949,-2.3891,-2.4635,-2.7155,-2.7683,-2.7968,-2.8531,-2.8181,-2.8054,-2.8791,-2.8054,-2.7591,-2.8197,-2.8843,-2.9217,-2.9159,-3.0251,-3.0984,-3.107,-3.1203,-3.1321,-3.1362,-3.1437,-3.1482,-3.1482,-3.1482,-3.1482,-3.1467,-3.1351,-3.1278,-3.1278,-3.1278,-3.1351,-3.1482,-3.1409,-3.1409,-0.3751,-0.3853,-0.3997,-0.4259,-0.4612,0.0,-0.4862,-0.5089,-0.5199,0.0,0.0,0.0,0.0,0.0,0.0,0.0,0.0,0.0,0.0,0.0,0.0,0.0,0.0,0.0,0.0,-0.7195,-0.7521,-0.7521,-0.733,-0.7526,-0.8177,-0.8117,-0.8501,-0.9402,-0.9652,-1.004,-1.0485,-1.08,-1.124,-1.174,-1.1802,-1.2058,-1.249,-1.2677,-1.2999,-1.3494,-1.4063,-1.4697,-1.5352,-1.5662,-1.5904,-1.6066,-1.6352,-1.6717,-1.7207,-1.7305,-1.7902,-1.8693,-1.9167,-1.9592,-2.0109,-2.0529,-2.1044,-2.144,-2.144,-2.1665,-2.1812,-2.1761,-2.2061,-2.2482,-2.2848,-2.3271,-2.3688,-2.3995,-2.4112,-2.4067,-2.3949,-2.3891,-2.4178,-2.5047,-2.5189,-2.5303,-2.5615,-2.5827,-2.6371,-2.7623,-2.7213,-2.7197,-2.8429,-2.8641,-2.8698,-2.8626,-2.9622,-3.0113,-2.9581,-3.0626,-3.1055,-3.0592,-3.1126,-3.1482,-3.1482,-3.1482,-3.1467,-3.1351,-3.1278,-3.1278,-3.1278,-3.1278,-3.1351,-3.1482,-3.1467,-3.1467,-0.3275,-0.328,-0.3413,-0.3813,0.0,0.0,0.0,-0.4773,-0.5033,-0.486,-0.5356,-0.5891,0.0,0.0,0.0,0.0,0.0,0.0,0.0,0.0,0.0,0.0,0.0,0.0,0.0,-0.7265,-0.7396,-0.7521,-0.7396,-0.7591,-0.8236,-0.7987,-0.8247,-0.9022,-0.9402,-0.9652,-0.9913,-1.0548,-1.1115,-1.1553,-1.1864,-1.2305,-1.2674,-1.2792,-1.3049,-1.3398,-1.3847,-1.4452,-1.5059,-1.5478,-1.5966,-1.6451,-1.6578,-1.678,-1.7032,-1.728,-1.7768,-1.8313,-1.8623,-1.9168,-1.9829,-2.0081,-2.055,-2.1055,-2.132,-2.1704,-2.2061,-2.1949,-2.2135,-2.2371,-2.2739,-2.2969,-2.3271,-2.376,-2.3865,-2.3878,-2.3995,-2.4008,-2.4054,-2.4261,-2.4319,-2.4536,-2.5342,-2.5825,-2.6363,-2.7058,-2.6707,-2.6554,-2.7186,-2.7613,-2.7641,-2.7343,-2.8383,-2.8928,-2.8652,-2.916,-2.945,-2.9415,-2.9765,-2.9999,-2.9999,-3.0567,-3.1081,-3.1409,-3.1409,-3.1409,-3.1409,-3.1409,-3.1409,-3.1482,-3.1409,-3.1409,-0.2857,0.0,-0.2861,0.0,0.0,-0.3827,0.0,0.0,0.0,-0.4812,0.0,0.0,0.0,0.0,0.0,0.0,0.0,0.0,0.0,0.0,0.0,0.0,0.0,0.0,0.0,-0.7205,-0.7158,-0.7456,-0.7353,-0.7608,-0.8296,-0.8042,-0.8112,-0.8571,-0.8779,-0.8965,-0.9268,-0.9977,-1.0613,-1.1178,-1.1864,-1.2367,-1.2736,-1.2846,-1.3105,-1.3354,-1.3622,-1.404,-1.4656,-1.5177,-1.5861,-1.6616,-1.6767,-1.6978,-1.7152,-1.7451,-1.7818,-1.8187,-1.8084,-1.8655,-1.9392,-1.9514,-1.9941,-2.0562,-2.1091,-2.1548,-2.1909,-2.2017,-2.2041,-2.2127,-2.2531,-2.2616,-2.28,-2.339,-2.3569,-2.3628,-2.3995,-2.4112,-2.4112,-2.4112,-2.4171,-2.4563,-2.5564,-2.6002,-2.6329,-2.6443,-2.6032,-2.5716,-2.5716,-2.6329,-2.6554,-2.6015,-2.7158,-2.7969,-2.7924,-2.7868,-2.8011,-2.8407,-2.8565,-2.8623,-2.8623,-2.9542,-3.0372,-3.1021,-3.1213,-3.1287,-3.1287,-3.1407,-3.1482,-3.1482,-3.1409,-3.1409,0.0,0.0,0.0,0.0,-0.3593,0.0,0.0,0.0,-0.5257,-0.4953,0.0,0.0,0.0,0.0,0.0,0.0,0.0,0.0,0.0,0.0,0.0,0.0,0.0,0.0,0.0,0.0,-0.6808,-0.7442,-0.6962,-0.6876,-0.7577,-0.7587,-0.7652,-0.7837,-0.7467,-0.7833,-0.8994,-0.8709,-0.9345,-1.0863,-1.1365,-1.1919,-1.2536,-1.2644,-1.3025,-1.3494,-1.3637,-1.3916,-1.4309,-1.5059,-1.5566,-1.5898,-1.6704,-1.7253,-1.7594,-1.723,-1.7349,-1.7698,-1.7264,-1.7479,-1.802,-1.836,-1.9105,-1.9973,-2.0538,-2.0742,-2.0887,-2.1368,-2.1488,-2.1656,-2.2299,-2.242,-2.2604,-2.3271,-2.3403,-2.3582,-2.3995,-2.4112,-2.4112,-2.4112,-2.4447,-2.462,-2.439,-2.439,-2.4562,-2.5137,-2.472,-2.4516,-2.5031,-2.5358,-2.5564,-2.5508,-2.6803,-2.7552,-2.6987,-2.8053,-2.8572,-2.81,-2.8679,-2.9042,-2.9042,-2.9171,-2.93,-2.9374,-3.0063,-3.0431,-3.0431,-3.1126,-3.1482,-3.1482,-3.1467,-3.1482,0.0,0.0,0.0,0.0,0.0,0.0,-0.4146,0.0,-0.5147,0.0,0.0,0.0,0.0,0.0,0.0,0.0,0.0,0.0,0.0,0.0,0.0,0.0,0.0,0.0,0.0,0.0,0.0,0.0,0.0,-0.685,-0.7451,-0.7521,-0.7521,-0.7582,-0.7624,-0.8137,-0.9005,-0.9214,-0.9907,-1.1115,-1.1428,-1.1809,-1.2297,-1.2583,-1.2901,-1.3147,-1.3714,-1.4096,-1.4249,-1.4834,-1.533,-1.5701,-1.6367,-1.6757,-1.6922,-1.6726,-1.6885,-1.7162,-1.7226,-1.7467,-1.7855,-1.8317,-1.8937,-1.963,-1.9856,-2.0141,-2.0427,-2.0641,-2.0914,-2.1128,-2.1105,-2.1546,-2.2101,-2.2546,-2.2912,-2.3271,-2.3936,-2.4112,-2.4112,-2.4112,-2.4287,-2.4345,-2.4112,-2.4549,-2.4946,-2.5202,-2.5027,-2.4959,-2.5202,-2.5339,-2.53,-2.5104,-2.5618,-2.5897,-2.5633,-2.5951,-2.6131,-2.612,-2.6664,-2.742,-2.8444,-2.8458,-2.8674,-2.9098,-2.9433,-2.9622,-2.9622,-3.0401,-3.0785,-3.0785,-3.1287,-3.1482,-0.2747,0.0,0.0,0.0,0.0,0.0,0.0,0.0,0.0,0.0,0.0,0.0,0.0,0.0,0.0,0.0,0.0,0.0,0.0,0.0,0.0,0.0,0.0,0.0,0.0,0.0,0.0,0.0,0.0,0.0,-0.7456,-0.7391,-0.7265,-0.7199,-0.7335,-0.7688,-0.8265,-0.8885,-0.9662,-1.0547,-1.1106,-1.1463,-1.1805,-1.2356,-1.2655,-1.2867,-1.3588,-1.3941,-1.4061,-1.4538,-1.4893,-1.5275,-1.5583,-1.5841,-1.6039,-1.6393,-1.6665,-1.6859,-1.7,-1.7297,-1.7633,-1.792,-1.8329,-1.8858,-1.8969,-1.9294,-1.9678,-2.0003,-2.0357,-2.0523,-2.0299,-2.0759,-2.1376,-2.182,-2.2184,-2.265,-2.3721,-2.3936,-2.3936,-2.4054,-2.4112,-2.4112,-2.4112,-2.4593,-2.5021,-2.5021,-2.5021,-2.5021,-2.5021,-2.5133,-2.5147,-2.4835,-2.4878,-2.4935,-2.4935,-2.4664,-2.4664,-2.5118,-2.5425,-2.624,-2.7623,-2.7652,-2.791,-2.8458,-2.8704,-2.8792,-2.8792,-2.9607,-2.9989,-3.0004,-3.1021,-3.1482,0.0,0.0,0.0,-0.3776,0.0,0.0,0.0,0.0,-0.5255,0.0,0.0,0.0,0.0,0.0,-0.6598,-0.6287,-0.6712,0.0,0.0,0.0,0.0,0.0,0.0,0.0,0.0,0.0,0.0,0.0,0.0,0.0,-0.7447,-0.7138,-0.6749,-0.642,-0.58,-0.5836,-0.6455,-0.6946,-0.7677,-0.8693,-1.0034,-1.0726,-1.0979,-1.1755,-1.2354,-1.2805,-1.2989,-1.3216,-1.3571,-1.4001,-1.4258,-1.4231,-1.4305,-1.4611,-1.5117,-1.6307,-1.6896,-1.6904,-1.6345,-1.6431,-1.6828,-1.6715,-1.6909,-1.739,-1.7952,-1.8127,-1.8417,-1.9483,-1.9817,-1.9881,-2.0201,-2.0239,-2.0346,-2.1235,-2.1308,-2.1572,-2.3097,-2.3403,-2.3582,-2.3995,-2.4112,-2.4112,-2.4112,-2.4112,-2.4112,-2.4112,-2.4112,-2.4112,-2.4112,-2.4563,-2.4835,-2.4778,-2.5147,-2.5398,-2.5398,-2.5356,-2.5577,-2.6002,-2.6056,-2.6301,-2.6808,-2.6823,-2.6823,-2.689,-2.7623,-2.8052,-2.8052,-2.8777,-2.9142,-2.9171,-3.0741,-3.1482,0.0,0.0,-0.2902,-0.3765,0.0,0.0,0.0,0.0,0.0,0.0,0.0,0.0,0.0,-0.6109,-0.6603,-0.6895,-0.6949,-0.7084,0.0,0.0,0.0,0.0,0.0,0.0,0.0,0.0,0.0,0.0,0.0,0.0,0.0,-0.714,-0.7197,-0.753,-0.7269,-0.7352,-0.7792,-0.8005,-0.8381,-0.8751,-0.9519,-0.9771,-0.9571,-1.0515,-1.1167,-1.1533,-1.1729,-1.2309,-1.3017,-1.294,-1.328,-1.3743,-1.4096,-1.4309,-1.4529,-1.5331,-1.5748,-1.5949,-1.6276,-1.6681,-1.708,-1.7021,-1.7316,-1.7722,-1.7886,-1.817,-1.853,-1.888,-1.9242,-1.9412,-1.9235,-1.9651,-2.0192,-2.0471,-2.0746,-2.1308,-2.2866,-2.3122,-2.3238,-2.4066,-2.4157,-2.4112,-2.4112,-2.4112,-2.4112,-2.4112,-2.4112,-2.4112,-2.4112,-2.4229,-2.4345,-2.4345,-2.4434,-2.4549,-2.4549,-2.4549,-2.4721,-2.523,-2.523,-2.5439,-2.5865,-2.5865,-2.5865,-2.5865,-2.6418,-2.6763,-2.6777,-2.7846,-2.8385,-2.84,-2.9418,-2.993,-0.2391,-0.2444,0.0,-0.3589,-0.3877,0.0,-0.4759,0.0,0.0,0.0,0.0,0.0,0.0,0.0,-0.6549,-0.6781,-0.7058,-0.743,0.0,-0.8195,0.0,0.0,0.0,0.0,0.0,0.0,-0.6095,-0.5348,0.0,0.0,0.0,0.0,-0.673,-0.718,-0.7131,-0.7158,-0.7407,-0.7767,-0.7963,-0.8011,-0.8651,-0.8862,-0.878,-0.9674,-1.0315,-1.0718,-1.0977,-1.1592,-1.2408,-1.2338,-1.273,-1.3331,-1.3768,-1.3941,-1.4034,-1.4821,-1.5357,-1.5644,-1.6157,-1.6494,-1.6729,-1.6729,-1.6927,-1.7245,-1.7468,-1.7744,-1.8018,-1.8387,-1.8686,-1.8928,-1.8762,-1.9175,-1.9693,-1.9817,-2.0089,-2.075,-2.2464,-2.27,-2.2981,-2.4187,-2.4319,-2.4287,-2.4157,-2.4157,-2.4157,-2.4112,-2.4112,-2.4112,-2.4112,-2.4112,-2.4112,-2.4112,-2.4112,-2.4112,-2.4112,-2.4112,-2.4287,-2.4778,-2.4778,-2.4991,-2.5398,-2.5398,-2.5398,-2.5398,-2.5701,-2.5879,-2.5879,-2.6671,-2.709,-2.7104,-2.7726,-2.8024]}]]